Date StartTime U_cm/s V_cm/s W_cm/s Ustd_cm/s Vstd_cm/s Wstd_cm/s Uvar_(cm/s)^2 Vvar_(cm/s)^2 Wvar_(cm/s)^2 KE_(m/s)^2 TurbulentKE_(m/s)^2 HorizWindSpeed_cm/s FrictionSpeec_cm/s DragCoef SpeedOfSound_m/s SonicTemperature_C Pressure_mb 
06/25/2013  00:00:00     -109.446      -89.854       -4.600       48.234       56.244       32.453     2326.551     3163.400     1053.196        1.331        0.327      141.605       27.300        0.037      341.048       15.490      857.782
06/25/2013  00:01:00      -93.485      -69.499       -5.111       43.585       28.586       23.727     1899.625      817.184      562.983        0.844        0.164      116.488       22.423        0.037      341.052       15.500      857.791
06/25/2013  00:02:00      -73.920     -101.944        1.205       50.083       42.079       23.413     2508.309     1770.666      548.153        1.034        0.241      125.924       25.007        0.039      341.074       15.533      857.803
06/25/2013  00:03:00     -116.865      -92.605      -10.774       40.819       46.879       28.766     1666.151     2197.598      827.478        1.352        0.235      149.108       21.159        0.020      341.038       15.474      857.790
06/25/2013  00:04:00     -125.728      -85.307       -7.597       48.245       43.722       26.757     2327.539     1911.611      715.934        1.405        0.248      151.937       16.798        0.012      341.000       15.409      857.760
06/25/2013  00:05:00     -100.413      -72.123       -0.525       53.466       34.783       26.715     2858.641     1209.834      713.677        1.003        0.239      123.631       23.206        0.035      340.983       15.379      857.738
06/25/2013  00:06:00     -136.364     -104.095       -2.171       54.953       37.619       36.597     3019.876     1415.176     1339.375        1.760        0.289      171.554       28.846        0.028      340.980       15.374      857.750
06/25/2013  00:07:00     -155.579     -109.018        6.340       69.088       45.858       34.143     4773.125     2102.913     1165.722        2.208        0.402      189.973       32.816        0.030      340.964       15.344      857.761
06/25/2013  00:08:00     -123.362      -87.479       -5.110       58.658       40.641       25.978     3440.791     1651.678      674.833        1.433        0.288      151.231       26.313        0.030      340.996       15.401      857.758
06/25/2013  00:09:00      -85.074      -68.802        3.559       35.365       33.005       20.168     1250.701     1089.341      406.739        0.736        0.137      109.414       18.717        0.029      340.979       15.372      857.753
06/25/2013  00:10:00     -100.085      -70.824        4.163       49.639       42.271       23.212     2464.043     1786.800      538.777        0.992        0.239      122.610       23.531        0.037      340.987       15.386      857.728
06/25/2013  00:11:00      -59.096      -67.573        4.659       47.393       34.758       30.001     2246.102     1208.120      900.067        0.622        0.218       89.769       31.404        0.122      341.004       15.416      857.711
06/25/2013  00:12:00      -74.681      -84.435       -4.790       36.038       27.479       23.309     1298.761      755.109      543.293        0.766        0.130      112.724       19.496        0.030      341.021       15.446      857.718
06/25/2013  00:13:00      -41.453     -113.479       -4.069       41.201       47.840       26.551     1697.546     2288.692      704.963        0.965        0.235      120.813       19.182        0.025      340.976       15.369      857.748
06/25/2013  00:14:00      -46.907      -80.042       15.397       56.619       41.606       35.058     3205.741     1731.089     1229.037        0.750        0.308       92.774       30.584        0.109      340.961       15.342      857.746
06/25/2013  00:15:00      -41.272      -65.948       12.886       54.113       42.048       26.406     2928.188     1768.016      697.273        0.580        0.270       77.798       18.937        0.059      340.971       15.359      857.733
06/25/2013  00:16:00      -50.256      -97.645       -2.536       31.894       44.493       26.656     1017.244     1979.646      710.550        0.789        0.185      109.819       21.629        0.039      340.969       15.356      857.717
06/25/2013  00:17:00      -45.015      -81.052       -2.839       47.555       62.052       27.925     2261.486     3850.473      779.786        0.775        0.345       92.713       29.760        0.103      340.952       15.328      857.716
06/25/2013  00:18:00      -51.002     -127.844       -5.297       44.023       25.036       18.504     1938.053      626.806      342.407        1.094        0.145      137.642       10.661        0.006      340.918       15.269      857.711
06/25/2013  00:19:00      -49.570     -100.759       -1.498       51.287       58.233       26.971     2630.376     3391.107      727.425        0.968        0.337      112.292       29.599        0.069      340.955       15.333      857.704
06/25/2013  00:20:00     -101.406     -153.631      -11.963       45.694       35.355       30.175     2087.901     1249.997      910.517        1.914        0.212      184.081       20.380        0.012      340.882       15.209      857.733
06/25/2013  00:21:00      -80.024     -145.518       -3.026       43.276       57.514       27.409     1872.832     3307.831      751.269        1.676        0.297      166.070       23.154        0.019      340.914       15.262      857.766
06/25/2013  00:22:00      -67.264     -123.146       -9.884       50.185       47.306       27.055     2518.498     2237.834      731.973        1.264        0.274      140.319       19.991        0.020      340.935       15.299      857.779
06/25/2013  00:23:00      -19.713      -72.481        5.697       47.369       40.991       28.235     2243.813     1680.253      797.211        0.520        0.236       75.114       19.527        0.068      340.928       15.287      857.760
06/25/2013  00:24:00      -50.240      -86.930       -1.294       39.933       55.562       28.520     1594.656     3087.169      813.412        0.779        0.275      100.403       21.272        0.045      340.922       15.278      857.740
06/25/2013  00:25:00      -48.521      -52.243        3.364       52.345       39.524       22.528     2740.007     1562.134      507.504        0.495        0.240       71.300       26.351        0.137      340.896       15.231      857.724
06/25/2013  00:26:00      -90.031      -70.447       -1.902       30.266       25.910       22.085      916.016      671.316      487.739        0.757        0.104      114.317       11.011        0.009      340.908       15.252      857.734
06/25/2013  00:27:00      -37.204      -53.121        8.612       44.536       25.311       22.155     1983.492      640.643      490.862        0.370        0.156       64.853       18.998        0.086      340.909       15.254      857.736
06/25/2013  00:28:00      -46.175      -61.190       -0.464       25.402       29.603       16.784      645.264      876.338      281.694        0.384        0.090       76.658       16.249        0.045      340.904       15.248      857.737
06/25/2013  00:29:00      -72.896      -59.829       -6.964       36.098       28.755       18.347     1303.033      826.863      336.606        0.570        0.123       94.304       18.953        0.040      340.898       15.237      857.724
06/25/2013  00:30:00      -79.030      -52.843        2.106       28.924       25.054       19.578      836.587      627.695      383.292        0.544        0.092       95.069       14.450        0.023      340.860       15.172      857.731
06/25/2013  00:31:00      -47.072      -70.453       17.128       50.709       41.829       33.688     2571.357     1749.662     1134.906        0.646        0.273       84.732       29.278        0.119      340.877       15.200      857.762
06/25/2013  00:32:00      -66.593     -106.458        5.284       45.423       64.932       28.203     2063.265     4216.155      795.427        1.143        0.354      125.571       29.954        0.057      340.853       15.159      857.783
06/25/2013  00:33:00     -104.414     -102.997       -2.790       51.911       62.103       25.715     2694.760     3856.842      661.244        1.436        0.361      146.665       24.243        0.027      340.838       15.134      857.766
06/25/2013  00:34:00      -42.385      -58.879       10.425       41.662       43.839       28.233     1735.695     1921.859      797.080        0.491        0.223       72.548       24.068        0.110      340.867       15.183      857.739
06/25/2013  00:35:00      -88.374      -72.628        4.084       59.791       43.799       30.474     3574.967     1918.325      928.676        0.976        0.321      114.389       25.075        0.048      340.844       15.145      857.729
06/25/2013  00:36:00      -96.717     -106.646       -1.524       67.321       59.482       40.359     4532.114     3538.106     1628.866        1.521        0.485      143.971       45.657        0.101      340.877       15.201      857.755
06/25/2013  00:37:00      -72.377      -78.444        1.180       57.915       45.789       26.970     3354.092     2096.608      727.377        0.878        0.309      106.732       25.275        0.056      340.926       15.284      857.768
06/25/2013  00:38:00      -57.461     -130.995       -6.982       28.246       42.740       20.266      797.831     1826.679      410.699        1.177        0.152      143.043       18.383        0.017      340.864       15.178      857.753
06/25/2013  00:39:00      -18.096      -63.097        6.822       21.484       31.691       19.985      461.580     1004.313      399.384        0.311        0.093       65.640       19.305        0.086      340.894       15.230      857.718
06/25/2013  00:40:00        0.392        8.336       22.905       15.420       16.434        7.644      237.764      270.087       58.426        0.058        0.028        8.345        7.384        0.783      340.889       15.220      857.696
06/25/2013  00:41:00      -54.319      -27.724       -1.715       23.342       31.634       17.345      544.847     1000.733      300.852        0.278        0.092       60.985        7.299        0.014      340.898       15.237      857.698
06/25/2013  00:42:00      -68.827      -36.478        5.348       36.628       34.588       26.225     1341.613     1196.341      687.756        0.466        0.161       77.896       19.310        0.061      340.871       15.189      857.721
06/25/2013  00:43:00     -124.163     -107.692      -12.923       44.333       43.606       31.483     1965.382     1901.491      991.183        1.602        0.243      164.359       21.417        0.017      340.818       15.101      857.721
06/25/2013  00:44:00      -66.977      -75.143       -1.466       59.232       41.629       27.289     3508.483     1733.004      744.698        0.806        0.299      100.660       25.518        0.064      340.872       15.192      857.685
06/25/2013  00:45:00      -41.825      -62.889       17.663       39.952       35.805       25.941     1596.197     1281.995      672.921        0.478        0.178       75.527       23.011        0.093      340.855       15.162      857.653
06/25/2013  00:46:00      -43.018      -74.201       -2.998       53.258       30.091       25.284     2836.391      905.465      639.278        0.587        0.219       85.769       24.007        0.078      340.922       15.276      857.625
06/25/2013  00:47:00      -73.788      -52.788       -8.462       40.002       27.293       17.088     1600.144      744.912      292.015        0.547        0.132       90.726       14.133        0.024      340.880       15.204      857.605
06/25/2013  00:48:00      -33.719      -32.037       12.434       33.030       33.148       21.220     1090.961     1098.762      450.279        0.248        0.132       46.512       17.675        0.144      340.910       15.255      857.602
06/25/2013  00:49:00      -75.626      -64.110        2.635       42.233       35.181       21.862     1783.590     1237.670      477.968        0.667        0.175       99.143       18.060        0.033      340.865       15.178      857.612
06/25/2013  00:50:00      -59.382      -45.082        6.966       41.496       32.695       21.493     1721.939     1068.940      461.932        0.443        0.163       74.556       17.193        0.053      340.838       15.133      857.622
06/25/2013  00:51:00      -34.218      -52.538        0.256       28.676       42.045       23.546      822.321     1767.743      554.418        0.354        0.157       62.699       18.173        0.084      340.869       15.186      857.632
06/25/2013  00:52:00      -71.623      -35.341        0.514       28.770       19.904       14.640      827.691      396.166      214.341        0.391        0.072       79.867       10.282        0.017      340.877       15.199      857.621
06/25/2013  00:53:00      -44.420      -21.611       -1.775       14.190       20.730        7.635      201.360      429.751       58.297        0.157        0.034       49.398        5.975        0.015      340.878       15.203      857.625
06/25/2013  00:54:00      -40.153      -17.653       -1.764       28.617       32.694       15.366      818.960     1068.890      236.118        0.203        0.106       43.862       15.731        0.129      340.904       15.246      857.643
06/25/2013  00:55:00      -43.651      -28.651        2.056       35.501       20.535       17.636     1260.333      421.687      311.014        0.236        0.100       52.214       18.720        0.129      340.878       15.201      857.679
06/25/2013  00:56:00      -32.888      -72.650        1.388       45.853       47.730       21.280     2102.493     2278.117      452.819        0.560        0.242       79.747       25.722        0.104      340.905       15.248      857.697
06/25/2013  00:57:00      -56.942      -47.052       -0.617       56.495       40.075       25.852     3191.740     1606.032      668.349        0.546        0.273       73.866       31.975        0.187      340.851       15.156      857.686
06/25/2013  00:58:00      -32.263      -80.323       -9.136       33.099       46.089       23.284     1095.561     2124.160      542.132        0.567        0.188       86.560       23.025        0.071      340.885       15.213      857.675
06/25/2013  00:59:00      -44.918      -78.970       -2.764       32.701       31.627       20.171     1069.359     1000.237      406.854        0.537        0.124       90.851       16.292        0.032      340.883       15.210      857.670
06/25/2013  01:00:00      -38.191      -53.285        4.574       30.058       32.500       19.587      903.512     1056.227      383.648        0.333        0.117       65.558       13.779        0.044      340.878       15.201      857.658
06/25/2013  01:01:00      -58.946      -43.025       -2.148       28.137       31.241       17.860      791.665      975.984      318.971        0.371        0.104       72.978       14.863        0.041      340.835       15.131      857.624
06/25/2013  01:02:00      -80.801      -44.738       -1.200       33.145       28.443       18.959     1098.624      809.004      359.448        0.540        0.113       92.360       12.980        0.020      340.842       15.141      857.600
06/25/2013  01:03:00      -44.094     -117.496       -1.215       20.070       30.805       16.004      402.792      948.966      256.124        0.868        0.080      125.497       12.163        0.009      340.879       15.205      857.617
06/25/2013  01:04:00      -55.328      -58.599       -2.298       35.025       38.410       20.637     1226.759     1475.330      425.892        0.481        0.156       80.592       20.134        0.062      340.911       15.256      857.620
06/25/2013  01:05:00      -25.870      -47.281       12.066       30.608       24.971       20.334      936.825      623.566      413.487        0.251        0.099       53.896       19.941        0.137      340.872       15.189      857.595
06/25/2013  01:06:00      -20.301      -51.749        0.100       13.987       15.337       13.020      195.634      235.229      169.530        0.185        0.030       55.589        7.755        0.019      340.856       15.162      857.561
06/25/2013  01:07:00      -26.803      -71.477       -1.229       20.362       46.791       12.857      414.598     2189.381      165.314        0.430        0.138       76.337       11.363        0.022      340.867       15.184      857.583
06/25/2013  01:08:00      -28.377      -64.147       -2.543       17.827       28.967       15.265      317.815      839.094      233.020        0.316        0.069       70.144       12.263        0.031      340.877       15.198      857.602
06/25/2013  01:09:00       -2.905        6.372       13.268        7.054        8.984        6.581       49.766       80.709       43.304        0.020        0.009        7.003        4.952        0.500      340.910       15.253      857.562
06/25/2013  01:10:00        3.914       15.836        2.756        9.578        7.492        8.057       91.739       56.123       64.914        0.024        0.011       16.313        2.798        0.029      340.864       15.174      857.511
06/25/2013  01:11:00       14.649       -6.820        4.824       22.586       21.517       16.909      510.136      462.994      285.901        0.077        0.063       16.159       12.256        0.575      340.857       15.165      857.520
06/25/2013  01:12:00        6.180      -31.064        9.080       10.415       13.393       17.382      108.471      179.377      302.135        0.084        0.029       31.673        9.774        0.095      340.919       15.273      857.573
06/25/2013  01:13:00       -9.520      -43.637       -5.523       33.261       21.624       11.151     1106.309      467.618      124.341        0.186        0.085       44.664       12.100        0.073      340.946       15.316      857.610
06/25/2013  01:14:00      -36.220      -18.558        5.585       24.893       16.475       16.528      619.682      271.428      273.182        0.143        0.058       40.698       11.127        0.075      340.924       15.280      857.586
06/25/2013  01:15:00        2.233       15.776       -2.700       18.084       20.336        9.424      327.014      413.554       88.807        0.055        0.041       15.933        9.542        0.359      340.844       15.143      857.514
06/25/2013  01:16:00       72.915       53.781       -1.608       20.412       14.114       13.253      416.640      199.197      175.654        0.450        0.040       90.603        8.818        0.009      340.802       15.075      857.455
06/25/2013  01:17:00       38.402       33.273       -3.949       28.107       13.712       18.253      790.014      188.008      333.170        0.195        0.066       50.811        9.528        0.035      340.814       15.095      857.440
06/25/2013  01:18:00       29.862       18.362        3.521       20.805       12.608       12.485      432.854      158.965      155.883        0.099        0.037       35.056       11.447        0.107      340.824       15.113      857.448
06/25/2013  01:19:00        1.782       10.613        9.700       12.009       10.009        9.206      144.206      100.176       84.755        0.027        0.016       10.762        6.443        0.358      340.840       15.138      857.456
06/25/2013  01:20:00       10.001       21.125        0.248       10.542       12.326        8.970      111.133      151.940       80.470        0.044        0.017       23.373        6.751        0.083      340.799       15.068      857.448
06/25/2013  01:21:00       10.370       44.048       -7.638       10.322       12.781        6.864      106.551      163.348       47.110        0.121        0.016       45.252        5.010        0.012      340.782       15.038      857.421
06/25/2013  01:22:00       -4.809       96.748      -11.545       12.667       11.934        5.912      160.457      142.410       34.954        0.493        0.017       96.867        5.168        0.003      340.831       15.123      857.407
06/25/2013  01:23:00      -23.834       10.510        2.352       22.884       41.516       11.015      523.662     1723.575      121.341        0.153        0.118       26.049        8.753        0.113      340.877       15.200      857.428
06/25/2013  01:24:00      -50.338      -40.581       -3.343       37.006       20.179       17.881     1369.450      407.190      319.744        0.314        0.105       64.659       14.872        0.053      340.885       15.213      857.484
06/25/2013  01:25:00      -66.664      -47.436        0.532       26.299       21.522       12.002      691.634      463.207      144.038        0.400        0.065       81.819        9.269        0.013      340.872       15.194      857.522
06/25/2013  01:26:00      -71.114      -24.449       -4.178       11.785        6.908        4.900      138.895       47.724       24.013        0.294        0.011       75.200        4.633        0.004      340.895       15.229      857.530
06/25/2013  01:27:00      -58.869      -20.199       -9.188       16.012       10.213       13.254      256.383      104.298      175.681        0.225        0.027       62.238        5.982        0.009      340.904       15.249      857.511
06/25/2013  01:28:00      -25.708       -5.780       -0.480       11.731       15.009        8.371      137.613      225.274       70.072        0.056        0.022       26.349        3.304        0.016      340.903       15.246      857.504
06/25/2013  01:29:00       -3.458       11.238        5.176       10.743       12.532        8.423      115.412      157.055       70.951        0.025        0.017       11.758        5.320        0.205      340.866       15.183      857.501
06/25/2013  01:30:00      -18.249       18.976        5.305       11.456       13.456        9.727      131.233      181.067       94.606        0.056        0.020       26.327        7.268        0.076      340.889       15.221      857.491
06/25/2013  01:31:00      -34.942       26.193       -0.961       10.713       20.100        7.955      114.778      404.007       63.286        0.124        0.029       43.670        7.425        0.029      340.909       15.256      857.483
06/25/2013  01:32:00     -102.631       17.099       -8.151       45.382       16.013       13.683     2059.513      256.412      187.223        0.670        0.125      104.046       18.916        0.033      340.882       15.208      857.500
06/25/2013  01:33:00     -122.814        5.382      -11.849       20.161       16.126       11.765      406.477      260.036      138.404        0.803        0.040      122.932        9.128        0.006      340.873       15.190      857.549
06/25/2013  01:34:00      -37.415      -34.262        0.962       45.298       22.228       20.263     2051.931      494.106      410.605        0.277        0.148       50.732       23.748        0.219      340.917       15.270      857.580
06/25/2013  01:35:00      -51.803      -29.374       -2.629       27.422       16.674       15.429      751.968      278.024      238.054        0.241        0.063       59.552       14.924        0.063      340.884       15.212      857.584
06/25/2013  01:36:00      -36.537      -29.582        2.050       22.194       16.170       11.840      492.593      261.484      140.186        0.155        0.045       47.011       12.321        0.069      340.885       15.214      857.601
06/25/2013  01:37:00      -30.480      -24.412        6.497       30.381       20.144       17.620      923.033      405.795      310.472        0.160        0.082       39.052       16.412        0.177      340.936       15.301      857.610
06/25/2013  01:38:00      -12.719      -21.036        8.768       30.499       23.040       18.940      930.183      530.852      358.706        0.125        0.091       24.582       21.035        0.732      340.982       15.378      857.609
06/25/2013  01:39:00      -26.587      -31.009        0.723       24.410       22.444       13.570      595.851      503.742      184.137        0.148        0.064       40.846       14.452        0.125      340.981       15.376      857.594
06/25/2013  01:40:00       -7.716      -10.324        9.007       18.452       15.647       12.106      340.465      244.819      146.543        0.049        0.037       12.889       10.711        0.691      341.016       15.434      857.598
06/25/2013  01:41:00      -42.404       14.434       -5.901       12.939       28.888       10.297      167.412      834.514      106.031        0.157        0.055       44.793       11.235        0.063      340.955       15.333      857.595
06/25/2013  01:42:00      -66.561       20.623       -7.370       16.710       14.282        9.951      279.231      203.961       99.024        0.275        0.029       69.683        4.095        0.003      340.858       15.164      857.587
06/25/2013  01:43:00      -67.431       -4.224       -7.663       18.968       19.397       13.231      359.776      376.240      175.073        0.277        0.046       67.563       10.362        0.024      340.872       15.191      857.609
06/25/2013  01:44:00      -66.149       -8.829       -3.943       19.189       30.499       11.914      368.202      930.165      141.940        0.295        0.072       66.736       10.148        0.023      340.881       15.206      857.647
06/25/2013  01:45:00      -94.593      -33.462       -5.962       17.562       20.931       13.987      308.434      438.121      195.633        0.552        0.047      100.337       13.041        0.017      340.854       15.159      857.688
06/25/2013  01:46:00      -36.038      -48.292        0.174       31.667       25.676       19.732     1002.821      659.238      389.339        0.284        0.103       60.257       21.039        0.122      340.906       15.250      857.715
06/25/2013  01:47:00      -28.735       -9.798        8.448       38.275       19.377       20.805     1464.942      375.462      432.843        0.163        0.114       30.360       11.359        0.140      340.940       15.307      857.709
06/25/2013  01:48:00      -58.614      -19.730       -7.874       17.341       24.492       12.348      300.718      599.848      152.469        0.247        0.053       61.846        5.790        0.009      340.823       15.112      857.665
06/25/2013  01:49:00      -41.199       34.255       -4.485       23.738       24.713       19.917      563.513      610.711      396.696        0.223        0.079       53.579       14.965        0.078      340.848       15.152      857.608
06/25/2013  01:50:00      -54.591       27.850       -8.274       22.164       31.556       15.565      491.228      995.784      242.283        0.278        0.086       61.285       14.210        0.054      340.865       15.178      857.588
06/25/2013  01:51:00      -66.643      -21.049      -11.908       15.862       25.872       14.966      251.604      669.372      223.978        0.309        0.057       69.888        9.269        0.018      340.944       15.315      857.635
06/25/2013  01:52:00       -9.992      -14.502       -4.720       26.807       20.786       14.134      718.612      432.075      199.774        0.084        0.068       17.611        7.059        0.161      340.968       15.356      857.698
06/25/2013  01:53:00        2.419      -25.279       17.547       34.150       22.678       18.638     1166.234      514.309      347.391        0.149        0.101       25.395       23.953        0.890      340.946       15.318      857.736
06/25/2013  01:54:00      -15.263      -35.230        5.971       48.152       26.590       21.698     2318.594      707.015      470.815        0.250        0.175       38.394       25.586        0.444      340.919       15.273      857.722
06/25/2013  01:55:00       10.491       15.027       -5.809        9.108       28.017        8.429       82.949      784.932       71.045        0.065        0.047       18.327        6.712        0.134      340.892       15.227      857.688
06/25/2013  01:56:00      -20.078      -12.330        5.577       20.497       22.090       17.446      420.116      487.976      304.348        0.090        0.061       23.562       11.211        0.226      340.948       15.322      857.712
06/25/2013  01:57:00       -6.760      -36.877       10.897       27.923       24.341       16.871      779.712      592.493      284.641        0.159        0.083       37.491       13.223        0.124      341.031       15.461      857.760
06/25/2013  01:58:00      -25.298      -14.581       12.499       25.493       15.255       13.795      649.906      232.701      190.299        0.104        0.054       29.199       12.861        0.194      341.009       15.424      857.776
06/25/2013  01:59:00      -17.004      -22.343        1.154       11.113       10.854        8.068      123.491      117.808       65.090        0.055        0.015       28.077        6.634        0.056      340.930       15.294      857.763
06/25/2013  02:00:00      -33.170       -5.214        4.705        9.601       11.971       10.499       92.171      143.303      110.239        0.075        0.017       33.578        7.917        0.056      340.949       15.323      857.758
06/25/2013  02:01:00       -9.218       38.359       30.028       18.064       17.060       16.198      326.323      291.029      262.389        0.167        0.044       39.452        9.011        0.052      340.990       15.392      857.739
06/25/2013  02:02:00       19.681       51.581       35.454       23.091       20.995       15.585      533.208      440.784      242.883        0.276        0.061       55.208       13.560        0.060      340.996       15.401      857.703
06/25/2013  02:03:00       35.149       24.020        6.053       16.521       21.596       13.487      272.939      466.408      181.893        0.138        0.046       42.572        6.175        0.021      340.946       15.317      857.682
06/25/2013  02:04:00       21.454       17.291        7.432       19.625       13.327       10.812      385.132      177.610      116.895        0.075        0.034       27.555        7.277        0.070      340.960       15.339      857.680
06/25/2013  02:05:00       16.850        8.848        3.268        8.345        7.523        8.987       69.631       56.591       80.774        0.029        0.010       19.032        5.361        0.079      340.981       15.376      857.700
06/25/2013  02:06:00       29.677       27.472        6.393       11.088        6.697        9.482      122.935       44.853       89.912        0.097        0.013       40.440        5.270        0.017      340.965       15.349      857.697
06/25/2013  02:07:00       15.388       27.056       -3.600       11.407       13.400        7.090      130.122      179.557       50.270        0.067        0.018       31.125        5.060        0.026      340.941       15.310      857.689
06/25/2013  02:08:00        4.942       40.022       -6.299       16.601        8.848        5.157      275.586       78.279       26.598        0.102        0.019       40.326        6.277        0.024      340.970       15.362      857.704
06/25/2013  02:09:00      -33.442        5.630       -5.152       15.641       21.444        7.200      244.648      459.855       51.840        0.097        0.038       33.913        5.805        0.029      341.042       15.480      857.742
06/25/2013  02:10:00      -75.296      -13.653       -5.515       28.502       13.995        9.524      812.355      195.867       90.716        0.349        0.055       76.524       13.058        0.029      341.004       15.416      857.786
06/25/2013  02:11:00      -67.565      -17.760       -2.611       23.980       21.784       11.308      575.037      474.555      127.873        0.303        0.059       69.861       10.081        0.021      340.983       15.380      857.797
06/25/2013  02:12:00      -78.720      -18.585       -9.045       16.589       20.831       12.133      275.199      433.912      147.201        0.374        0.043       80.884        7.587        0.009      340.972       15.361      857.814
06/25/2013  02:13:00      -24.048       13.173        1.946       11.589       19.384        8.150      134.314      375.741       66.423        0.067        0.029       27.420        4.615        0.028      340.954       15.331      857.788
06/25/2013  02:14:00      -34.974        8.223       -5.642       16.146       13.330        5.512      260.704      177.687       30.384        0.090        0.023       35.928        2.402        0.004      340.989       15.387      857.758
06/25/2013  02:15:00      -28.601       -1.871        1.659        8.498       10.368        7.403       72.218      107.489       54.810        0.053        0.012       28.662        6.548        0.052      341.013       15.428      857.754
06/25/2013  02:16:00      -22.427      -14.511       -3.126       16.187        9.647       10.266      262.008       93.067      105.398        0.059        0.023       26.712        8.775        0.108      341.077       15.541      857.776
06/25/2013  02:17:00      -19.404       -6.458       -9.002        7.773        8.053        7.553       60.413       64.843       57.045        0.034        0.009       20.451        5.287        0.067      341.092       15.567      857.775
06/25/2013  02:18:00      -35.748       11.891        8.664       16.273        8.140       10.315      264.822       66.255      106.409        0.097        0.022       37.674        4.892        0.017      341.126       15.623      857.766
06/25/2013  02:19:00      -80.890       -2.819       -5.485       15.384       16.965       16.044      236.671      287.824      257.418        0.368        0.039       80.939       14.984        0.034      341.083       15.551      857.777
06/25/2013  02:20:00      -91.043      -33.320       -9.636       16.297       17.022       10.615      265.601      289.735      112.669        0.508        0.033       96.948        6.325        0.004      341.082       15.550      857.817
06/25/2013  02:21:00      -99.979      -51.945       -5.024       19.931       13.330       11.959      397.245      177.693      143.008        0.672        0.036      112.668        8.536        0.006      341.022       15.448      857.859
06/25/2013  02:22:00      -76.038      -46.231        1.561       26.612       18.689       15.853      708.206      349.283      251.310        0.461        0.065       88.989       13.246        0.022      341.091       15.562      857.860
06/25/2013  02:23:00      -33.357       11.030        6.357       31.592       16.337       10.149      998.069      266.883      103.009        0.132        0.068       35.133       12.012        0.117      341.091       15.566      857.828
06/25/2013  02:24:00      -45.504       21.200       -1.316       24.334       12.450       10.356      592.149      154.999      107.243        0.169        0.043       50.200        9.439        0.035      341.035       15.469      857.795
06/25/2013  02:25:00      -54.079        9.807       -2.172       14.302       13.296        9.999      204.554      176.776       99.975        0.175        0.024       54.961        6.586        0.014      341.061       15.514      857.797
06/25/2013  02:26:00      -67.073      -17.300       -3.149       10.657       15.074        7.891      113.571      227.232       62.273        0.261        0.020       69.268        5.907        0.007      341.113       15.600      857.831
06/25/2013  02:27:00      -90.834      -23.025       -3.529       17.297       13.243        7.074      299.187      175.390       50.040        0.466        0.026       93.707        7.289        0.006      341.094       15.568      857.854
06/25/2013  02:28:00      -82.651        0.263       -8.130       24.975       13.695       11.075      623.757      187.561      122.663        0.392        0.047       82.652       12.647        0.023      341.081       15.548      857.850
06/25/2013  02:29:00      -85.415        0.340       -8.956       27.452       19.865       10.626      753.612      394.621      112.905        0.432        0.063       85.415        5.052        0.003      341.051       15.499      857.838
06/25/2013  02:30:00      -98.959       20.547      -10.696       20.154       21.060       14.181      406.187      443.535      201.108        0.569        0.053      101.070        9.639        0.009      341.023       15.446      857.825
06/25/2013  02:31:00      -95.703       27.211       -3.600       20.371       18.172       11.483      414.976      330.210      131.863        0.539        0.044       99.496        8.506        0.007      341.006       15.414      857.806
06/25/2013  02:32:00      -67.401      -17.319       -4.338       23.419       25.952       10.825      548.466      673.528      117.181        0.310        0.067       69.591        9.906        0.020      341.027       15.453      857.806
06/25/2013  02:33:00      -66.196      -18.584       -8.382       22.886       15.102       12.769      523.780      228.059      163.052        0.286        0.046       68.756       13.413        0.038      341.052       15.500      857.816
06/25/2013  02:34:00      -67.196      -28.009      -13.147       16.238       10.747        9.097      263.668      115.495       82.760        0.297        0.023       72.799        6.162        0.007      341.048       15.493      857.821
06/25/2013  02:35:00      -68.255      -28.233      -18.600       11.664       10.600       11.968      136.041      112.358      143.245        0.310        0.020       73.864        6.270        0.007      341.076       15.540      857.836
06/25/2013  02:36:00      -55.072      -32.661       -9.418       15.789       12.019        7.895      249.308      144.466       62.329        0.232        0.023       64.029        2.653        0.002      341.094       15.566      857.852
06/25/2013  02:37:00      -24.027      -26.249        0.193       12.742       10.851        9.512      162.359      117.752       90.474        0.082        0.019       35.585        8.506        0.057      341.132       15.634      857.893
06/25/2013  02:38:00        1.196      -16.500        1.949       17.534       10.983       12.117      307.437      120.629      146.826        0.043        0.029       16.543       11.097        0.450      341.220       15.781      857.921
06/25/2013  02:39:00      -21.400      -39.548        3.400       23.117       25.474       16.066      534.418      648.944      258.118        0.174        0.072       44.966       13.777        0.094      341.234       15.806      857.926
06/25/2013  02:40:00      -28.035      -23.162       -0.349       15.999       23.877       11.518      255.965      570.127      132.660        0.114        0.048       36.366       11.268        0.096      341.228       15.796      857.907
06/25/2013  02:41:00      -67.692      -43.647       -4.838       24.767       21.330       13.828      613.417      454.987      191.220        0.388        0.063       80.543       13.225        0.027      341.260       15.849      857.887
06/25/2013  02:42:00      -59.897      -37.944        3.089       34.000       23.744       18.089     1156.001      563.775      327.218        0.354        0.102       70.904       13.596        0.037      341.207       15.761      857.887
06/25/2013  02:43:00      -71.905      -59.462        2.530       35.407       30.956       18.845     1253.642      958.282      355.123        0.564        0.128       93.306       15.474        0.028      341.181       15.715      857.910
06/25/2013  02:44:00      -67.288      -60.538        0.110       30.333       22.250       18.622      920.069      495.041      346.770        0.498        0.088       90.513       18.131        0.040      341.212       15.770      857.930
06/25/2013  02:45:00       -3.487      -19.605        7.560       20.043       17.282       12.716      401.706      298.662      161.708        0.066        0.043       19.913        8.646        0.189      341.320       15.951      857.934
06/25/2013  02:46:00       -2.291      -10.293        6.560        8.193       18.820       10.478       67.120      354.205      109.799        0.034        0.027       10.545        6.257        0.352      341.301       15.919      857.930
06/25/2013  02:47:00      -13.088      -53.747       -0.789       12.680       32.071        9.263      160.790     1028.523       85.812        0.217        0.064       55.318        7.865        0.020      341.299       15.915      857.927
06/25/2013  02:48:00      -34.232      -65.543       -4.045       13.911       20.336       10.757      193.510      413.564      115.718        0.310        0.036       73.944       10.445        0.020      341.340       15.984      857.925
06/25/2013  02:49:00      -47.104      -34.842        4.067       29.665       25.720       11.629      879.994      661.520      135.237        0.256        0.084       58.590       10.648        0.033      341.335       15.976      857.930
06/25/2013  02:50:00      -66.471      -53.637        5.658       52.100       28.538       22.613     2714.446      814.400      511.366        0.568        0.202       85.412       24.266        0.081      341.351       16.003      857.943
06/25/2013  02:51:00      -49.858      -67.434        8.664       34.919       26.443       20.999     1219.320      699.239      440.938        0.473        0.118       83.864       21.288        0.064      341.310       15.934      857.935
06/25/2013  02:52:00      -66.585      -23.603       -3.147       17.487       23.154       14.700      305.802      536.111      216.093        0.303        0.053       70.645        9.461        0.018      341.293       15.908      857.899
06/25/2013  02:53:00      -71.545       -0.308       -7.700        9.708        9.587        7.281       94.250       91.907       53.012        0.271        0.012       71.546        4.995        0.005      341.372       16.038      857.870
06/25/2013  02:54:00      -57.165      -34.132        0.583       20.409       18.094       11.654      416.535      327.381      135.813        0.266        0.044       66.580        9.519        0.020      341.385       16.062      857.863
06/25/2013  02:55:00      -43.840      -23.968       -2.417       24.290       26.285       15.492      590.024      690.884      240.013        0.201        0.076       49.964       16.516        0.109      341.490       16.238      857.887
06/25/2013  02:56:00       -5.163        4.521        8.726       23.283       12.313        7.088      542.086      151.608       50.244        0.043        0.037        6.863        5.595        0.665      341.446       16.165      857.899
06/25/2013  02:57:00       -4.641      -31.594       -1.851       14.450       15.526        8.678      208.805      241.071       75.304        0.077        0.026       31.933        5.278        0.027      341.407       16.096      857.884
06/25/2013  02:58:00       -7.337        8.738       -5.983       16.045       13.811       18.506      257.427      190.746      342.465        0.048        0.040       11.410       10.598        0.863      341.391       16.072      857.853
06/25/2013  02:59:00      -22.781        5.831        1.957       24.759       11.968       12.571      612.986      143.244      158.038        0.074        0.046       23.516        9.346        0.158      341.380       16.052      857.850
06/25/2013  03:00:00     -101.469        6.492       -5.658       15.402       14.079       10.276      237.220      198.232      105.603        0.546        0.027      101.677        8.048        0.006      341.367       16.030      857.863
06/25/2013  03:01:00     -131.767      -57.059       -0.832       34.695       25.790       15.937     1203.721      665.119      253.989        1.137        0.106      143.591       10.394        0.005      341.301       15.918      857.875
06/25/2013  03:02:00     -137.831      -53.045        0.335       36.686       32.458       22.784     1345.888     1053.548      519.116        1.236        0.146      147.686       21.487        0.021      341.328       15.965      857.876
06/25/2013  03:03:00     -122.201      -78.365       -7.689       24.067       24.740       17.034      579.243      612.051      290.142        1.131        0.074      145.169       14.119        0.009      341.339       15.986      857.857
06/25/2013  03:04:00      -67.985      -34.718       -6.533       32.268       18.334       11.081     1041.242      336.129      122.780        0.368        0.075       76.336        9.600        0.016      341.343       15.991      857.832
06/25/2013  03:05:00      -91.343      -23.973       -4.091       28.359       20.459       16.409      804.224      418.563      269.260        0.521        0.075       94.436       11.368        0.014      341.317       15.946      857.807
06/25/2013  03:06:00      -72.386      -35.369        0.269       35.858       25.515       21.605     1285.814      651.040      466.785        0.445        0.120       80.565       15.362        0.036      341.352       16.005      857.773
06/25/2013  03:07:00      -81.177      -18.315       -6.226       25.907       22.414       14.821      671.197      502.401      219.659        0.418        0.070       83.218       13.741        0.027      341.321       15.953      857.749
06/25/2013  03:08:00      -82.088      -36.242        0.989       30.191       24.130       16.672      911.494      582.273      277.964        0.491        0.089       89.733       15.382        0.029      341.358       16.015      857.754
06/25/2013  03:09:00      -59.069      -37.809        6.506       40.938       31.152       21.971     1675.914      970.458      482.711        0.404        0.156       70.133       22.827        0.106      341.354       16.008      857.777
06/25/2013  03:10:00      -87.386      -73.373       -0.955       41.106       32.438       16.520     1689.700     1052.227      272.921        0.802        0.151      114.105       10.449        0.008      341.407       16.098      857.800
06/25/2013  03:11:00      -38.926      -44.833        2.119       23.155       32.160       16.344      536.143     1034.274      267.134        0.268        0.092       59.374       17.220        0.084      341.410       16.103      857.792
06/25/2013  03:12:00      -39.732      -42.114       -3.957       23.565       15.692       18.200      555.330      246.229      331.224        0.225        0.057       57.898       11.603        0.040      341.442       16.157      857.772
06/25/2013  03:13:00       -5.633      -48.086       -9.436       17.863       14.512       13.624      319.075      210.590      185.615        0.157        0.036       48.415        7.736        0.026      341.405       16.094      857.729
06/25/2013  03:14:00       -9.610       -8.124        2.989       10.919       16.198       14.762      119.229      262.375      217.925        0.038        0.030       12.584        9.017        0.513      341.350       16.002      857.702
06/25/2013  03:15:00        5.872      -43.544      -12.690       11.757       15.309        9.662      138.223      234.360       93.360        0.128        0.023       43.938        7.248        0.027      341.330       15.966      857.708
06/25/2013  03:16:00      -56.416      -16.141        5.664       34.101       24.881       18.126     1162.891      619.065      328.557        0.279        0.106       58.680       16.109        0.075      341.433       16.143      857.738
06/25/2013  03:17:00      -83.471      -59.762        1.479       38.676       37.280       26.890     1495.804     1389.772      723.094        0.707        0.180      102.659       25.519        0.062      341.381       16.055      857.770
06/25/2013  03:18:00      -93.592      -52.526       -0.597       52.194       28.330       21.423     2724.162      802.563      458.949        0.775        0.199      107.324       19.823        0.034      341.304       15.923      857.800
06/25/2013  03:19:00      -90.891      -44.571       -7.280       44.075       30.012       21.388     1942.574      900.703      457.462        0.680        0.165      101.231       20.001        0.039      341.310       15.933      857.798
06/25/2013  03:20:00     -130.257      -25.761       -9.621       47.122       31.652       17.663     2220.478     1001.870      311.974        1.063        0.177      132.780       19.263        0.021      341.338       15.982      857.760
06/25/2013  03:21:00     -107.390      -42.544       -3.520       51.086       28.255       23.714     2609.769      798.357      562.343        0.866        0.199      115.510       28.547        0.061      341.324       15.956      857.725
06/25/2013  03:22:00      -81.997      -16.627       -2.471       30.659       27.577       18.253      939.948      760.471      333.186        0.452        0.102       83.666       16.803        0.040      341.286       15.893      857.718
06/25/2013  03:23:00     -134.286      -61.197       -0.964       39.958       31.574       22.618     1596.614      996.935      511.588        1.244        0.155      147.573       23.637        0.026      341.274       15.873      857.755
06/25/2013  03:24:00     -127.601      -49.867       -3.932       28.741       32.837       17.461      826.037     1078.237      304.894        1.050        0.110      136.999        9.156        0.004      341.310       15.933      857.797
06/25/2013  03:25:00      -83.427      -29.173       -7.991       44.693       22.377       19.166     1997.494      500.725      367.348        0.537        0.143       88.380       11.221        0.016      341.296       15.910      857.823
06/25/2013  03:26:00      -85.964      -20.586        1.594       43.022       19.972       15.583     1850.925      398.885      242.845        0.515        0.125       88.395       21.580        0.060      341.258       15.846      857.838
06/25/2013  03:27:00      -32.752      -35.217        1.997       22.486       24.131       11.147      505.638      582.304      124.258        0.176        0.061       48.093        8.952        0.035      341.269       15.865      857.846
06/25/2013  03:28:00      -54.441      -46.259        1.669       24.009       21.896       16.741      576.441      479.453      280.256        0.322        0.067       71.440       12.057        0.028      341.287       15.894      857.855
06/25/2013  03:29:00      -56.867      -15.010       -5.843       17.281       14.152       10.037      298.636      200.267      100.732        0.205        0.030       58.815        6.003        0.010      341.312       15.938      857.866
06/25/2013  03:30:00      -15.751      -37.591       -1.654       27.006       16.494       15.189      729.302      272.039      230.711        0.145        0.062       40.758       11.494        0.080      341.396       16.078      857.875
06/25/2013  03:31:00      -42.235      -46.763        7.246       43.021       26.331       24.302     1850.793      693.306      590.588        0.358        0.157       63.013       28.045        0.198      341.395       16.077      857.884
06/25/2013  03:32:00      -76.451      -38.154        8.336       35.703       43.508       21.652     1274.688     1892.934      468.824        0.550        0.182       85.443       10.244        0.014      341.367       16.031      857.896
06/25/2013  03:33:00      -25.815      -82.078      -13.214       52.454       33.699       34.544     2751.410     1135.616     1193.308        0.633        0.254       86.042       26.830        0.097      341.366       16.028      857.882
06/25/2013  03:34:00      -10.763      -41.806      -13.498       49.582       44.099       37.480     2458.330     1944.707     1404.725        0.393        0.290       43.169       28.013        0.421      341.365       16.027      857.852
06/25/2013  03:35:00       14.075      -28.049        8.533       29.438       48.521       37.554      866.570     2354.273     1410.271        0.284        0.232       31.383       22.398        0.509      341.387       16.064      857.822
06/25/2013  03:36:00       17.731      -10.355       43.102       43.662       46.932       40.336     1906.403     2202.611     1627.009        0.401        0.287       20.533       27.624        1.810      341.306       15.928      857.806
06/25/2013  03:37:00      -16.476      -52.446       14.790       42.332       39.121       33.850     1792.004     1530.482     1145.849        0.385        0.223       54.973       16.520        0.090      341.365       16.028      857.793
06/25/2013  03:38:00      -33.321      -16.541        4.995       20.910       13.781       11.394      437.247      189.907      129.817        0.108        0.038       37.201        9.413        0.064      341.355       16.008      857.786
06/25/2013  03:39:00      -21.059      -27.187        6.488       33.815       28.149       21.596     1143.466      792.346      466.373        0.181        0.120       34.389       19.872        0.334      341.336       15.980      857.760
06/25/2013  03:40:00      -81.600      -58.689        0.442       47.863       47.547       23.470     2290.903     2260.758      550.851        0.760        0.255      100.514       30.471        0.092      341.271       15.869      857.735
06/25/2013  03:41:00     -166.809      -56.842      -15.896       33.840       28.902       17.634     1145.145      835.317      310.946        1.680        0.115      176.228       11.853        0.005      341.269       15.864      857.744
06/25/2013  03:42:00     -165.083      -26.591        2.054       68.804       41.708       26.273     4733.938     1739.584      690.254        1.756        0.358      167.211       31.237        0.035      341.236       15.808      857.771
06/25/2013  03:43:00     -135.979      -56.275       -2.948       44.475       37.786       23.770     1978.026     1427.817      565.027        1.282        0.199      147.163       21.894        0.022      341.243       15.821      857.792
06/25/2013  03:44:00     -133.633      -42.521        0.290       52.008       40.228       25.656     2704.857     1618.309      658.237        1.232        0.249      140.235       25.500        0.033      341.239       15.814      857.797
06/25/2013  03:45:00     -147.393      -57.552        1.825       44.778       38.472       26.362     2005.068     1480.095      694.978        1.461        0.209      158.231       26.723        0.029      341.258       15.848      857.812
06/25/2013  03:46:00      -90.265      -59.159        2.091       64.120       36.413       25.534     4111.369     1325.934      651.984        0.887        0.304      107.924       25.365        0.055      341.261       15.852      857.826
06/25/2013  03:47:00      -73.552      -35.064       -2.398       42.598       28.330       20.432     1814.609      802.614      417.459        0.484        0.152       81.482       24.030        0.087      341.284       15.890      857.849
06/25/2013  03:48:00      -60.758      -94.831       -0.646       39.903       38.298       20.375     1592.218     1466.728      415.144        0.808        0.174      112.625       18.139        0.026      341.355       16.009      857.864
06/25/2013  03:49:00      -21.308      -57.598       20.880       57.025       41.240       38.205     3251.855     1700.709     1459.650        0.531        0.321       61.413       39.315        0.410      341.358       16.015      857.877
06/25/2013  03:50:00     -130.570      -90.400       -0.364       65.979       35.799       27.427     4353.206     1281.577      752.250        1.580        0.319      158.811       31.280        0.039      341.300       15.917      857.884
06/25/2013  03:51:00      -47.380      -62.799        5.388       48.892       38.889       26.927     2390.379     1512.371      725.059        0.542        0.231       78.668       16.537        0.044      341.325       15.957      857.869
06/25/2013  03:52:00      -57.242      -19.674        1.219       24.312       26.340       18.037      591.087      693.785      325.329        0.264        0.081       60.528       10.741        0.031      341.311       15.934      857.850
06/25/2013  03:53:00      -76.557        1.510      -14.805       21.493       19.329       11.542      461.956      373.603      133.217        0.353        0.048       76.572        5.719        0.006      341.286       15.895      857.830
06/25/2013  03:54:00      -28.332       -0.021       -6.796       18.023       12.386        9.167      324.815      153.422       84.036        0.071        0.028       28.332        6.084        0.046      341.274       15.875      857.795
06/25/2013  03:55:00      -59.365        4.798        2.521       21.871       12.752       11.167      478.342      162.604      124.692        0.216        0.038       59.558       10.259        0.030      341.261       15.852      857.775
06/25/2013  03:56:00      -72.648      -39.360       -4.701       41.339       29.658       17.627     1708.925      879.600      310.713        0.487        0.145       82.626       22.183        0.072      341.287       15.897      857.770
06/25/2013  03:57:00        0.781      -41.494       -0.944       32.785       24.809       19.397     1074.845      615.464      376.249        0.189        0.103       41.502       12.132        0.085      341.350       16.001      857.780
06/25/2013  03:58:00      -32.950      -45.282       12.686       49.254       48.060       19.468     2425.913     2309.749      378.993        0.420        0.256       56.001       30.035        0.288      341.363       16.024      857.778
06/25/2013  03:59:00      -44.452      -56.755       11.005       46.149       44.168       24.985     2129.749     1950.774      624.275        0.501        0.235       72.091       30.909        0.184      341.414       16.110      857.756
06/25/2013  04:00:00        3.476      -54.127       18.483       33.070       24.575       23.146     1093.609      603.926      535.748        0.276        0.112       54.238       22.190        0.167      341.400       16.088      857.734
06/25/2013  04:01:00       -2.949      -13.158        5.412       21.636       30.496       20.882      468.130      929.999      436.046        0.102        0.092       13.485       19.302        2.049      341.330       15.967      857.715
06/25/2013  04:02:00        4.065       10.183       23.679       17.119       13.758       14.591      293.057      189.275      212.898        0.069        0.035       10.964        7.781        0.504      341.265       15.859      857.698
06/25/2013  04:03:00        0.317       19.314       30.393        7.729       18.697       10.681       59.737      349.583      114.093        0.091        0.026       19.316        9.317        0.233      341.272       15.870      857.698
06/25/2013  04:04:00       -8.263      -10.273       -2.104       15.387       11.746        8.923      236.749      137.961       79.611        0.032        0.023       13.183        3.379        0.066      341.248       15.829      857.701
06/25/2013  04:05:00      -49.192       12.231        0.341       12.783        7.997        6.032      163.413       63.952       36.389        0.142        0.013       50.690        2.396        0.002      341.265       15.856      857.705
06/25/2013  04:06:00      -25.379      -38.328        0.362       19.735       28.443       12.690      389.456      809.033      161.029        0.174        0.068       45.969       10.873        0.056      341.309       15.933      857.702
06/25/2013  04:07:00      -28.724      -49.345       -1.068       24.426       27.620       21.717      596.610      762.842      471.626        0.255        0.092       57.096       19.947        0.122      341.270       15.867      857.688
06/25/2013  04:08:00      -43.019      -25.655       -3.088       30.793       22.067       13.380      948.209      486.944      179.024        0.207        0.081       50.088       15.450        0.095      341.271       15.868      857.667
06/25/2013  04:09:00      -59.337      -68.999       -4.349       34.215       22.794       13.719     1170.687      519.557      188.203        0.509        0.094       91.004       15.851        0.030      341.256       15.843      857.655
06/25/2013  04:10:00      -77.447      -60.312        1.611       34.354       21.815       17.434     1180.190      475.884      303.930        0.580        0.098       98.161       17.430        0.032      341.215       15.773      857.647
06/25/2013  04:11:00      -38.150      -59.680       -3.871       32.707       12.285       10.023     1069.716      150.915      100.467        0.318        0.066       70.831       10.114        0.020      341.281       15.884      857.641
06/25/2013  04:12:00      -23.964      -78.988        0.541       19.477       15.833        8.574      379.363      250.698       73.518        0.376        0.035       82.543        8.719        0.011      341.299       15.916      857.634
06/25/2013  04:13:00      -28.488      -80.306        4.367       17.566       23.471       11.103      308.548      550.881      123.268        0.413        0.049       85.209        9.920        0.014      341.303       15.923      857.619
06/25/2013  04:14:00      -41.816      -31.097        3.444       16.431       16.816       12.586      269.983      282.793      158.406        0.172        0.036       52.111        9.684        0.035      341.287       15.895      857.595
06/25/2013  04:15:00      -75.363      -11.368       -7.304       22.076       16.536       12.358      487.328      273.454      152.721        0.339        0.046       76.215       11.566        0.023      341.309       15.932      857.575
06/25/2013  04:16:00      -94.411      -34.964      -15.360       14.147       12.651       10.032      200.148      160.038      100.637        0.542        0.023      100.678        5.656        0.003      341.314       15.938      857.554
06/25/2013  04:17:00      -77.289      -13.209       -7.952       27.294       17.377       11.213      744.941      301.977      125.733        0.369        0.059       78.410       12.063        0.024      341.278       15.880      857.550
06/25/2013  04:18:00     -100.621      -23.026       -5.232       14.498       19.081       12.569      210.200      364.084      157.971        0.571        0.037      103.223        9.944        0.009      341.218       15.781      857.557
06/25/2013  04:19:00      -85.564      -42.771       -1.001       31.804       17.172       12.763     1011.479      294.871      162.890        0.531        0.073       95.659       11.492        0.014      341.192       15.736      857.572
06/25/2013  04:20:00      -76.042      -40.220        3.537       28.250       17.120       16.436      798.087      293.101      270.149        0.439        0.068       86.023        9.684        0.013      341.188       15.728      857.590
06/25/2013  04:21:00      -82.683      -40.056        0.949       34.989       26.015       13.183     1224.258      676.760      173.782        0.526        0.104       91.875       16.245        0.031      341.165       15.688      857.589
06/25/2013  04:22:00      -89.474      -27.026       -0.636       31.793       24.139       16.539     1010.791      582.683      273.534        0.530        0.093       93.466       13.499        0.021      341.108       15.592      857.590
06/25/2013  04:23:00      -69.812      -18.316        1.007       31.961       19.956       18.017     1021.474      398.236      324.629        0.348        0.087       72.175       17.652        0.060      341.056       15.504      857.594
06/25/2013  04:24:00      -99.956      -55.505       -5.864       22.949       18.709       15.335      526.648      350.011      235.163        0.711        0.056      114.333       10.578        0.009      341.088       15.559      857.604
06/25/2013  04:25:00      -46.098      -42.059        3.674       33.847       27.115       15.886     1145.633      735.201      252.378        0.302        0.107       62.402        8.835        0.020      341.098       15.576      857.605
06/25/2013  04:26:00      -52.062      -53.159        0.320       34.696       20.644       24.683     1203.801      426.191      609.251        0.389        0.112       74.406       24.597        0.109      341.066       15.520      857.602
06/25/2013  04:27:00      -21.868      -75.358        5.971       35.814       18.778       18.277     1282.645      352.608      334.051        0.408        0.098       78.467       18.397        0.055      341.125       15.622      857.608
06/25/2013  04:28:00      -34.791      -63.688        0.495       41.125       37.386       23.681     1691.282     1397.682      560.794        0.446        0.182       72.571       20.388        0.079      341.082       15.546      857.617
06/25/2013  04:29:00      -78.314      -98.071       -7.432       36.506       48.307       21.895     1332.715     2333.581      479.381        0.998        0.207      125.503       19.801        0.025      341.007       15.422      857.624
06/25/2013  04:30:00      -86.194      -70.137       -3.393       37.722       32.239       18.418     1422.934     1039.339      339.240        0.758        0.140      111.124       11.524        0.011      340.985       15.383      857.612
06/25/2013  04:31:00     -102.382      -86.588       -3.680       71.125       46.344       22.254     5058.806     2147.722      495.261        1.285        0.385      134.088       29.856        0.050      340.942       15.311      857.612
06/25/2013  04:32:00     -115.842      -90.817       -8.621       65.428       37.252       19.551     4280.887     1387.719      382.253        1.389        0.303      147.198       26.889        0.033      340.953       15.330      857.628
06/25/2013  04:33:00     -107.219      -63.669       -0.391       51.705       24.228       19.202     2673.380      587.008      368.721        0.959        0.181      124.698       24.358        0.038      340.974       15.367      857.646
06/25/2013  04:34:00      -64.915      -77.542       -0.481       36.768       35.322       22.840     1351.850     1247.675      521.649        0.667        0.156      101.127       24.292        0.058      340.975       15.367      857.677
06/25/2013  04:35:00      -83.579      -70.297       -1.300       39.798       26.287       21.787     1583.913      691.000      474.687        0.734        0.137      109.211       20.425        0.035      340.953       15.330      857.703
06/25/2013  04:36:00     -101.594     -114.939       -2.888       52.611       43.141       29.263     2767.929     1861.143      856.295        1.451        0.274      153.402       27.617        0.032      340.924       15.280      857.703
06/25/2013  04:37:00      -86.933      -51.895       -1.209       51.990       44.334       22.441     2702.926     1965.495      503.608        0.771        0.259      101.244       14.582        0.021      340.890       15.223      857.674
06/25/2013  04:38:00      -73.364      -13.675       -9.380       26.844       26.714       17.637      720.614      713.647      311.060        0.370        0.087       74.628       11.360        0.023      340.890       15.225      857.636
06/25/2013  04:39:00      -97.914      -36.035      -12.595       35.925       21.822       15.336     1290.582      476.202      235.203        0.652        0.100      104.334       17.225        0.027      340.881       15.211      857.641
06/25/2013  04:40:00      -62.472      -35.875       -1.072       33.444       15.977       14.062     1118.481      255.250      197.742        0.338        0.079       72.040        7.357        0.010      340.870       15.190      857.678
06/25/2013  04:41:00      -39.078      -48.235       -2.263       45.206       32.539       16.732     2043.545     1058.783      279.950        0.362        0.169       62.078       15.511        0.062      340.905       15.248      857.699
06/25/2013  04:42:00      -18.780      -30.455       10.237       32.506       37.055       22.900     1056.639     1373.083      524.420        0.217        0.148       35.780       25.281        0.499      340.879       15.205      857.696
06/25/2013  04:43:00        0.139      -14.747        6.556        7.837       18.350        7.895       61.412      336.734       62.332        0.036        0.023       14.748        4.392        0.089      340.874       15.197      857.705
06/25/2013  04:44:00       18.152       17.070       23.142       20.453       14.589       15.970      418.331      212.836      255.041        0.102        0.044       24.918       12.959        0.270      340.907       15.251      857.717
06/25/2013  04:45:00       67.323       36.579       14.981       23.800       14.887       18.013      566.462      221.611      324.486        0.360        0.056       76.619       14.586        0.036      340.885       15.214      857.730
06/25/2013  04:46:00       59.237       37.705       30.721       38.148       23.992       23.869     1455.299      575.608      569.714        0.424        0.130       70.219       15.093        0.046      340.878       15.203      857.748
06/25/2013  04:47:00       84.796       46.455       35.251       47.007       28.553       28.973     2209.612      815.277      839.454        0.723        0.193       96.687       27.458        0.081      340.813       15.091      857.745
06/25/2013  04:48:00       73.141       43.454       41.220       40.880       37.773       28.861     1671.136     1426.764      832.943        0.643        0.197       85.076       19.023        0.050      340.795       15.062      857.723
06/25/2013  04:49:00       93.425       50.627       16.689       40.984       20.755       28.282     1679.682      430.784      799.897        0.724        0.146      106.261       26.328        0.061      340.749       14.984      857.713
06/25/2013  04:50:00       82.166       22.932        7.953       34.783       27.522       16.769     1209.840      757.480      281.215        0.479        0.112       85.306       12.243        0.021      340.773       15.024      857.728
06/25/2013  04:51:00       39.949       14.213        9.340       16.176       18.309       13.930      261.675      335.207      194.055        0.134        0.040       42.402       12.545        0.088      340.750       14.986      857.734
06/25/2013  04:52:00       31.659       32.798       21.627       21.317       16.192       17.852      454.436      262.166      318.703        0.179        0.052       45.584       15.771        0.120      340.769       15.019      857.737
06/25/2013  04:53:00       70.586       47.180       23.742       34.672       27.474       16.995     1202.124      754.834      288.823        0.501        0.112       84.902        5.628        0.004      340.771       15.021      857.726
06/25/2013  04:54:00       77.571       67.112        5.315       22.677       21.939       17.088      514.261      481.338      292.004        0.592        0.064      102.573       10.260        0.010      340.765       15.011      857.708
06/25/2013  04:55:00       49.506       35.841        2.749       22.442       20.147       16.796      503.643      405.905      282.108        0.247        0.060       61.118       11.299        0.034      340.734       14.957      857.711
06/25/2013  04:56:00       -0.089       -2.063        6.293       17.461       11.366        8.133      304.872      129.182       66.152        0.027        0.025        2.065        4.003        3.757      340.769       15.018      857.730
06/25/2013  04:57:00      -62.214        3.813       -4.427       36.143       12.521        7.655     1306.323      156.775       58.602        0.271        0.076       62.330        7.091        0.013      340.805       15.079      857.728
06/25/2013  04:58:00     -122.786       -9.612      -10.248       27.937       22.402       12.468      780.490      501.870      155.441        0.836        0.072      123.162       10.462        0.007      340.740       14.970      857.714
06/25/2013  04:59:00     -111.025      -39.419       -3.752       27.535       28.706       13.928      758.176      824.026      194.002        0.784        0.089      117.816       13.487        0.013      340.717       14.930      857.716
06/25/2013  05:00:00     -111.626      -41.028        0.614       28.918       22.897       19.026      836.230      524.252      362.007        0.793        0.086      118.927       15.935        0.018      340.741       14.970      857.726
06/25/2013  05:01:00     -132.253      -35.689       -7.339       37.616       27.167       18.069     1414.989      738.022      326.507        1.065        0.124      136.984       18.823        0.019      340.773       15.026      857.739
06/25/2013  05:02:00     -113.921      -69.449       -7.248       32.764       33.890       17.563     1073.495     1148.566      308.464        1.019        0.127      133.421       12.615        0.009      340.836       15.130      857.746
06/25/2013  05:03:00      -69.471      -33.303        2.650       46.797       28.849       21.996     2189.929      832.268      483.816        0.472        0.175       77.041       24.784        0.103      340.826       15.114      857.759
06/25/2013  05:04:00      -41.884      -27.623        8.022       29.754       25.279       16.233      885.297      639.049      263.500        0.218        0.089       50.172       16.914        0.114      340.860       15.171      857.762
06/25/2013  05:05:00      -67.556      -19.221       -5.983       19.524       25.339       12.805      381.186      642.081      163.978        0.308        0.059       70.237       10.146        0.021      340.832       15.124      857.768
06/25/2013  05:06:00      -55.695      -33.323       -1.014       16.361       16.490       15.559      267.697      271.906      242.085        0.250        0.039       64.903       12.743        0.039      340.818       15.101      857.776
06/25/2013  05:07:00      -35.654      -33.921       -9.632        9.524       10.919        7.853       90.698      119.234       61.669        0.139        0.014       49.212        4.508        0.008      340.862       15.177      857.782
06/25/2013  05:08:00      -60.300       -6.475       -4.112       23.314       14.783        9.710      543.551      218.525       94.278        0.228        0.043       60.647        7.565        0.016      340.851       15.156      857.781
06/25/2013  05:09:00      -34.997       -2.915      -12.617       31.945        5.933        9.211     1020.470       35.205       84.845        0.127        0.057       35.118        5.271        0.023      340.850       15.152      857.763
06/25/2013  05:10:00        2.217        7.142       12.638       13.804        7.702       10.127      190.562       59.321      102.564        0.028        0.018        7.478       10.099        1.824      340.806       15.079      857.730
06/25/2013  05:11:00       24.449       29.605       -1.239       20.219       17.335       18.023      408.803      300.511      324.817        0.125        0.052       38.396       13.055        0.116      340.694       14.892      857.712
06/25/2013  05:12:00       36.929       45.384        0.828       25.368       26.374       21.763      643.552      695.585      473.619        0.262        0.091       58.510       17.928        0.094      340.624       14.772      857.696
06/25/2013  05:13:00       27.278       59.576       -2.956       21.331       36.655       20.954      454.994     1343.623      439.071        0.327        0.112       65.524       22.949        0.123      340.663       14.839      857.689
06/25/2013  05:14:00       17.634       83.560       -7.330       22.567       28.346       22.135      509.275      803.524      489.961        0.457        0.090       85.400       19.116        0.050      340.741       14.971      857.702
06/25/2013  05:15:00       -9.911       69.666      -13.571       11.081       13.984        7.102      122.789      195.555       50.434        0.275        0.018       70.368        3.190        0.002      340.784       15.046      857.733
06/25/2013  05:16:00      -40.030       13.111      -12.484       23.493       33.275       11.748      551.931     1107.211      138.015        0.186        0.090       42.122       12.252        0.085      340.783       15.041      857.768
06/25/2013  05:17:00      -52.096       -7.498      -10.045       19.159       13.561        9.074      367.059      183.894       82.343        0.175        0.032       52.633        7.079        0.018      340.735       14.960      857.800
06/25/2013  05:18:00      -36.076      -10.990       -8.868       10.729       13.995       11.781      115.115      195.853      138.791        0.098        0.022       37.713        6.569        0.030      340.674       14.859      857.804
06/25/2013  05:19:00      -39.127        4.646       -5.745        8.854       12.146        5.090       78.392      147.521       25.906        0.092        0.013       39.402        4.529        0.013      340.739       14.969      857.784
06/25/2013  05:20:00      -61.042       44.310      -16.452       13.491       26.623        9.234      181.997      708.776       85.266        0.347        0.049       75.429       12.870        0.029      340.805       15.077      857.733
06/25/2013  05:21:00      -39.908       73.300      -13.093       23.510       12.522        8.556      552.719      156.789       73.213        0.396        0.039       83.460        6.116        0.005      340.908       15.253      857.669
06/25/2013  05:22:00       -0.294       92.217      -10.531       13.871       21.388        8.502      192.395      457.454       72.277        0.467        0.036       92.217        8.356        0.008      340.929       15.288      857.637
06/25/2013  05:23:00       -1.060       69.942       -5.720        8.712       11.878        7.865       75.898      141.095       61.855        0.260        0.014       69.950        4.162        0.004      340.902       15.247      857.632
06/25/2013  05:24:00      -17.655       12.834       -2.386        9.003       18.013        7.589       81.054      324.474       57.593        0.047        0.023       21.827        7.735        0.126      340.883       15.211      857.624
06/25/2013  05:25:00      -55.005       -8.362       -4.769       10.080       14.258        8.631      101.610      203.289       74.500        0.175        0.019       55.637        5.314        0.009      340.862       15.175      857.606
06/25/2013  05:26:00      -66.375      -18.711      -12.302        5.785        8.335        5.331       33.471       69.472       28.420        0.252        0.007       68.962        3.609        0.003      340.766       15.013      857.607
06/25/2013  05:27:00      -74.297      -30.687       -9.632        8.093        9.180        4.803       65.500       84.268       23.069        0.336        0.009       80.385        3.769        0.002      340.796       15.064      857.617
06/25/2013  05:28:00      -42.565      -19.570       -4.500       19.062       12.688       10.062      363.369      160.979      101.242        0.142        0.031       46.849        9.423        0.040      340.803       15.075      857.618
06/25/2013  05:29:00       -7.409       -5.756       -0.852       12.961        5.659        8.269      167.995       32.021       68.379        0.018        0.013        9.382        8.471        0.815      340.778       15.032      857.632
06/25/2013  05:30:00      -17.023       -1.455       -8.089       11.466        3.580        3.094      131.480       12.813        9.572        0.026        0.008       17.085        3.518        0.042      340.864       15.178      857.655
06/25/2013  05:31:00       -3.509      -13.015       -8.019        8.543       12.940        7.332       72.982      167.440       53.758        0.027        0.015       13.480        5.991        0.198      340.890       15.225      857.670
06/25/2013  05:32:00       -6.336       -3.512        5.489        5.162        9.251        4.914       26.646       85.580       24.151        0.011        0.007        7.244        2.964        0.167      340.918       15.269      857.683
06/25/2013  05:33:00      -35.341        0.590       -5.944       11.429        8.530        6.738      130.613       72.754       45.394        0.077        0.012       35.346        6.551        0.034      340.933       15.296      857.706
06/25/2013  05:34:00      -39.775       -9.572        1.601       18.058       13.242       10.333      326.096      175.353      106.763        0.114        0.030       40.911        9.004        0.048      340.905       15.247      857.709
06/25/2013  05:35:00      -59.210      -16.584       -3.286        5.982       10.066        6.122       35.782      101.322       37.478        0.198        0.009       61.488        2.661        0.002      340.844       15.143      857.688
06/25/2013  05:36:00      -29.113      -27.197       -4.913       25.065       12.998       11.820      628.245      168.958      139.707        0.127        0.047       39.841       12.293        0.095      340.935       15.297      857.676
06/25/2013  05:37:00       -9.685      -22.997       -0.048       10.944        8.242        8.890      119.775       67.932       79.025        0.044        0.013       24.953        4.154        0.028      340.909       15.256      857.652
06/25/2013  05:38:00        2.482       11.788       11.466       19.433       23.566       16.122      377.625      555.360      259.927        0.073        0.060       12.047       10.533        0.764      340.880       15.207      857.627
06/25/2013  05:39:00       33.108       30.164       19.302       26.516       15.178       16.964      703.113      230.374      287.788        0.180        0.061       44.788       13.380        0.089      340.790       15.054      857.620
06/25/2013  05:40:00        0.681        2.236        7.850       10.132       15.350       18.671      102.654      235.625      348.624        0.038        0.034        2.337       14.143       36.617      340.821       15.108      857.629
06/25/2013  05:41:00        5.130       16.199        7.704       11.868       16.404       16.774      140.851      269.091      281.363        0.052        0.035       16.992        8.250        0.236      340.860       15.172      857.633
06/25/2013  05:42:00        6.816       23.847       -2.016       11.845       15.564        9.730      140.299      242.244       94.679        0.055        0.024       24.802        3.823        0.024      340.840       15.137      857.622
06/25/2013  05:43:00       14.155       27.018        2.975       16.553       19.830       16.514      274.011      393.226      272.698        0.094        0.047       30.501       13.553        0.197      340.868       15.185      857.602
06/25/2013  05:44:00        7.808       15.168       16.046       14.587       15.827       10.390      212.767      250.509      107.951        0.056        0.029       17.060        5.155        0.091      340.881       15.207      857.608
06/25/2013  05:45:00        3.696        3.786       21.531       11.863        6.295        7.512      140.735       39.621       56.432        0.036        0.012        5.291        7.677        2.105      340.927       15.287      857.632
06/25/2013  05:46:00      -17.047       11.375        0.655        8.388        8.749        5.526       70.354       76.545       30.540        0.030        0.009       20.493        4.825        0.055      340.925       15.284      857.652
06/25/2013  05:47:00       -7.900       16.070        6.552       12.024        6.777        5.564      144.578       45.923       30.956        0.029        0.011       17.907        5.121        0.082      340.904       15.246      857.656
06/25/2013  05:48:00       13.791       42.043       -2.999        8.615       11.960        7.183       74.223      143.051       51.601        0.112        0.013       44.247        5.009        0.013      340.849       15.152      857.652
06/25/2013  05:49:00       20.146       66.216       -8.940       12.722       11.069        6.142      161.839      122.516       37.729        0.260        0.016       69.213        3.951        0.003      340.731       14.952      857.635
06/25/2013  05:50:00        0.179       46.058      -10.303        8.852        8.663        4.109       78.358       75.053       16.886        0.120        0.009       46.058        3.948        0.007      340.772       15.022      857.641
06/25/2013  05:51:00      -16.679       38.585       -9.364       11.996       11.702        5.818      143.901      136.936       33.852        0.108        0.016       42.035        4.282        0.010      340.838       15.134      857.679
06/25/2013  05:52:00      -42.351        0.401       -6.425       12.056       17.055        8.279      145.337      290.880       68.544        0.117        0.025       42.353        7.101        0.028      340.790       15.052      857.721
06/25/2013  05:53:00      -46.057       -7.250       -4.181       14.305        8.614        8.289      204.638       74.203       68.705        0.127        0.017       46.625        5.366        0.013      340.759       15.002      857.763
06/25/2013  05:54:00      -38.455      -14.095       -1.489       22.719       14.322        9.680      516.167      205.120       93.711        0.125        0.041       40.957        8.211        0.040      340.796       15.063      857.784
06/25/2013  05:55:00      -68.417      -18.490       -9.847       19.360       12.187        8.413      374.797      148.519       70.773        0.286        0.030       70.872        9.718        0.019      340.861       15.173      857.794
06/25/2013  05:56:00      -69.493      -40.622      -10.016       11.732       12.654        7.510      137.647      160.116       56.397        0.347        0.018       80.495        5.606        0.005      340.907       15.254      857.805
06/25/2013  05:57:00      -86.328      -23.962      -10.319       16.781       13.283        9.302      281.592      176.439       86.523        0.434        0.027       89.591        9.855        0.012      340.895       15.232      857.809
06/25/2013  05:58:00      -99.306      -34.712      -13.968       20.209       12.951       10.698      408.390      167.724      114.450        0.598        0.035      105.198        9.522        0.008      340.876       15.198      857.809
06/25/2013  05:59:00      -91.781      -45.737      -12.957       21.314       18.619       11.616      454.296      346.662      134.937        0.581        0.047      102.546        7.203        0.005      340.902       15.242      857.812
06/25/2013  06:00:00      -83.371      -65.827       -1.318       36.936       24.009       16.918     1364.262      576.413      286.222        0.676        0.111      106.226        7.639        0.005      340.920       15.274      857.813
06/25/2013  06:01:00     -117.376      -76.034       -5.802       39.116       27.089       18.179     1530.098      733.822      330.475        1.109        0.130      139.851       18.661        0.018      340.938       15.304      857.823
06/25/2013  06:02:00      -59.181      -41.626       -2.324       33.365       21.250       14.123     1113.219      451.569      199.458        0.350        0.088       72.354        7.830        0.012      340.975       15.366      857.816
06/25/2013  06:03:00      -59.212      -25.091       -3.422       23.046       19.145       13.157      531.132      366.532      173.094        0.261        0.054       64.309        4.150        0.004      340.965       15.350      857.797
06/25/2013  06:04:00      -56.155      -35.682       -1.565       19.913       24.598       14.321      396.513      605.066      205.094        0.282        0.060       66.533       13.341        0.040      340.961       15.342      857.791
06/25/2013  06:05:00      -87.299      -55.333       -5.410       27.630       23.918       15.806      763.413      572.070      249.831        0.615        0.079      103.358        9.772        0.009      340.963       15.346      857.806
06/25/2013  06:06:00      -74.351      -34.307       -3.765       46.993       33.002       20.159     2208.373     1089.162      406.399        0.521        0.185       81.884       17.379        0.045      340.969       15.355      857.825
06/25/2013  06:07:00     -101.538      -32.026       -9.139       13.289       20.383        7.374      176.598      415.486       54.378        0.603        0.032      106.469        7.647        0.005      340.971       15.361      857.811
06/25/2013  06:08:00      -38.717       -3.999       -7.650       16.583       12.596        7.268      275.012      158.653       52.830        0.103        0.024       38.923        7.925        0.041      340.952       15.328      857.771
06/25/2013  06:09:00      -93.697       -1.578       -9.492       18.754       22.809       14.361      351.694      520.270      206.242        0.497        0.054       93.710       14.002        0.022      341.035       15.470      857.747
06/25/2013  06:10:00      -66.024      -30.579       -3.461       17.512       13.778        8.808      306.685      189.826       77.577        0.294        0.029       72.761        7.846        0.012      341.021       15.444      857.733
06/25/2013  06:11:00      -87.622      -65.118       -7.157       26.994       27.954       15.229      728.696      781.419      231.923        0.686        0.087      109.169       11.385        0.011      341.042       15.481      857.744
06/25/2013  06:12:00     -113.727      -53.840        1.150       58.685       24.577       25.090     3443.935      604.040      629.523        1.025        0.234      125.827       25.885        0.042      341.015       15.434      857.780
06/25/2013  06:13:00      -84.354      -71.165        4.755       55.910       39.660       29.177     3125.957     1572.879      851.289        0.888        0.278      110.364       23.852        0.047      341.013       15.431      857.803
06/25/2013  06:14:00     -133.184      -56.792       -1.844       34.197       42.961       21.452     1169.428     1845.631      460.188        1.222        0.174      144.787       16.496        0.013      341.013       15.431      857.791
06/25/2013  06:15:00      -53.465      -40.322       -5.038       50.862       27.283       24.960     2586.944      744.344      623.006        0.423        0.198       66.965       19.161        0.082      341.014       15.434      857.763
06/25/2013  06:16:00      -15.289      -43.114        2.425       66.292       40.042       21.823     4394.564     1603.334      476.227        0.429        0.324       45.745       23.682        0.268      341.087       15.557      857.775
06/25/2013  06:17:00     -158.387      -88.804       -8.233       36.583       30.301       24.060     1338.332      918.127      578.865        1.794        0.142      181.584       13.133        0.005      340.998       15.404      857.799
06/25/2013  06:18:00     -141.691      -73.291       -4.632       48.952       35.788       23.813     2396.338     1280.773      567.049        1.486        0.212      159.524       21.593        0.018      341.044       15.484      857.836
06/25/2013  06:19:00     -171.192      -28.540       -0.984       36.365       40.355       25.855     1322.410     1628.530      668.491        1.687        0.181      173.555       22.130        0.016      340.974       15.364      857.872
06/25/2013  06:20:00     -165.466      -30.437       -1.963       65.367       48.546       28.291     4272.907     2356.670      800.371        1.787        0.371      168.242       30.425        0.033      340.949       15.321      857.893
06/25/2013  06:21:00     -188.293      -47.654       -6.963       72.241       57.269       33.057     5218.781     3279.701     1092.778        2.368        0.480      194.230       30.670        0.025      340.982       15.376      857.906
06/25/2013  06:22:00     -193.504      -40.741       -0.681       52.431       48.859       28.640     2749.014     2387.166      820.234        2.253        0.298      197.747       23.118        0.014      341.042       15.479      857.915
06/25/2013  06:23:00     -132.710      -46.462        0.259       52.979       31.229       20.827     2806.786      975.254      433.765        1.199        0.211      140.608       20.292        0.021      340.999       15.406      857.921
06/25/2013  06:24:00      -18.455       -1.907       11.671       21.207       27.382       14.089      449.723      749.775      198.503        0.094        0.070       18.553       11.993        0.418      341.028       15.454      857.903
06/25/2013  06:25:00      -16.208      -10.355       11.771       21.922       20.128       11.800      480.560      405.136      139.243        0.077        0.051       19.234       12.579        0.428      341.068       15.528      857.886
06/25/2013  06:26:00      -25.668      -27.387       -1.446       21.974       18.785       11.078      482.870      352.862      122.721        0.118        0.048       37.535        3.586        0.009      341.089       15.561      857.878
06/25/2013  06:27:00      -17.611      -38.339        0.874       17.386       18.939       19.352      302.282      358.687      374.511        0.141        0.052       42.191       10.071        0.057      341.198       15.746      857.870
06/25/2013  06:28:00      -19.174      -26.175        1.364       24.188       23.230       16.542      585.047      539.633      273.636        0.123        0.070       32.447       12.842        0.157      341.222       15.785      857.866
06/25/2013  06:29:00        4.561      -51.064        7.303       13.982       25.805       16.500      195.494      665.889      272.236        0.191        0.057       51.267       11.953        0.054      341.197       15.744      857.859
06/25/2013  06:30:00      -61.423      -13.612       -4.543       21.671       18.290       17.275      469.617      334.530      298.421        0.254        0.055       62.913       14.614        0.054      341.165       15.689      857.851
06/25/2013  06:31:00      -38.716      -24.577        7.705       47.995       33.551       21.036     2303.529     1125.662      442.533        0.302        0.194       45.858       25.161        0.301      341.170       15.697      857.876
06/25/2013  06:32:00      -43.047      -79.560       -5.276       37.399       31.782       22.707     1398.656     1010.072      515.625        0.557        0.146       90.459       23.068        0.065      341.141       15.648      857.906
06/25/2013  06:33:00      -55.258      -32.100       11.144       47.513       29.733       18.824     2257.518      884.023      354.348        0.385        0.175       63.905       22.545        0.124      341.166       15.688      857.903
06/25/2013  06:34:00      -46.728      -25.671       10.947       30.157       33.000       18.757      909.460     1088.976      351.814        0.266        0.118       53.315       16.857        0.100      341.174       15.703      857.890
06/25/2013  06:35:00      -21.814     -109.276        1.703       16.343       21.097       20.987      267.102      445.077      440.437        0.679        0.058      111.432       14.845        0.018      341.211       15.767      857.884
06/25/2013  06:36:00      -33.714      -54.272        1.231       30.655       28.556       18.368      939.724      815.441      337.398        0.309        0.105       63.892       16.361        0.066      341.268       15.864      857.873
06/25/2013  06:37:00      -63.951        0.013       -2.025       36.098       10.538       12.240     1303.080      111.056      149.816        0.283        0.078       63.951       10.447        0.027      341.247       15.828      857.883
06/25/2013  06:38:00      -41.411       -2.001        5.238       27.164       27.226       17.526      737.899      741.230      307.174        0.177        0.089       41.459       16.494        0.158      341.212       15.771      857.905
06/25/2013  06:39:00      -47.196      -83.456        4.545       18.717       26.123       12.522      350.343      682.412      156.811        0.520        0.059       95.877       10.245        0.011      341.228       15.797      857.931
06/25/2013  06:40:00        7.331      -50.052       12.963       21.887       35.341       13.952      479.021     1248.966      194.647        0.232        0.096       50.586       15.439        0.093      341.259       15.847      857.937
06/25/2013  06:41:00       -8.248       -0.078       20.230       19.849       26.552       21.713      393.998      705.009      471.467        0.102        0.079        8.249       19.065        5.342      341.238       15.813      857.934
06/25/2013  06:42:00       39.909      -41.308        6.629       45.520       47.194       28.522     2072.090     2227.243      813.527        0.423        0.256       57.438       34.198        0.354      341.201       15.749      857.936
06/25/2013  06:43:00       58.800      -65.564       -1.231       28.410       31.215       24.788      807.125      974.374      614.435        0.508        0.120       88.069       23.459        0.071      341.172       15.699      858.002
06/25/2013  06:44:00       15.074      -28.447       24.994       29.532       51.849       34.468      872.122     2688.291     1188.057        0.320        0.237       32.194       35.503        1.216      341.237       15.810      858.051
06/25/2013  06:45:00      -14.269      -35.568        5.678       38.616       34.668       24.287     1491.169     1201.896      589.859        0.239        0.164       38.323       19.467        0.258      341.361       16.021      858.093
06/25/2013  06:46:00      -13.265      -22.448       -1.679       30.832       24.561       18.769      950.585      603.265      352.278        0.129        0.095       26.075       12.115        0.216      341.348       15.998      858.111
06/25/2013  06:47:00      -18.853      -22.437        0.301       24.338       17.644       13.662      592.320      311.315      186.661        0.097        0.055       29.306       12.518        0.182      341.348       15.998      858.094
06/25/2013  06:48:00      -35.722        0.588       -3.435       25.654       27.292       13.532      658.146      744.862      183.106        0.144        0.079       35.727       12.872        0.130      341.309       15.934      858.050
06/25/2013  06:49:00      -46.902       -4.238       -2.346       25.429       13.415        8.654      646.656      179.957       74.900        0.156        0.045       47.093        5.055        0.012      341.238       15.812      858.035
06/25/2013  06:50:00      -88.004      -33.869       -0.760       28.259       30.981       13.272      798.580      959.807      176.150        0.541        0.097       94.296        7.841        0.007      341.265       15.859      858.065
06/25/2013  06:51:00      -48.615      -43.683        9.074       41.433       39.311       19.693     1716.653     1545.373      387.833        0.400        0.182       65.358       20.411        0.098      341.301       15.918      858.124
06/25/2013  06:52:00      -78.969      -65.341       -4.275       43.176       27.722       21.574     1864.203      768.504      465.417        0.681        0.155      102.497       24.183        0.056      341.274       15.874      858.153
06/25/2013  06:53:00      -74.396      -61.356      -11.294       33.873       26.851       18.703     1147.349      720.973      349.803        0.582        0.111       96.433       20.509        0.045      341.254       15.838      858.107
06/25/2013  06:54:00     -104.806      -10.338       -5.284       31.720       15.674       16.067     1006.127      245.659      258.135        0.631        0.075      105.315       17.967        0.029      341.239       15.813      858.046
06/25/2013  06:55:00     -144.200      -40.414      -20.199       21.164       24.095       14.805      447.907      580.568      219.173        1.204        0.062      149.756        8.031        0.003      341.252       15.838      858.044
06/25/2013  06:56:00     -175.837      -61.228        3.125       71.854       36.364       31.051     5163.004     1322.361      964.160        2.106        0.372      186.192       34.721        0.035      341.258       15.845      858.092
06/25/2013  06:57:00     -161.485       -6.077       -4.671       55.228       36.910       25.176     3050.108     1362.315      633.816        1.559        0.252      161.599       28.762        0.032      341.183       15.720      858.143
06/25/2013  06:58:00     -104.970      -30.063      -10.521       64.437       52.435       22.046     4152.065     2749.426      486.040        0.971        0.369      109.191       15.834        0.021      341.249       15.831      858.149
06/25/2013  06:59:00      -13.150      -34.141       -0.090       25.540       16.896       14.554      652.306      285.460      211.817        0.124        0.057       36.586        9.842        0.072      341.259       15.847      858.129
06/25/2013  07:00:00      -66.404      -35.395       -6.649       15.724       16.311        9.914      247.259      266.051       98.296        0.316        0.031       75.248        7.847        0.011      341.273       15.872      858.074
06/25/2013  07:01:00      -97.986      -28.219       -4.374       27.848       16.640       14.133      775.486      276.880      199.743        0.583        0.063      101.968       14.245        0.020      341.299       15.917      858.075
06/25/2013  07:02:00      -66.945      -70.153        2.245       46.095       37.109       27.108     2124.789     1377.108      734.849        0.682        0.212       96.969       27.174        0.079      341.360       16.018      858.133
06/25/2013  07:03:00      -80.803      -57.903        0.064       51.813       33.197       23.062     2684.584     1102.070      531.854        0.710        0.216       99.408       18.555        0.035      341.363       16.023      858.179
06/25/2013  07:04:00      -68.818      -50.866       -1.200       48.720       30.941       20.106     2373.619      957.359      404.239        0.553        0.187       85.576       21.493        0.063      341.409       16.100      858.173
06/25/2013  07:05:00      -90.325      -83.224        2.096       43.733       34.403       27.830     1912.548     1183.555      774.521        0.948        0.194      122.820       22.173        0.033      341.361       16.021      858.164
06/25/2013  07:06:00      -68.258      -59.815        8.469       46.308       35.294       27.511     2144.446     1245.649      756.839        0.623        0.207       90.758       29.313        0.104      341.362       16.023      858.179
06/25/2013  07:07:00      -85.444      -76.187        3.291       36.427       28.938       23.665     1326.895      837.415      560.037        0.792        0.136      114.478       23.280        0.041      341.332       15.970      858.190
06/25/2013  07:08:00      -78.331      -72.102        2.312       47.795       34.201       23.642     2284.372     1169.676      558.950        0.768        0.201      106.463       23.935        0.051      341.351       16.003      858.202
06/25/2013  07:09:00      -76.401      -39.835       -0.710       24.758       30.572       14.290      612.968      934.642      204.205        0.459        0.088       86.162       11.771        0.019      341.364       16.025      858.188
06/25/2013  07:10:00       -3.156      -10.369       11.625       16.513       17.772        9.150      272.683      315.829       83.723        0.046        0.034       10.838        8.058        0.553      341.457       16.182      858.126
06/25/2013  07:11:00      -23.829       -6.639        3.767       27.308        9.745       10.845      745.731       94.973      117.616        0.079        0.048       24.736       13.579        0.301      341.409       16.101      858.052
06/25/2013  07:12:00      -11.921       -8.181        8.764       10.932       21.299       12.800      119.504      453.638      163.830        0.051        0.037       14.458        7.768        0.289      341.433       16.141      858.006
06/25/2013  07:13:00       37.149      -36.397        2.120       49.721       34.793       30.792     2472.156     1210.537      948.141        0.367        0.232       52.008       32.053        0.380      341.398       16.083      857.984
06/25/2013  07:14:00       -1.237      -22.693       16.204       42.019       37.705       28.816     1765.593     1421.650      830.379        0.240        0.201       22.727       20.446        0.809      341.436       16.147      857.976
06/25/2013  07:15:00      -49.145      -53.051       -4.581       12.115       15.034       13.490      146.779      226.031      181.982        0.290        0.028       72.317        7.224        0.010      341.418       16.117      857.946
06/25/2013  07:16:00      -30.473      -24.115        6.368       23.075       27.747       14.691      532.466      769.896      215.818        0.153        0.076       38.861       15.841        0.166      341.508       16.269      857.943
06/25/2013  07:17:00       -3.109       -4.304       21.041       18.720       16.003       12.178      350.426      256.083      148.313        0.061        0.038        5.310       11.514        4.701      341.589       16.406      857.937
06/25/2013  07:18:00        1.189       35.671       70.781       17.528       39.797       17.759      307.219     1583.818      315.388        0.424        0.110       35.690       21.456        0.361      341.535       16.315      857.898
06/25/2013  07:19:00        5.403       20.758       56.888       24.894       36.628       28.196      619.699     1341.596      795.027        0.323        0.138       21.450       26.048        1.475      341.476       16.215      857.856
06/25/2013  07:20:00       18.297      -46.030        1.634       24.211       42.613       26.698      586.171     1815.881      712.760        0.278        0.156       49.533       13.473        0.074      341.530       16.306      857.853
06/25/2013  07:21:00       18.694      -71.999       -2.698       26.632       28.540       20.701      709.285      814.540      428.544        0.375        0.098       74.387        8.887        0.014      341.489       16.236      857.871
06/25/2013  07:22:00       11.428      -27.079       17.039       26.404       43.704       23.219      697.146     1910.002      539.127        0.215        0.157       29.392       22.182        0.570      341.550       16.340      857.906
06/25/2013  07:23:00        7.201      -37.326        1.673       14.864       29.454       22.405      220.940      867.544      502.000        0.152        0.080       38.014       19.464        0.262      341.528       16.303      857.940
06/25/2013  07:24:00        7.676      -34.914       -4.071       23.911       40.766       19.964      571.725     1661.850      398.555        0.196        0.132       35.748       12.647        0.125      341.540       16.323      857.965
06/25/2013  07:25:00       28.163      -37.804       21.807       42.285       33.817       28.950     1788.026     1143.564      838.102        0.323        0.188       47.141       20.821        0.195      341.508       16.269      857.943
06/25/2013  07:26:00       -3.622       -0.818       18.433       24.877       36.156       29.828      618.857     1307.285      889.699        0.158        0.141        3.714       24.886       44.905      341.517       16.284      857.925
06/25/2013  07:27:00        9.708        8.439       33.257       38.922       30.359       25.089     1514.959      921.694      629.451        0.217        0.153       12.864       22.517        3.064      341.589       16.406      857.925
06/25/2013  07:28:00       27.749       23.596       41.979       41.443       38.167       26.128     1717.498     1456.744      682.680        0.347        0.193       36.425       29.738        0.667      341.549       16.339      857.961
06/25/2013  07:29:00       34.648       12.666       32.927       39.573       35.293       24.664     1566.049     1245.597      608.330        0.293        0.171       36.890       28.080        0.579      341.488       16.236      857.981
06/25/2013  07:30:00       50.705      -10.437       29.524       35.868       30.679       29.114     1286.489      941.218      847.640        0.331        0.154       51.768       25.802        0.248      341.494       16.244      857.957
06/25/2013  07:31:00       35.702      -91.230      -11.924       20.889       24.239       17.899      436.343      587.526      320.389        0.554        0.067       97.967       11.996        0.015      341.542       16.326      858.003
06/25/2013  07:32:00      -12.050       -2.356       24.993       36.886       33.913       26.518     1360.581     1150.115      703.194        0.199        0.161       12.278       23.064        3.529      341.732       16.648      858.057
06/25/2013  07:33:00     -105.980      -60.581       -6.889       56.889       47.218       31.605     3236.394     2229.545      998.873        1.071        0.323      122.073       35.405        0.084      341.562       16.359      858.036
06/25/2013  07:34:00      -43.090      -47.864       13.703       66.547       37.360       30.174     4428.480     1395.779      910.475        0.553        0.337       64.403       37.098        0.332      341.508       16.269      858.016
06/25/2013  07:35:00      -20.366      -59.950       10.665       29.136       43.836       28.035      848.909     1921.628      785.970        0.384        0.178       63.314       25.466        0.162      341.460       16.188      858.035
06/25/2013  07:36:00      -15.841        0.852        1.232       38.326       25.281       17.750     1468.916      639.132      315.056        0.134        0.121       15.864       14.342        0.817      341.484       16.228      858.049
06/25/2013  07:37:00      -56.926       -7.172        5.757       33.684       31.383       20.786     1134.620      984.882      432.041        0.294        0.128       57.376       20.140        0.123      341.457       16.182      858.049
06/25/2013  07:38:00      -27.404      -18.226        3.281       23.490       13.228       11.081      551.785      174.985      122.797        0.097        0.042       32.912        8.250        0.063      341.494       16.242      858.035
06/25/2013  07:39:00      -54.438      -27.079       -7.566       30.570       11.587       12.827      934.524      134.259      164.534        0.249        0.062       60.801        9.198        0.023      341.442       16.157      858.015
06/25/2013  07:40:00      -63.192      -41.923        0.658       45.088       35.376       23.081     2032.946     1251.448      532.718        0.478        0.191       75.834       18.816        0.062      341.539       16.319      858.079
06/25/2013  07:41:00      -56.616      -93.438        0.735       43.669       51.181       25.631     1906.960     2619.500      656.923        0.856        0.259      109.252       26.735        0.060      341.509       16.271      858.152
06/25/2013  07:42:00      -32.079      -63.387        7.542       28.358       43.048       21.905      804.164     1853.105      479.847        0.412        0.157       71.042       15.949        0.050      341.485       16.229      858.155
06/25/2013  07:43:00      -18.725        1.582       -6.785       21.113       15.946       13.591      445.757      254.286      184.712        0.064        0.044       18.791        2.202        0.014      341.539       16.319      858.084
06/25/2013  07:44:00      -23.179       12.502        6.613       12.743        8.427       11.114      162.383       71.007      123.521        0.055        0.018       26.336        6.279        0.057      341.580       16.392      858.048
06/25/2013  07:45:00      -30.617       -9.747       -3.346       14.052        8.965        9.939      197.469       80.373       98.787        0.071        0.019       32.131        8.775        0.075      341.557       16.351      858.060
06/25/2013  07:46:00      -23.859       -2.116      -10.098       18.620       15.153       16.377      346.686      229.611      268.199        0.076        0.042       23.953       12.100        0.255      341.654       16.516      858.043
06/25/2013  07:47:00       -7.873       12.350        1.737       14.484       13.157       15.691      209.774      173.103      246.220        0.042        0.031       14.646       10.372        0.502      341.788       16.742      858.002
06/25/2013  07:48:00       -3.376      -41.275        1.463       14.458       26.440       12.320      209.034      699.071      151.778        0.139        0.053       41.413        8.393        0.041      341.651       16.511      857.984
06/25/2013  07:49:00      -25.975      -31.041       10.762       27.636       27.471       13.966      763.753      754.655      195.059        0.173        0.086       40.475       14.423        0.127      341.685       16.570      857.976
06/25/2013  07:50:00      -61.623      -12.991        0.769       25.195       24.324       14.013      634.801      591.673      196.356        0.269        0.071       62.977        8.754        0.019      341.615       16.451      857.946
06/25/2013  07:51:00      -48.277      -21.428        0.761       28.548       25.041       13.959      814.988      627.032      194.860        0.221        0.082       52.819       19.108        0.131      341.686       16.571      857.931
06/25/2013  07:52:00      -27.222       -4.258       -4.038       22.275       17.388       13.136      496.154      302.340      172.545        0.087        0.049       27.553        4.736        0.030      341.706       16.606      857.904
06/25/2013  07:53:00      -22.942       14.775       -5.704       12.484       16.649       14.732      155.839      277.203      217.038        0.071        0.033       27.288        8.833        0.105      341.606       16.436      857.875
06/25/2013  07:54:00      -49.526       20.454      -21.608       20.909       12.933        9.390      437.200      167.271       88.175        0.202        0.035       53.583        8.804        0.027      341.594       16.418      857.861
06/25/2013  07:55:00      -89.259      -11.742      -12.500       21.278       19.068       13.741      452.755      363.604      188.810        0.463        0.050       90.028       13.630        0.023      341.594       16.417      857.878
06/25/2013  07:56:00       -7.451        0.178        1.361       15.283        9.617       10.895      233.579       92.496      118.709        0.025        0.022        7.453        7.631        1.048      341.915       16.960      857.895
06/25/2013  07:57:00      -50.444      -19.918       -0.593       15.143       24.889       11.725      229.316      619.443      137.487        0.196        0.049       54.234        8.378        0.024      341.727       16.641      857.917
06/25/2013  07:58:00      -57.850      -22.815        0.080       14.599       18.198       11.293      213.134      331.155      127.531        0.227        0.034       62.187        7.809        0.016      341.754       16.687      857.936
06/25/2013  07:59:00      -26.169       17.599       -3.139       15.538       14.862       14.906      241.434      220.872      222.196        0.084        0.034       31.537        9.950        0.100      341.836       16.825      857.935
06/25/2013  08:00:00      -10.155       22.016        6.687        9.868       19.019       13.276       97.371      361.721      176.265        0.063        0.032       24.245        6.859        0.080      341.977       17.064      857.934
06/25/2013  08:01:00      -17.218       -1.287        0.183       13.247       14.166       10.598      175.480      200.684      112.312        0.039        0.024       17.266        7.752        0.202      341.893       16.923      857.949
06/25/2013  08:02:00      -17.000      -34.003        1.307       19.644       30.677       13.817      385.895      941.103      190.898        0.148        0.076       38.015       10.923        0.083      341.905       16.943      857.972
06/25/2013  08:03:00        5.078       -7.267        7.632       41.675       50.720       17.060     1736.769     2572.505      291.044        0.237        0.230        8.865       19.589        4.882      341.961       17.038      857.974
06/25/2013  08:04:00       32.184      -12.014        8.134       38.217       45.555       30.004     1460.548     2075.222      900.255        0.284        0.222       34.354       24.702        0.517      341.908       16.947      857.985
06/25/2013  08:05:00      -49.543      -42.544      -14.498       46.820       33.588       20.490     2192.082     1128.186      419.821        0.411        0.187       65.303       14.896        0.052      341.889       16.914      857.975
06/25/2013  08:06:00     -117.269      -59.525       -3.164       42.581       37.903       28.818     1813.126     1436.605      830.495        1.069        0.204      131.512       23.231        0.031      341.869       16.883      857.929
06/25/2013  08:07:00      -83.205      -31.961       -5.360       51.303       29.838       21.715     2632.040      890.296      471.548        0.598        0.200       89.133       27.700        0.097      341.926       16.980      857.898
06/25/2013  08:08:00      -10.837      -39.726       12.819       44.514       30.762       29.950     1981.511      946.300      896.996        0.284        0.191       41.178       24.717        0.360      342.034       17.161      857.934
06/25/2013  08:09:00        7.865      -10.189        7.023       38.439       37.821       25.709     1477.542     1430.437      660.976        0.189        0.178       12.871       18.523        2.071      342.094       17.264      857.931
06/25/2013  08:10:00        4.685      -16.464       13.330       47.445       42.918       32.304     2251.062     1841.994     1043.557        0.280        0.257       17.117       30.359        3.146      342.161       17.377      857.888
06/25/2013  08:11:00       51.016      -31.665       15.607       50.950       47.706       33.017     2595.900     2275.874     1090.092        0.490        0.298       60.044       19.415        0.105      342.194       17.432      857.849
06/25/2013  08:12:00      -55.314      -17.372       -2.287       32.855       34.092       21.122     1079.470     1162.295      446.143        0.303        0.134       57.977       16.452        0.081      342.127       17.320      857.864
06/25/2013  08:13:00      -65.977      -58.040       -2.892       49.587       27.908       18.622     2458.842      778.836      346.772        0.566        0.179       87.872       12.343        0.020      342.065       17.213      857.904
06/25/2013  08:14:00      -33.926      -29.147        6.887       36.144       20.910       16.276     1306.376      437.235      264.900        0.203        0.100       44.727       14.696        0.108      342.193       17.431      857.941
06/25/2013  08:15:00      -16.508      -26.068        0.398       18.402       23.712       12.833      338.649      562.274      164.698        0.101        0.053       30.856       12.908        0.175      342.181       17.412      857.918
06/25/2013  08:16:00       16.564        9.546       16.270       24.801       16.467       17.192      615.088      271.156      295.563        0.091        0.059       19.118       13.015        0.463      342.419       17.816      857.863
06/25/2013  08:17:00       33.721       44.433       -0.203       16.023       16.942       26.542      256.722      287.018      704.501        0.218        0.062       55.780       11.844        0.045      342.135       17.331      857.868
06/25/2013  08:18:00      -36.050       72.308       -0.007       28.544       31.395       20.122      814.734      985.669      404.875        0.437        0.110       80.797       15.633        0.037      342.280       17.578      857.922
06/25/2013  08:19:00      -55.186       34.344       -9.753       25.344       37.170       15.985      642.343     1381.642      255.510        0.330        0.114       65.000        7.489        0.013      342.100       17.274      857.922
06/25/2013  08:20:00      -49.298        5.069       -7.850       18.457       12.249       15.781      340.671      150.026      249.054        0.163        0.037       49.558       12.157        0.060      342.114       17.297      857.909
06/25/2013  08:21:00      -39.196      -11.271       -4.086       21.167       28.641       10.410      448.033      820.307      108.359        0.153        0.069       40.784        6.626        0.026      342.184       17.415      857.899
06/25/2013  08:22:00      -10.747      -36.111       -1.826       31.934       36.816       21.783     1019.753     1355.426      474.502        0.214        0.142       37.676       13.083        0.121      342.319       17.645      857.898
06/25/2013  08:23:00        2.047      -54.129       -2.108       29.695       51.541       21.282      881.796     2656.521      452.916        0.346        0.200       54.168       23.976        0.196      342.420       17.816      857.898
06/25/2013  08:24:00       36.161       41.668       24.486       39.807       32.203       25.769     1584.576     1037.033      664.024        0.346        0.164       55.171       22.663        0.169      342.398       17.779      857.864
06/25/2013  08:25:00       85.861       63.448        9.934       39.977       33.012       31.342     1598.195     1089.820      982.291        0.758        0.184      106.760       17.068        0.026      342.270       17.563      857.798
06/25/2013  08:26:00       76.055       56.723       21.419       81.875       50.933       24.217     6703.479     2594.212      586.483        0.967        0.494       94.878       16.771        0.031      342.405       17.790      857.794
06/25/2013  08:27:00       49.306      127.831      125.163       63.765       53.235       43.001     4066.025     2834.010     1849.087        2.159        0.437      137.010       23.809        0.030      342.428       17.829      857.787
06/25/2013  08:28:00       57.556       69.408       59.954       41.357       50.797       55.525     1710.383     2580.300     3083.077        0.955        0.369       90.167       33.274        0.136      342.276       17.571      857.800
06/25/2013  08:29:00       54.574       49.512       38.472       45.156       43.898       37.141     2039.099     1927.017     1379.446        0.613        0.267       73.687       16.538        0.050      342.254       17.535      857.802
06/25/2013  08:30:00      -20.777        1.400       16.223       24.783       19.780       18.922      614.191      391.264      358.028        0.103        0.068       20.825       11.907        0.327      342.442       17.854      857.835
06/25/2013  08:31:00       -8.337       60.825       -3.533       18.947       16.954       18.766      358.986      287.426      352.145        0.239        0.050       61.393       13.160        0.046      342.172       17.394      857.885
06/25/2013  08:32:00       25.648       75.334      -10.828       19.880       14.793       12.295      395.227      218.823      151.156        0.361        0.038       79.581        4.145        0.003      342.201       17.445      857.881
06/25/2013  08:33:00       72.055       21.264       18.275       31.453       31.630       23.533      989.320     1000.476      553.792        0.426        0.127       75.128       19.072        0.064      342.259       17.542      857.903
06/25/2013  08:34:00       37.835       40.818        7.528       36.655       42.447       33.329     1343.616     1801.742     1110.836        0.370        0.213       55.656       14.471        0.068      342.300       17.613      857.891
06/25/2013  08:35:00       13.240      -13.234        7.093       88.430      106.413       54.161     7819.804    11323.759     2933.405        1.123        1.104       18.720       21.270        1.291      342.442       17.852      857.872
06/25/2013  08:36:00      -35.100      -46.524        8.729       74.889       80.250       44.969     5608.330     6440.003     2022.181        0.877        0.704       58.279       45.156        0.600      342.668       18.241      857.870
06/25/2013  08:37:00       17.583       18.827       61.296       75.000       83.190       60.156     5625.013     6920.585     3618.742        1.029        0.808       25.761       55.141        4.582      342.610       18.140      857.876
06/25/2013  08:38:00       49.000       18.079       65.380       72.962      107.644       62.913     5323.427    11587.282     3958.019        1.393        1.043       52.228       63.300        1.469      342.659       18.223      857.875
06/25/2013  08:39:00      151.981     -102.447       34.058      103.796       73.959       58.322    10773.529     5469.876     3401.447        2.720        0.982      183.286       45.513        0.062      342.675       18.248      857.876
06/25/2013  08:40:00      191.315     -158.224      -10.793      108.677      115.874       79.902    11810.615    13426.716     6384.362        4.668        1.581      248.266       91.223        0.135      342.686       18.266      857.851
06/25/2013  08:41:00      158.516     -199.174      -48.477      102.242      103.063       42.692    10453.502    10622.081     1822.647        4.502        1.145      254.554       44.525        0.031      342.616       18.147      857.878
06/25/2013  08:42:00       67.133     -132.618        8.623       79.079       76.868       39.351     6253.545     5908.678     1548.492        1.794        0.686      148.642       42.418        0.081      342.520       17.985      857.949
06/25/2013  08:43:00       22.417      -28.187       36.939       86.433       96.525       77.086     7470.731     9317.124     5942.238        1.269        1.137       36.014       78.873        4.796      342.650       18.207      858.032
06/25/2013  08:44:00       45.907      -43.148       61.294       72.667      132.169      117.041     5280.477    17468.595    13698.523        2.208        1.822       63.002      106.401        2.852      342.694       18.281      857.999
06/25/2013  08:45:00       -8.250     -133.099        9.906       57.922       86.362       58.706     3354.951     7458.464     3446.377        1.607        0.713      133.354       49.500        0.138      342.801       18.464      858.036
06/25/2013  08:46:00       26.608     -215.975      -14.093      103.732      136.983       70.044    10760.296    18764.419     4906.223        4.098        1.722      217.608       68.816        0.100      342.770       18.410      858.076
06/25/2013  08:47:00       82.935     -207.515      -10.296       99.546      170.047       50.448     9909.497    28916.003     2544.991        4.570        2.069      223.475       36.674        0.027      342.753       18.381      858.106
06/25/2013  08:48:00       33.045     -157.819       28.276      118.897      164.950       57.974    14136.520    27208.533     3361.015        3.574        2.235      161.241       67.462        0.175      342.780       18.428      858.119
06/25/2013  08:49:00       82.846     -313.714      -11.791      105.100      132.144       76.952    11045.954    17462.106     5921.584        6.992        1.721      324.469       72.236        0.050      342.758       18.389      858.130
06/25/2013  08:50:00      -49.706     -212.865       -6.306      117.593       89.935       56.509    13828.216     8088.215     3193.301        3.646        1.255      218.591       28.709        0.017      342.784       18.432      858.176
06/25/2013  08:51:00       -6.181     -132.457       20.369       76.132       96.521       62.393     5796.060     9316.365     3892.941        1.850        0.950      132.601       57.301        0.187      342.820       18.495      858.164
06/25/2013  08:52:00      110.111     -147.481        6.184      132.950      178.590       88.448    17675.723    31894.293     7823.068        4.564        2.870      184.051      100.523        0.298      342.779       18.426      858.179
06/25/2013  08:53:00      135.032     -351.435        1.516      188.573      171.103      110.643    35559.644    29276.112    12241.785       10.940        3.854      376.485       74.835        0.040      342.685       18.265      858.158
06/25/2013  08:54:00      -16.279     -132.004       58.673      135.102      200.968      131.404    18252.583    40388.324    17267.125        4.851        3.795      133.004      141.709        1.135      342.729       18.339      858.166
06/25/2013  08:55:00       36.484      -38.179       59.494       70.684      115.897       76.149     4996.269    13432.109     5798.648        1.527        1.211       52.808       58.037        1.208      342.846       18.540      858.184
06/25/2013  08:56:00       41.731     -131.816       16.823      135.909      127.941       86.114    18471.305    16368.955     7415.548        3.082        2.113      138.264       73.848        0.285      342.820       18.494      858.191
06/25/2013  08:57:00      -10.441      -73.170      -19.014       82.012       83.537       55.749     6725.978     6978.403     3107.903        1.132        0.841       73.912       44.462        0.362      342.746       18.371      858.187
06/25/2013  08:58:00      -56.599     -146.433       21.265      114.514      105.634       53.326    13113.376    11158.465     2843.702        2.610        1.356      156.991       47.661        0.092      342.811       18.480      858.246
06/25/2013  08:59:00      -17.323     -323.374      -11.701      194.747      231.162       95.375    37926.525    53435.719     9096.454       10.271        5.023      323.838       99.537        0.094      342.694       18.279      858.235
06/25/2013  09:00:00        5.769     -218.175       -5.275      156.323      155.629       93.280    24437.031    24220.274     8701.077        5.250        2.868      218.251       76.190        0.122      342.719       18.321      858.181
06/25/2013  09:01:00        1.269      -65.627       29.010       81.039       95.948       55.669     6567.243     9206.070     3099.012        1.201        0.944       65.639       46.558        0.503      342.846       18.541      858.215
06/25/2013  09:02:00      190.161     -273.810      -30.650      226.370      196.724       86.240    51243.422    38700.490     7437.400       10.471        4.869      333.367       96.885        0.084      342.750       18.376      858.208
06/25/2013  09:03:00       -9.128     -126.897       12.693      105.903       91.571       65.476    11215.440     8385.172     4287.164        2.011        1.194      127.225       61.743        0.236      342.809       18.475      858.206
06/25/2013  09:04:00      -42.757     -121.039      -14.552       99.134      153.707       55.167     9827.514    23625.782     3043.419        2.659        1.825      128.369       48.266        0.141      342.838       18.527      858.233
06/25/2013  09:05:00       -0.389      -54.260       29.341      110.678       91.572       52.599    12249.540     8385.512     2766.647        1.360        1.170       54.261       51.418        0.898      342.950       18.720      858.219
06/25/2013  09:06:00      -33.113      -79.372        1.603      135.080      109.639       62.407    18246.682    12020.653     3894.592        2.077        1.708       86.002       56.804        0.436      342.952       18.721      858.226
06/25/2013  09:07:00        8.594     -164.911      -17.260      149.224      199.316       62.446    22267.852    39726.733     3899.471        4.672        3.295      165.135       86.397        0.274      342.903       18.637      858.194
06/25/2013  09:08:00       40.228     -150.588       15.440      145.406      174.980       66.761    21142.947    30618.108     4457.035        4.036        2.811      155.869       51.314        0.108      343.006       18.813      858.207
06/25/2013  09:09:00      -14.424      -93.266       40.006       82.338      118.119       62.425     6779.626    13951.980     3896.918        1.756        1.231       94.375       51.850        0.302      343.130       19.023      858.191
06/25/2013  09:10:00      -32.143     -264.008      -21.693      135.154      131.827       60.338    18266.724    17378.268     3640.632        5.524        1.964      265.958       29.036        0.012      342.979       18.766      858.237
06/25/2013  09:11:00      -35.348     -127.222       22.650      143.759      131.587       83.518    20666.738    17315.070     6975.268        3.144        2.248      132.041       72.682        0.303      343.109       18.988      858.198
06/25/2013  09:12:00       52.610     -156.374       28.630      126.713      183.528       74.673    16056.106    33682.573     5576.095        4.167        2.766      164.986       86.635        0.276      343.179       19.107      858.191
06/25/2013  09:13:00      106.026     -237.378      -29.649      129.569      177.604       91.024    16788.018    31543.025     8285.427        6.253        2.831      259.981       79.519        0.094      343.163       19.078      858.193
06/25/2013  09:14:00       93.586     -220.414        4.655      135.280      149.275       72.991    18300.643    22283.140     5327.664        5.163        2.296      239.460       72.109        0.091      343.116       18.999      858.168
06/25/2013  09:15:00      -14.184     -263.531       -1.463      134.013      148.097       91.651    17959.616    21932.598     8399.894        5.896        2.415      263.913       84.575        0.103      343.022       18.837      858.192
06/25/2013  09:16:00       33.857     -125.760       59.384      139.852      126.521       73.896    19558.700    16007.480     5460.660        3.075        2.051      130.238       48.778        0.140      343.122       19.008      858.173
06/25/2013  09:17:00      -12.077      -87.914       31.017       84.450       81.526       46.023     7131.827     6646.467     2118.071        1.236        0.795       88.740       37.112        0.175      343.274       19.270      858.194
06/25/2013  09:18:00        3.026      -80.846        9.558       76.575       85.933       61.111     5863.760     7384.397     3734.513        1.181        0.849       80.902       56.396        0.486      343.299       19.312      858.160
06/25/2013  09:19:00       87.114     -140.786       15.856      168.965      152.339       86.769    28549.306    23207.065     7528.824        4.346        2.964      165.558       80.333        0.235      343.194       19.132      858.149
06/25/2013  09:20:00      185.432     -281.829      -34.909      120.208      177.603      109.631    14449.967    31542.747    12018.953        8.651        2.901      337.361      100.193        0.088      343.141       19.040      858.145
06/25/2013  09:21:00      -37.687       -9.478       34.720       59.193       72.817       60.907     3503.761     5302.363     3709.662        0.761        0.626       38.860       46.336        1.422      343.283       19.286      858.153
06/25/2013  09:22:00       -6.526        7.219       15.867       59.922       74.828       48.013     3590.666     5599.248     2305.283        0.592        0.575        9.732       46.661       22.988      343.338       19.379      858.134
06/25/2013  09:23:00      -55.222     -231.377       -4.757      132.746      166.504       66.255    17621.562    27723.713     4389.777        5.316        2.487      237.875       55.757        0.055      343.216       19.169      858.149
06/25/2013  09:24:00       99.051     -232.211      -10.285      118.893      128.920       73.176    14135.483    16620.492     5354.707        4.997        1.806      252.454       68.862        0.074      343.218       19.172      858.126
06/25/2013  09:25:00      -25.324     -109.017       23.856       77.439      138.327       77.175     5996.772    19134.476     5955.946        2.209        1.554      111.920       74.938        0.448      343.359       19.413      858.103
06/25/2013  09:26:00        3.434     -143.892        8.839      120.970       85.361       54.336    14633.767     7286.491     2952.378        2.283        1.244      143.933       35.343        0.060      343.376       19.442      858.106
06/25/2013  09:27:00       -8.056     -135.099       28.524       78.413      164.682       73.825     6148.564    27120.196     5450.181        2.892        1.936      135.339       98.941        0.534      343.475       19.611      858.121
06/25/2013  09:28:00      -57.932     -234.821        2.124      113.846      103.490       75.438    12960.900    10710.198     5690.873        4.393        1.468      241.862       60.627        0.063      343.360       19.413      858.187
06/25/2013  09:29:00       42.874     -190.278        5.699      122.212      127.711       63.249    14935.699    16310.182     4000.425        3.665        1.762      195.049       54.833        0.079      343.431       19.535      858.190
06/25/2013  09:30:00      -76.593     -178.879        8.438      116.652      162.791       88.170    13607.760    26501.053     7774.003        4.290        2.394      194.588      101.236        0.271      343.385       19.457      858.180
06/25/2013  09:31:00       29.734     -140.844        8.516      111.443      125.714       51.659    12419.455    15803.981     2668.683        2.584        1.545      143.948       26.134        0.033      343.502       19.657      858.182
06/25/2013  09:32:00       37.381     -120.706        1.879       78.097       99.607       57.500     6099.138     9921.547     3306.211        1.765        0.966      126.362       59.838        0.224      343.677       19.955      858.182
06/25/2013  09:33:00      118.821     -303.071       -6.616      198.637      229.055       91.295    39456.473    52466.162     8334.868       10.312        5.013      325.531      101.847        0.098      343.293       19.300      858.201
06/25/2013  09:34:00      -51.442     -240.730       -1.910      107.824      177.788       77.566    11626.073    31608.740     6016.532        5.492        2.463      246.165       74.899        0.093      343.332       19.364      858.179
06/25/2013  09:35:00       54.122     -311.236       -9.007      150.251      153.601       69.844    22575.477    23593.246     4878.169        7.545        2.552      315.906       59.844        0.036      343.248       19.222      858.214
06/25/2013  09:36:00       57.433     -151.741        4.711       93.868       96.791       75.141     8811.124     9368.407     5646.215        2.508        1.191      162.246       59.401        0.134      343.505       19.664      858.258
06/25/2013  09:37:00       10.400     -116.939       44.704       79.577      126.018       80.381     6332.529    15880.441     6461.103        2.222        1.434      117.401       70.521        0.361      343.563       19.761      858.253
06/25/2013  09:38:00      -31.268      -43.814       33.061       82.855       87.244       49.245     6864.928     7611.562     2425.026        1.044        0.845       53.827       35.352        0.431      343.692       19.982      858.268
06/25/2013  09:39:00       -3.659     -136.508       13.582      100.538      121.176       67.684    10107.797    14683.716     4581.087        2.410        1.469      136.557       56.873        0.173      343.526       19.700      858.308
06/25/2013  09:40:00      128.358     -175.609       27.872      133.461      201.704      106.801    17811.909    40684.522    11406.549        5.898        3.495      217.519      122.217        0.316      343.205       19.149      858.311
06/25/2013  09:41:00       53.972     -232.899       12.511      187.683      182.130      133.629    35225.080    33171.436    17856.776        7.177        4.313      239.071      118.799        0.247      343.250       19.225      858.291
06/25/2013  09:42:00      106.297     -201.403       29.387      122.663      167.995       91.166    15046.234    28222.294     8311.243        5.214        2.579      227.732       97.373        0.183      343.261       19.247      858.315
06/25/2013  09:43:00      -40.074     -217.455       -3.508      112.880      129.587       69.424    12741.813    16792.842     4819.666        4.162        1.718      221.117       53.473        0.058      343.245       19.217      858.347
06/25/2013  09:44:00        9.283     -389.183        2.040      175.945      255.312      109.738    30956.484    65184.223    12042.476       12.985        5.409      389.294      107.779        0.077      343.094       18.960      858.414
06/25/2013  09:45:00      -71.317     -259.015       -0.000      149.948      148.300       69.145    22484.473    21992.857     4781.029        6.071        2.463      268.654       53.798        0.040      343.058       18.900      858.427
06/25/2013  09:46:00      -31.410     -152.802       31.833      168.742      161.470       89.635    28473.786    26072.614     8034.506        4.395        3.129      155.997       90.295        0.335      343.111       18.990      858.429
06/25/2013  09:47:00      -68.747     -156.633      -13.304       83.986      158.059       51.485     7053.574    24982.765     2650.738        3.206        1.734      171.056       32.932        0.037      343.098       18.969      858.427
06/25/2013  09:48:00      -34.906     -142.969        5.059       80.071      126.625       68.362     6411.332    16033.846     4673.404        2.440        1.356      147.168       70.605        0.230      343.285       19.288      858.397
06/25/2013  09:49:00      -29.424     -255.845       -0.406      152.558      200.765       86.480    23273.893    40306.733     7478.811        6.868        3.553      257.531       77.365        0.090      343.205       19.150      858.403
06/25/2013  09:50:00       31.349     -255.961      -23.711      117.313      167.641       95.593    13762.325    28103.401     9137.944        5.902        2.550      257.873       82.581        0.103      343.134       19.028      858.422
06/25/2013  09:51:00     -104.830     -327.809      -22.223      125.071      118.969       62.380    15642.810    14153.741     3891.304        7.631        1.684      344.163       50.362        0.021      343.062       18.905      858.403
06/25/2013  09:52:00       12.297     -251.883      -12.750      179.539      189.439       88.005    32234.322    35886.971     7744.850        6.980        3.793      252.183       72.515        0.083      343.056       18.897      858.411
06/25/2013  09:53:00      -26.442      -68.058       31.423       84.487       89.490       60.955     7138.025     8008.459     3715.511        1.259        0.943       73.015       45.727        0.392      343.233       19.199      858.416
06/25/2013  09:54:00       -0.127      -54.588       19.893       83.597       64.405       58.348     6988.497     4148.007     3404.484        0.896        0.727       54.588       28.847        0.279      343.250       19.229      858.383
06/25/2013  09:55:00       22.919      -48.310       27.175       75.930       76.978       42.988     5765.415     5925.576     1847.974        0.857        0.677       53.471       47.954        0.804      343.471       19.606      858.395
06/25/2013  09:56:00      -55.186      -30.405        2.129       56.130       54.928       24.871     3150.538     3017.114      618.567        0.538        0.339       63.007       13.918        0.049      343.451       19.572      858.417
06/25/2013  09:57:00     -132.414      -80.162       22.308      113.352       79.115       58.333    12848.576     6259.159     3402.686        2.348        1.126      154.788       55.278        0.128      343.429       19.533      858.448
06/25/2013  09:58:00      -16.314      -62.488       23.121       48.013       65.571       41.184     2305.217     4299.549     1696.137        0.650        0.415       64.583       18.843        0.085      343.695       19.987      858.453
06/25/2013  09:59:00      -27.647       -2.204       20.955       59.860       57.526       32.042     3583.274     3309.298     1026.671        0.456        0.396       27.735       26.260        0.897      343.831       20.219      858.416
06/25/2013  10:00:00      -34.624      -21.649       24.671       57.845       45.844       35.306     3345.992     2101.679     1246.532        0.448        0.335       40.835       36.488        0.798      343.925       20.381      858.407
06/25/2013  10:01:00       -0.687     -170.523      -28.311      107.842       93.073       64.550    11629.870     8662.588     4166.652        2.716        1.223      170.524       61.242        0.129      343.709       20.010      858.404
06/25/2013  10:02:00       -6.146     -129.048        2.680       84.944      106.374       59.871     7215.432    11315.362     3584.592        1.940        1.106      129.194       51.851        0.161      343.643       19.897      858.438
06/25/2013  10:03:00      -12.230     -195.601      -24.304      112.164      107.262       45.950    12580.809    11505.036     2111.441        3.259        1.310      195.983       33.145        0.029      343.452       19.570      858.420
06/25/2013  10:04:00       -7.305      -98.004       20.899      111.541      106.013       65.651    12441.500    11238.731     4310.037        1.904        1.400       98.276       64.168        0.426      343.641       19.895      858.405
06/25/2013  10:05:00      -17.956     -119.730       26.524       81.212      108.791       68.458     6595.329    11835.522     4686.513        1.923        1.156      121.069       49.374        0.166      343.678       19.958      858.404
06/25/2013  10:06:00      -93.283      -92.759        3.253       95.194       79.010       44.284     9061.900     6242.560     1961.055        1.729        0.863      131.552       43.408        0.109      343.601       19.826      858.421
06/25/2013  10:07:00      -30.164     -158.684        1.486       81.034       84.038       53.570     6566.485     7062.345     2869.743        2.129        0.825      161.526       45.547        0.080      343.526       19.697      858.434
06/25/2013  10:08:00      -51.072     -100.114        4.835       81.123       87.604       66.451     6580.898     7674.387     4415.743        1.566        0.934      112.388       59.941        0.284      343.787       20.143      858.417
06/25/2013  10:09:00      -73.694     -262.211       -4.352      134.270      110.728       69.765    18028.519    12260.671     4867.210        5.467        1.758      272.370       55.995        0.042      343.592       19.809      858.456
06/25/2013  10:10:00      -81.137     -187.231      -12.293       83.095      101.323       53.881     6904.799    10266.415     2903.121        3.093        1.004      204.056       33.822        0.027      343.648       19.905      858.473
06/25/2013  10:11:00      -34.741     -137.420        0.630       95.269       84.893       56.368     9076.105     7206.821     3177.351        1.977        0.973      141.744       32.440        0.052      343.791       20.151      858.517
06/25/2013  10:12:00       15.919     -223.929      -21.305       95.172      112.889       71.311     9057.705    12743.988     5085.217        3.886        1.344      224.495       57.580        0.066      343.824       20.205      858.500
06/25/2013  10:13:00       -5.524      -91.716        3.011       86.694       83.852       56.434     7515.873     7031.187     3184.812        1.309        0.887       91.882       23.435        0.065      343.978       20.471      858.471
06/25/2013  10:14:00      -32.433     -158.811        5.819      122.219      131.668       85.622    14937.571    17336.397     7331.212        3.295        1.980      162.089       78.268        0.233      343.999       20.504      858.441
06/25/2013  10:15:00     -105.260      -33.523       19.594      144.147       99.118       69.700    20778.469     9824.304     4858.066        2.402        1.773      110.469       61.131        0.306      344.027       20.553      858.456
06/25/2013  10:16:00       33.848     -270.750       -6.185      105.488      147.041       71.119    11127.788    21621.047     5057.901        5.614        1.890      272.858       69.448        0.065      343.880       20.301      858.495
06/25/2013  10:17:00      -18.391     -138.625       -9.208       62.515      134.001       50.074     3908.185    17956.210     2507.449        2.200        1.219      139.839       42.198        0.091      344.035       20.567      858.483
06/25/2013  10:18:00       10.840      -43.772       14.294       84.802       84.706       52.773     7191.325     7175.092     2784.963        0.969        0.858       45.094       60.252        1.785      344.315       21.046      858.450
06/25/2013  10:19:00       -0.332      -17.303       36.708       51.114       75.957       58.714     2612.615     5769.447     3447.344        0.674        0.591       17.306       29.893        2.984      344.509       21.379      858.410
06/25/2013  10:20:00      -29.705      -83.291       27.854      128.245       92.311       64.590    16446.698     8521.357     4171.825        1.886        1.457       88.430       63.291        0.512      344.247       20.927      858.390
06/25/2013  10:21:00       -5.367       -6.941       40.074       38.559       59.538       41.182     1486.800     3544.831     1695.949        0.420        0.336        8.774       29.038       10.954      344.792       21.861      858.389
06/25/2013  10:22:00      -43.644       -4.125       42.313       45.190       59.205       32.889     2042.120     3505.204     1081.669        0.517        0.331       43.838       36.714        0.701      344.809       21.890      858.396
06/25/2013  10:23:00      -78.015      -41.305       -1.006       85.161       62.514       36.177     7252.405     3908.030     1308.747        1.013        0.623       88.275       37.786        0.183      344.497       21.358      858.422
06/25/2013  10:24:00      -46.733        2.518       23.661       92.069       75.250       46.065     8476.660     5662.584     2121.971        0.950        0.813       46.801       38.964        0.693      344.386       21.168      858.439
06/25/2013  10:25:00       29.359     -135.837        1.354      118.082       95.099       61.520    13943.449     9043.740     3784.699        2.304        1.339      138.973       42.966        0.096      344.342       21.091      858.476
06/25/2013  10:26:00      -49.101     -175.079       13.918      157.961      142.473       80.429    24951.825    20298.440     6468.761        4.248        2.586      181.834       69.383        0.146      344.229       20.899      858.510
06/25/2013  10:27:00      -27.431     -182.717      -21.140      167.388      135.487       81.269    28018.638    18356.712     6604.693        4.377        2.649      184.764       63.273        0.117      344.202       20.851      858.534
06/25/2013  10:28:00       54.157     -398.845      -28.177      175.212      178.938      101.895    30699.242    32018.847    10382.593       11.794        3.655      402.505       94.933        0.056      343.937       20.397      858.529
06/25/2013  10:29:00      -29.538     -175.450       22.532      110.685      204.078       69.426    12251.059    41647.779     4819.920        4.543        2.936      177.919       77.162        0.188      344.126       20.722      858.545
06/25/2013  10:30:00       29.974     -133.408        2.821       95.566       99.299       59.374     9132.825     9860.316     3525.292        2.061        1.126      136.734       52.253        0.146      344.393       21.178      858.548
06/25/2013  10:31:00       55.727     -120.172       10.864      106.460       88.386       51.346    11333.797     7812.079     2636.405        1.972        1.089      132.464       48.545        0.134      344.339       21.085      858.571
06/25/2013  10:32:00     -139.554      -76.861       -2.591       74.681       67.330       39.402     5577.268     4533.327     1552.480        1.852        0.583      159.320       39.464        0.061      344.311       21.038      858.599
06/25/2013  10:33:00     -152.003     -138.787      -13.720       95.065       75.735       48.622     9037.336     5735.791     2364.097        2.984        0.857      205.832       34.531        0.028      344.211       20.866      858.614
06/25/2013  10:34:00     -305.563     -208.364       -5.547      108.886      107.670       63.452    11856.071    11592.820     4026.128        8.214        1.374      369.844       65.147        0.031      343.993       20.495      858.630
06/25/2013  10:35:00     -149.507      -83.020        6.970      106.059       82.451       54.466    11248.461     6798.097     2966.571        2.515        1.051      171.010       47.219        0.076      344.297       21.013      858.646
06/25/2013  10:36:00     -246.918      -63.261        1.987      121.759      109.922       55.598    14825.306    12082.832     3091.091        4.748        1.500      254.893       56.990        0.050      344.270       20.967      858.662
06/25/2013  10:37:00     -129.348     -113.385       12.326      129.300       85.721       57.211    16718.619     7348.037     3273.075        2.853        1.367      172.009       61.978        0.130      344.231       20.901      858.682
06/25/2013  10:38:00     -117.693     -180.434       -5.159      164.956      116.912       59.432    27210.514    13668.419     3532.190        4.541        2.221      215.425       72.852        0.114      344.084       20.651      858.707
06/25/2013  10:39:00     -178.330     -148.009        8.743      174.061       98.554       69.951    30297.308     9712.798     4893.177        4.934        2.245      231.750       49.374        0.045      344.053       20.596      858.692
06/25/2013  10:40:00      -23.676     -116.874       15.368      110.650       80.704       46.849    12243.515     6513.194     2194.837        1.770        1.048      119.248       44.149        0.137      344.294       21.010      858.724
06/25/2013  10:41:00      -30.824      -89.476       -9.272       98.024      105.547       49.889     9608.709    11140.243     2488.940        1.614        1.162       94.637       48.231        0.260      344.416       21.217      858.717
06/25/2013  10:42:00      -38.773     -125.418       -4.269       82.756      107.791       45.993     6848.616    11618.980     2115.315        1.891        1.029      131.275       35.552        0.073      344.317       21.050      858.756
06/25/2013  10:43:00       11.878     -284.609      -30.187      114.900      182.444       76.914    13202.012    33285.876     5915.837        6.722        2.620      284.857       48.932        0.030      344.116       20.705      858.769
06/25/2013  10:44:00       25.353     -263.556      -16.693      153.785      160.537       75.792    23649.913    25772.127     5744.469        6.276        2.758      264.773       74.026        0.078      344.186       20.824      858.787
06/25/2013  10:45:00      -30.910     -104.106        9.479       74.736      112.319       61.082     5585.436    12615.562     3730.983        1.690        1.097      108.598       58.718        0.292      344.222       20.887      858.795
06/25/2013  10:46:00       91.818     -174.524       -0.158      104.046      125.096       69.931    10825.497    15649.070     4890.413        3.512        1.568      197.204       68.960        0.122      344.204       20.855      858.764
06/25/2013  10:47:00       -2.002      -74.547       21.757       53.778       91.719       60.983     2892.059     8412.365     3718.902        1.053        0.751       74.574       48.633        0.425      344.265       20.961      858.734
06/25/2013  10:48:00       52.990     -176.198      -10.338      160.305      205.361      114.558    25697.832    42173.341    13123.595        5.746        4.050      183.994      103.795        0.318      343.959       20.435      858.729
06/25/2013  10:49:00       65.474     -202.628       -1.855      154.085      178.578       91.927    23742.044    31890.219     8450.605        5.470        3.204      212.943       95.552        0.201      343.852       20.253      858.730
06/25/2013  10:50:00      123.104     -187.428        8.043      128.171      167.509       90.065    16427.843    28059.220     8111.788        5.146        2.630      224.240      102.691        0.210      343.795       20.156      858.730
06/25/2013  10:51:00       88.068      -92.068       21.891      129.779      140.474       61.852    16842.582    19733.007     3825.646        2.855        2.020      127.407       71.050        0.311      344.079       20.639      858.722
06/25/2013  10:52:00      -18.111     -142.724        3.112       85.483       98.522       56.399     7307.352     9706.631     3180.795        2.045        1.010      143.868       51.898        0.130      344.128       20.726      858.735
06/25/2013  10:53:00      -18.440      -99.256        9.888       65.327       87.928       46.737     4267.669     7731.289     2184.328        1.223        0.709      100.955       39.916        0.156      344.330       21.071      858.786
06/25/2013  10:54:00      -59.273      -83.643        4.166       71.876       56.479       48.624     5166.101     3189.834     2364.279        1.062        0.536      102.516       37.780        0.136      344.465       21.302      858.837
06/25/2013  10:55:00      -35.114     -223.890       14.327      109.957      184.786       65.182    12090.509    34145.934     4248.634        5.102        2.524      226.627       47.295        0.044      344.420       21.225      858.867
06/25/2013  10:56:00       24.502      -57.907       45.612       87.016      118.251       83.084     7571.734    13983.191     6902.923        1.724        1.423       62.878       64.575        1.055      344.330       21.072      858.870
06/25/2013  10:57:00      -56.361     -120.073       22.568      116.926       84.133       66.307    13671.632     7078.366     4396.630        2.162        1.257      132.643       40.769        0.094      344.257       20.946      858.890
06/25/2013  10:58:00      -97.821      -38.584        3.357      100.124       94.435       52.083    10024.904     8917.986     2712.644        1.636        1.083      105.155       28.563        0.074      344.284       20.993      858.907
06/25/2013  10:59:00     -143.125     -143.915       -5.193      142.057      115.232       65.513    20180.166    13278.505     4291.975        3.948        1.888      202.969       67.036        0.109      343.940       20.403      858.855
06/25/2013  11:00:00     -191.428     -301.013      -13.461      155.508      186.993       62.257    24182.616    34966.473     3875.879        9.522        3.151      356.726       49.731        0.019      343.688       19.972      858.814
06/25/2013  11:01:00       -4.231     -104.850        9.684      110.589      116.489       62.354    12229.918    13569.778     3888.010        2.039        1.484      104.936       54.580        0.271      344.187       20.828      858.789
06/25/2013  11:02:00       56.769     -206.048      -28.726      119.274      106.388       81.433    14226.217    11318.390     6631.253        3.933        1.609      213.725       56.295        0.069      344.132       20.732      858.791
06/25/2013  11:03:00       67.522     -231.718      -31.026      115.394      121.571       62.214    13315.741    14779.601     3870.541        4.558        1.598      241.356       47.706        0.039      344.179       20.811      858.832
06/25/2013  11:04:00       45.585     -271.515      -16.055      121.348      143.327       69.052    14725.364    20542.583     4768.192        5.804        2.002      275.315       57.876        0.044      343.807       20.176      858.905
06/25/2013  11:05:00     -117.227     -133.366       -7.991      117.616       86.905       52.636    13833.562     7552.464     2770.531        2.787        1.208      177.563       41.569        0.055      344.000       20.506      858.924
06/25/2013  11:06:00      -30.362     -136.266       -1.645      106.535      179.258       69.224    11349.714    32133.473     4792.014        3.387        2.414      139.608       75.243        0.290      344.054       20.598      858.950
06/25/2013  11:07:00      -76.229     -105.687        5.655      104.778       92.953       49.433    10978.510     8640.303     2443.638        1.953        1.103      130.310       59.332        0.207      343.932       20.391      858.930
06/25/2013  11:08:00     -109.918      -58.813       12.247      113.033       77.790       56.706    12776.351     6051.309     3215.580        1.886        1.102      124.663       51.948        0.174      344.018       20.536      858.920
06/25/2013  11:09:00       -4.533      -99.566       -5.694       73.181       69.218       43.002     5355.478     4791.150     1849.160        1.098        0.600       99.669       35.678        0.128      344.089       20.661      858.922
06/25/2013  11:10:00      -80.353      -83.701        3.172       56.548       81.254       46.985     3197.632     6602.278     2207.577        1.274        0.600      116.027       28.462        0.060      344.065       20.618      858.895
06/25/2013  11:11:00      -51.906     -120.420       -5.478       79.824       81.385       51.381     6371.792     6623.468     2639.976        1.643        0.782      131.131       33.800        0.066      343.930       20.388      858.894
06/25/2013  11:12:00      -37.827     -128.663        7.127       77.825       82.155       41.812     6056.756     6749.465     1748.222        1.629        0.728      134.108       36.940        0.076      344.039       20.575      858.938
06/25/2013  11:13:00      -71.533      -78.258        6.166      112.839       77.184       58.483    12732.590     5957.420     3420.297        1.669        1.106      106.025       33.769        0.101      344.255       20.941      858.958
06/25/2013  11:14:00      -42.720     -156.594        4.920      108.567       94.003       63.041    11786.886     8836.480     3974.214        2.548        1.230      162.317       39.000        0.058      344.194       20.838      858.975
06/25/2013  11:15:00      -80.097     -206.774        0.955       80.538      129.424       63.939     6486.315    16750.559     4088.229        3.824        1.366      221.745       61.035        0.076      344.151       20.765      859.012
06/25/2013  11:16:00      -52.153      -77.374       17.649      107.280       66.615       44.320    11509.074     4437.616     1964.270        1.346        0.896       93.310       35.554        0.145      344.219       20.881      859.035
06/25/2013  11:17:00      -13.125      -65.849       14.996       77.693       69.917       41.092     6036.165     4888.448     1688.582        0.867        0.631       67.145       39.674        0.349      344.372       21.143      859.063
06/25/2013  11:18:00      -14.098      -95.795       31.342       98.881      122.924       64.862     9777.544    15110.350     4207.119        1.972        1.455       96.827       61.354        0.402      344.058       20.607      859.083
06/25/2013  11:19:00        4.321      -53.737       15.202       62.122       95.935       49.715     3859.158     9203.614     2471.576        0.933        0.777       53.911       53.418        0.982      344.118       20.711      859.067
06/25/2013  11:20:00        3.730      -60.847        9.539       58.919       53.791       48.103     3471.433     2893.495     2313.923        0.624        0.434       60.961       39.684        0.424      344.410       21.210      859.081
06/25/2013  11:21:00      -37.637     -115.998      -14.622      132.759       64.973       51.349    17625.056     4221.529     2636.676        1.978        1.224      121.951       38.900        0.102      343.885       20.310      859.092
06/25/2013  11:22:00     -180.835     -134.460        0.443      148.133       92.244       56.581    21943.457     8508.944     3201.395        4.221        1.683      225.346       47.847        0.045      343.870       20.285      859.116
06/25/2013  11:23:00     -311.173     -257.103       -7.088      149.788      114.286       70.388    22436.343    13061.246     4954.452       10.171        2.023      403.647       72.674        0.032      343.682       19.961      859.123
06/25/2013  11:24:00     -283.415     -230.969       -9.965      171.974      102.286       62.618    29575.087    10462.380     3920.996        8.886        2.198      365.611       70.069        0.037      343.718       20.024      859.132
06/25/2013  11:25:00     -258.997     -155.669      -11.050      109.688      111.840       58.064    12031.532    12508.168     3371.448        5.967        1.396      302.180       50.759        0.028      343.740       20.062      859.129
06/25/2013  11:26:00     -327.272     -133.841      -17.366      157.396      106.636       66.536    24773.346    11371.150     4427.043        8.294        2.029      353.582       67.737        0.037      343.785       20.139      859.127
06/25/2013  11:27:00     -268.407      -58.816        8.397      148.144      104.442       64.155    21946.646    10908.227     4115.906        5.626        1.849      274.775       70.415        0.066      343.802       20.168      859.119
06/25/2013  11:28:00     -360.748      -63.169       -9.506      137.581      147.119       67.801    18928.551    21644.024     4596.983        8.969        2.258      366.237       78.714        0.046      343.617       19.851      859.128
06/25/2013  11:29:00     -178.128      -64.867       17.396      107.307       95.198       62.946    11514.767     9062.693     3962.141        3.039        1.227      189.572       64.854        0.117      343.690       19.977      859.121
06/25/2013  11:30:00     -184.573      -39.014        7.609      118.281       83.864       53.264    13990.460     7033.088     2837.061        2.975        1.193      188.651       62.325        0.109      343.823       20.204      859.117
06/25/2013  11:31:00     -149.530     -145.260       -5.148      124.963      104.099       52.806    15615.674    10836.659     2788.447        3.636        1.462      208.470       72.851        0.122      343.691       19.980      859.117
06/25/2013  11:32:00      -36.319      -59.450       12.807       49.100       53.343       29.972     2410.789     2845.475      898.326        0.558        0.308       69.666       24.106        0.120      344.056       20.603      859.110
06/25/2013  11:33:00     -219.988     -194.382      -12.807       97.035       95.088       61.417     9415.748     9041.711     3772.029        5.428        1.111      293.563       62.865        0.046      343.877       20.296      859.132
06/25/2013  11:34:00     -120.501      -82.922       15.869      128.004       90.127       50.631    16385.056     8122.843     2563.530        2.435        1.354      146.275       60.155        0.169      344.259       20.950      859.121
06/25/2013  11:35:00      -67.696      -84.062        5.175       67.959       56.174       42.859     4618.395     3155.527     1836.853        1.064        0.481      107.932       26.333        0.060      344.414       21.216      859.150
06/25/2013  11:36:00      -16.589     -110.137       -3.763      165.632      113.660       62.758    27433.984    12918.530     3938.599        2.835        2.215      111.379       60.502        0.295      344.465       21.302      859.174
06/25/2013  11:37:00      -91.131      -76.710       26.923      148.785       93.106       54.081    22136.899     8668.705     2924.794        2.432        1.687      119.118       59.652        0.251      344.364       21.130      859.185
06/25/2013  11:38:00     -130.447     -201.548        3.162      124.631      165.984       66.502    15532.997    27550.841     4422.569        5.257        2.375      240.080       75.973        0.100      344.128       20.725      859.230
06/25/2013  11:39:00      -71.156     -226.454      -50.662      128.938      170.137       84.415    16624.887    28946.522     7125.811        5.579        2.635      237.370       53.496        0.051      344.089       20.656      859.246
06/25/2013  11:40:00        8.949     -116.454       -2.642       64.845      125.732       59.118     4204.845    15808.557     3494.994        1.857        1.175      116.797       60.498        0.268      344.069       20.624      859.263
06/25/2013  11:41:00      -93.028       -8.657        6.283       61.951       69.731       41.695     3837.916     4862.390     1738.485        0.960        0.522       93.430       35.544        0.145      344.048       20.590      859.234
06/25/2013  11:42:00     -161.192      -93.102       16.419      115.186       98.673       55.634    13267.865     9736.334     3095.177        3.050        1.305      186.147       41.890        0.051      344.185       20.823      859.280
06/25/2013  11:43:00      -96.555     -111.212       22.614      130.864       91.204       61.901    17125.498     8318.128     3831.795        2.573        1.464      147.279       57.327        0.152      344.031       20.559      859.331
06/25/2013  11:44:00      -78.795     -177.965        6.904      162.494      152.984       61.866    26404.165    23403.988     3827.460        4.577        2.682      194.629       52.122        0.072      343.805       20.172      859.371
06/25/2013  11:45:00     -131.718     -203.949        0.146      110.010      156.926       66.691    12102.172    24625.770     4447.720        5.005        2.059      242.786       61.010        0.063      343.662       19.929      859.389
06/25/2013  11:46:00     -209.946     -110.880        0.568      106.324       88.114       49.940    11304.768     7764.001     2493.964        3.896        1.078      237.427       54.111        0.052      343.679       19.957      859.337
06/25/2013  11:47:00     -226.664     -157.651       -1.910      152.016      135.959       65.363    23108.923    18484.725     4272.383        6.104        2.293      276.099       70.016        0.064      343.733       20.050      859.306
06/25/2013  11:48:00     -175.911     -129.060      -12.859      151.781       90.697       55.533    23037.323     8225.928     3083.917        4.105        1.717      218.177       37.174        0.029      343.752       20.083      859.329
06/25/2013  11:49:00      -76.452      -72.105       -6.981       48.838       36.840       35.041     2385.116     1357.160     1227.841        0.803        0.249      105.091       21.605        0.042      343.837       20.229      859.344
06/25/2013  11:50:00       23.789        2.511       29.287       46.106       40.682       37.071     2125.737     1655.030     1374.228        0.329        0.258       23.921       24.219        1.025      344.171       20.801      859.362
06/25/2013  11:51:00      -31.091      -29.746       14.147       71.443       36.793       31.150     5104.170     1353.752      970.330        0.474        0.371       43.029       22.285        0.268      344.347       21.102      859.408
06/25/2013  11:52:00     -114.560      -92.389       -7.128      105.610       75.710       50.894    11153.512     5732.075     2590.194        2.059        0.974      147.172       42.460        0.083      343.936       20.398      859.458
06/25/2013  11:53:00      -82.953      -96.839        0.756       99.105       81.595       62.500     9821.782     6657.739     3906.189        1.832        1.019      127.511       57.528        0.204      344.000       20.507      859.469
06/25/2013  11:54:00       30.828     -243.647      -12.434       84.363      100.286       55.141     7117.122    10057.313     3040.481        4.034        1.011      245.590       47.620        0.038      343.694       19.983      859.496
06/25/2013  11:55:00      -31.330      -84.570      -19.047       51.630       53.947       35.311     2665.636     2910.242     1246.862        0.766        0.341       90.187       27.327        0.092      343.893       20.326      859.479
06/25/2013  11:56:00      -96.577      -91.809       -1.501       73.305       92.990       44.207     5373.679     8647.153     1954.289        1.686        0.799      133.251       52.684        0.156      344.093       20.666      859.475
06/25/2013  11:57:00     -104.997     -144.076       12.047      123.543       65.126       44.859    15262.935     4241.359     2012.367        2.672        1.076      178.275       48.108        0.073      343.926       20.380      859.465
06/25/2013  11:58:00      -43.826      -66.741       10.665       49.514       48.116       28.274     2451.672     2315.110      799.405        0.603        0.278       79.844       21.391        0.072      344.155       20.773      859.467
06/25/2013  11:59:00     -112.638     -134.640        1.104       72.422       90.118       53.890     5244.959     8121.245     2904.097        2.354        0.814      175.543       40.622        0.054      343.932       20.391      859.475
06/25/2013  12:00:00     -178.229     -101.478        5.009      139.500      100.146       56.194    19460.293    10029.178     3157.768        3.736        1.632      205.094       59.451        0.084      343.963       20.444      859.487
06/25/2013  12:01:00     -307.637     -123.963      -20.374      105.345       67.309       46.446    11097.572     4530.442     2157.263        6.410        0.889      331.674       39.529        0.014      343.855       20.257      859.514
06/25/2013  12:02:00      -92.303     -172.557       16.111       88.166      145.672       62.828     7773.241    21220.477     3947.365        3.574        1.647      195.694       62.622        0.102      343.957       20.432      859.577
06/25/2013  12:03:00     -173.957     -172.720        4.518       91.011      103.366       50.401     8283.051    10684.438     2540.267        4.081        1.075      245.139       50.839        0.043      343.781       20.132      859.623
06/25/2013  12:04:00     -177.730     -140.655       -5.028       90.217       73.108       50.423     8139.125     5344.757     2542.504        3.371        0.801      226.654       45.166        0.040      343.685       19.967      859.628
06/25/2013  12:05:00     -117.688     -131.504        6.698      140.039      114.320       60.006    19610.925    13069.100     3600.682        3.373        1.814      176.475       57.233        0.105      343.694       19.985      859.616
06/25/2013  12:06:00      -21.174      -45.592        5.398       57.236       59.723       36.896     3276.005     3566.834     1361.328        0.538        0.410       50.269       33.471        0.443      343.760       20.099      859.629
06/25/2013  12:07:00       27.281     -209.431       -6.381      108.920      103.555       54.566    11863.584    10723.721     2977.457        3.510        1.278      211.201       43.339        0.042      343.499       19.650      859.661
06/25/2013  12:08:00       17.421      -20.264       90.456       73.953      117.304       80.898     5469.088    13760.185     6544.557        1.733        1.289       26.723       83.445        9.751      343.549       19.738      859.654
06/25/2013  12:09:00        7.987        4.877       54.117       41.408      104.437       83.860     1714.603    10907.032     7032.441        1.133        0.983        9.358       88.231       88.888      343.313       19.336      859.654
06/25/2013  12:10:00     -101.283      -22.055        5.822       76.394       66.494       35.092     5836.018     4421.499     1231.433        1.113        0.574      103.657       35.275        0.116      343.417       19.514      859.693
06/25/2013  12:11:00     -221.859       18.861       -5.676       93.206       77.977       44.175     8687.302     6080.367     1951.440        3.316        0.836      222.659       38.418        0.030      343.237       19.205      859.705
06/25/2013  12:12:00     -149.544      -39.159        7.984      109.113      109.454       61.612    11905.721    11980.251     3795.985        2.582        1.384      154.586       62.091        0.161      343.344       19.388      859.708
06/25/2013  12:13:00     -202.336      -58.746        0.778      105.261       92.391       50.296    11079.945     8536.130     2529.719        3.326        1.107      210.692       50.123        0.057      343.396       19.474      859.731
06/25/2013  12:14:00     -194.917       17.522      -12.530       60.985       66.339       38.205     3719.206     4400.837     1459.646        2.402        0.479      195.703       33.448        0.029      343.300       19.311      859.727
06/25/2013  12:15:00     -109.650       10.172        3.534       64.058       57.243       34.669     4103.489     3276.723     1201.927        1.036        0.429      110.121       30.912        0.079      343.344       19.390      859.720
06/25/2013  12:16:00     -183.749       14.909       -3.726       58.379       47.366       35.538     3408.083     2243.522     1262.946        2.046        0.346      184.353       24.405        0.018      343.297       19.309      859.725
06/25/2013  12:17:00     -203.812      -21.702        2.535       80.870       76.666       40.431     6540.030     5877.719     1634.695        2.803        0.703      204.964       30.708        0.022      343.396       19.475      859.755
06/25/2013  12:18:00     -309.679      -37.399       -9.812      160.137       98.634       58.576    25643.860     9728.610     3431.187        6.809        1.940      311.929       76.085        0.059      343.294       19.299      859.783
06/25/2013  12:19:00     -243.058      -39.328       -5.600      138.084       79.308       37.427    19067.165     6289.722     1400.794        4.370        1.338      246.219       38.768        0.025      343.365       19.424      859.813
06/25/2013  12:20:00     -313.677       36.943      -17.903      118.083       86.639       58.340    13943.707     7506.345     3403.608        6.246        1.243      315.845       61.120        0.037      343.199       19.138      859.829
06/25/2013  12:21:00     -362.235      -40.025      -29.007       78.187       75.683       42.542     6113.224     5727.989     1809.817        7.365        0.683      364.440       41.181        0.013      343.122       19.009      859.814
06/25/2013  12:22:00     -253.674       -8.611      -22.837       73.064       63.453       41.856     5338.358     4026.229     1751.922        3.803        0.556      253.820       37.548        0.022      343.124       19.010      859.775
06/25/2013  12:23:00     -166.691      -24.245       -8.694       62.794       51.535       25.262     3943.131     2655.874      638.174        1.784        0.362      168.445       21.131        0.016      343.228       19.190      859.773
06/25/2013  12:24:00     -254.027        6.178      -26.142       58.340       37.175       26.618     3403.545     1381.945      708.530        3.537        0.275      254.102       26.798        0.011      343.177       19.100      859.816
06/25/2013  12:25:00     -228.611      -18.151      -17.793       72.674       67.315       45.076     5281.489     4531.339     2031.842        3.237        0.592      229.330       36.118        0.025      343.383       19.454      859.841
06/25/2013  12:26:00     -223.993      -73.010      -25.193       77.457       56.353       35.303     5999.656     3175.608     1246.276        3.328        0.521      235.592       17.045        0.005      343.306       19.321      859.879
06/25/2013  12:27:00     -225.705     -135.909       -0.495      110.703       77.343       52.051    12255.183     5982.001     2709.277        4.518        1.047      263.466       55.819        0.045      343.383       19.453      859.851
06/25/2013  12:28:00     -242.671     -109.841      -18.452       57.499       64.496       27.677     3306.108     4159.789      766.002        3.976        0.412      266.373       10.193        0.001      343.190       19.121      859.789
06/25/2013  12:29:00      -11.737      -78.371        5.566       40.113       59.180       24.130     1609.036     3502.236      582.253        0.600        0.285       79.245       27.478        0.120      343.334       19.372      859.772
06/25/2013  12:30:00     -169.956      -27.163      -15.632      104.575       61.892       43.623    10935.924     3830.618     1902.980        2.327        0.833      172.113       50.062        0.085      343.465       19.593      859.822
06/25/2013  12:31:00      -80.509      -25.283       -8.278       94.049       64.459       45.477     8845.132     4154.941     2068.171        1.113        0.753       84.385       38.231        0.205      343.669       19.942      859.850
06/25/2013  12:32:00      -58.929      -43.409        1.463       58.056       49.722       34.938     3370.483     2472.246     1220.674        0.621        0.353       73.191       28.699        0.154      343.859       20.267      859.807
06/25/2013  12:33:00     -180.553       28.113      -16.336       61.890       32.380       28.388     3830.395     1048.492      805.875        1.967        0.284      182.729       29.981        0.027      343.607       19.836      859.777
06/25/2013  12:34:00     -160.998      -46.599      -18.812       68.728       80.103       30.238     4723.537     6416.530      914.320        2.025        0.603      167.607       33.896        0.041      343.650       19.911      859.803
06/25/2013  12:35:00      -93.411     -195.697        9.014       96.088       99.250       45.996     9232.845     9850.655     2115.639        3.415        1.060      216.847       62.459        0.083      343.743       20.069      859.864
06/25/2013  12:36:00     -110.380     -158.174      -18.389       74.152       68.125       36.820     5498.458     4641.023     1355.699        2.452        0.575      192.880       23.515        0.015      343.779       20.129      859.832
06/25/2013  12:37:00        0.138     -118.754      -15.779       82.764       81.392       53.578     6849.858     6624.628     2870.595        1.535        0.817      118.754       39.501        0.111      344.162       20.784      859.762
06/25/2013  12:38:00      -44.966      -98.370       -4.962       78.205       68.636       52.034     6116.053     4710.938     2707.524        1.263        0.677      108.160       20.812        0.037      344.010       20.525      859.718
06/25/2013  12:39:00     -119.104     -103.309      -14.502       78.432       98.361       34.619     6151.557     9674.876     1198.451        2.104        0.851      157.666       29.609        0.035      343.621       19.858      859.717
06/25/2013  12:40:00     -105.852      -71.782       -2.808       95.762       70.159       33.349     9170.310     4922.239     1112.172        1.578        0.760      127.895       31.336        0.060      344.044       20.582      859.715
06/25/2013  12:41:00       -8.309      -45.198      -12.962       76.088       47.115       36.095     5789.443     2219.816     1302.850        0.579        0.466       45.955       30.211        0.432      344.063       20.617      859.727
06/25/2013  12:42:00      -18.226      -57.892       13.756       77.265       58.993       37.043     5969.808     3480.143     1372.206        0.735        0.541       60.694       34.631        0.326      344.137       20.742      859.688
06/25/2013  12:43:00      -18.401       -8.376       18.853       27.179       39.174       33.113      738.705     1534.571     1096.495        0.207        0.168       20.218       33.230        2.701      344.747       21.786      859.673
06/25/2013  12:44:00     -164.309      -66.347       -2.260       90.305       68.623       40.245     8155.037     4709.150     1619.693        2.294        0.724      177.199       34.336        0.038      344.028       20.553      859.663
06/25/2013  12:45:00     -142.983      -91.479       -8.366       60.301      100.149       41.517     3636.160    10029.748     1723.643        2.213        0.769      169.742       43.554        0.066      344.015       20.531      859.622
06/25/2013  12:46:00     -130.324      -76.404       19.703      114.298       81.841       51.496    13064.090     6697.915     2651.868        2.281        1.121      151.069       51.345        0.116      344.195       20.840      859.625
06/25/2013  12:47:00     -200.122      -82.160      -11.283       46.154       35.742       31.103     2130.199     1277.492      967.406        2.565        0.219      216.330       18.077        0.007      343.746       20.073      859.624
06/25/2013  12:48:00     -146.933      -31.407       -5.956       59.463       45.620       27.132     3535.871     2081.190      736.133        1.448        0.318      150.252       26.898        0.032      343.703       19.999      859.599
06/25/2013  12:49:00     -100.871      -49.262        8.687       66.715       87.476       41.603     4450.900     7652.047     1730.820        1.325        0.692      112.257       46.517        0.172      344.160       20.782      859.544
06/25/2013  12:50:00     -134.588      -50.436        8.013       59.614       42.030       30.606     3553.807     1766.496      936.698        1.349        0.313      143.728       25.582        0.032      344.198       20.845      859.519
06/25/2013  12:51:00     -129.078      -14.038       15.278      107.541       80.674       52.510    11565.026     6508.332     2757.316        1.896        1.042      129.839       49.783        0.147      344.516       21.388      859.485
06/25/2013  12:52:00     -101.329      -42.084        6.063       98.249       75.672       40.419     9652.927     5726.243     1633.672        1.454        0.851      109.720       48.174        0.193      344.651       21.621      859.471
06/25/2013  12:53:00     -149.815     -126.646       -7.910       62.151       84.907       35.752     3862.700     7209.160     1278.198        2.545        0.618      196.173       30.808        0.025      344.159       20.778      859.481
06/25/2013  12:54:00     -122.205      -10.454       -1.687       74.180       60.265       36.300     5502.730     3631.858     1317.658        1.275        0.523      122.651       28.798        0.055      344.332       21.074      859.445
06/25/2013  12:55:00      -22.641      -49.736       20.383       60.238       45.530       33.423     3628.587     2072.995     1117.120        0.511        0.341       54.647       26.419        0.234      344.789       21.857      859.403
06/25/2013  12:56:00     -269.199     -143.681       -9.297      144.595       84.351       57.593    20907.730     7115.124     3316.962        6.226        1.567      305.143       58.843        0.037      344.557       21.458      859.375
06/25/2013  12:57:00     -217.719     -137.969      -15.348      110.159      114.234       55.904    12135.069    13049.340     3125.312        4.749        1.415      257.754       54.597        0.045      344.773       21.828      859.334
06/25/2013  12:58:00      -59.637      -83.122       -8.869       55.267       84.307       35.382     3054.408     7107.750     1251.876        1.098        0.571      102.303       27.442        0.072      344.623       21.573      859.279
06/25/2013  12:59:00     -242.855     -185.415      -13.259      123.921       85.177       58.027    15356.353     7255.197     3367.124        5.975        1.299      305.544       54.492        0.032      344.597       21.527      859.273
06/25/2013  13:00:00      -27.769      -85.385       28.272       80.886       75.504       40.467     6542.504     5700.873     1637.597        1.137        0.694       89.787       39.712        0.196      344.901       22.050      859.238
06/25/2013  13:01:00     -184.344      -98.537        1.449      103.972       71.641       54.781    10810.133     5132.457     3000.966        3.132        0.947      209.027       45.292        0.047      345.001       22.216      859.206
06/25/2013  13:02:00     -125.631      -50.973        5.833      115.016       68.839       47.916    13228.603     4738.828     2295.963        1.934        1.013      135.578       53.728        0.157      345.325       22.773      859.177
06/25/2013  13:03:00      -97.460     -135.411      -10.840      106.693       90.793       43.772    11383.397     8243.319     1916.029        2.474        1.077      166.837       48.707        0.085      345.060       22.320      859.156
06/25/2013  13:04:00     -175.430      -54.978        7.279      143.626      107.574       52.692    20628.472    11572.171     2776.397        3.441        1.749      183.843       59.910        0.106      344.905       22.055      859.129
06/25/2013  13:05:00     -317.899      -94.808       -0.205      134.730      107.336       62.171    18152.141    11521.032     3865.254        7.179        1.677      331.735       68.875        0.043      344.615       21.555      859.108
06/25/2013  13:06:00     -313.494      -57.088        4.428      139.899      110.056       62.011    19571.615    12112.328     3845.356        6.854        1.776      318.649       64.535        0.041      344.823       21.912      859.092
06/25/2013  13:07:00     -306.469     -112.263       -1.617      108.476      113.580       54.084    11767.024    12900.520     2925.104        6.706        1.380      326.383       51.433        0.025      344.825       21.914      859.082
06/25/2013  13:08:00     -118.104       -0.317        7.335      105.221       74.033       51.201    11071.371     5480.829     2621.593        1.658        0.959      118.104       47.422        0.161      345.359       22.832      859.115
06/25/2013  13:09:00     -248.563     -138.903        1.597      118.862      102.421       53.174    14128.178    10490.090     2827.475        5.426        1.372      284.742       53.069        0.035      345.108       22.398      859.108
06/25/2013  13:10:00     -244.782     -205.016      -17.957      114.550      103.656       56.504    13121.726    10744.669     3192.723        6.466        1.353      319.296       60.001        0.035      345.129       22.437      859.127
06/25/2013  13:11:00     -186.602     -188.060       -9.809      120.646      125.277       67.605    14555.347    15694.241     4570.491        5.254        1.741      264.928       74.517        0.079      345.094       22.377      859.144
06/25/2013  13:12:00     -117.450      -72.838       22.141      100.112      105.783       51.021    10022.365    11189.946     2603.191        2.170        1.191      138.203       49.167        0.127      345.359       22.832      859.127
06/25/2013  13:13:00      -98.283     -144.868        6.843      104.060      114.116       46.199    10828.564    13022.390     2134.337        2.833        1.299      175.060       51.774        0.087      345.230       22.610      859.136
06/25/2013  13:14:00     -142.329     -119.731      -11.396      144.505       92.151       42.015    20881.615     8491.766     1765.290        3.292        1.557      185.992       59.735        0.103      344.955       22.139      859.133
06/25/2013  13:15:00     -254.088      -75.989      -22.830       91.492       85.164       43.783     8370.775     7252.887     1916.945        4.420        0.877      265.208       32.864        0.015      344.901       22.047      859.123
06/25/2013  13:16:00     -172.095      -61.476       -1.884      111.353       67.754       47.280    12399.485     4590.672     2235.385        2.631        0.961      182.746       37.675        0.043      345.195       22.550      859.102
06/25/2013  13:17:00     -104.326     -112.605       11.733      105.427       82.536       40.492    11114.911     6812.207     1639.571        2.163        0.978      153.505       30.661        0.040      345.198       22.555      859.129
06/25/2013  13:18:00     -120.776      -82.110        3.803      103.385       82.787       39.973    10688.405     6853.703     1597.823        2.024        0.957      146.044       48.446        0.110      345.227       22.605      859.149
06/25/2013  13:19:00      -86.102     -247.836       11.893       74.245      124.759       53.205     5512.381    15564.736     2830.751        4.644        1.195      262.367       39.262        0.022      344.996       22.208      859.148
06/25/2013  13:20:00      -87.909     -214.110        8.412       87.499      108.068       46.364     7656.093    11678.767     2149.581        3.756        1.074      231.454       41.074        0.031      345.174       22.512      859.113
06/25/2013  13:21:00     -128.141     -148.894       -7.271       97.965       93.704       59.809     9597.126     8780.515     3577.063        3.029        1.098      196.443       62.040        0.100      345.052       22.306      859.090
06/25/2013  13:22:00     -139.080     -118.729       -5.708       83.116       72.670       40.452     6908.312     5280.915     1636.391        2.365        0.691      182.866       44.115        0.058      345.146       22.465      859.078
06/25/2013  13:23:00     -189.462       23.982      -11.666       79.097       66.507       40.470     6256.278     4423.225     1637.795        2.446        0.616      190.974       41.898        0.048      344.928       22.092      859.092
06/25/2013  13:24:00     -104.761      -64.528       20.302       91.027       73.695       41.865     8285.985     5431.016     1752.664        1.551        0.773      123.040       36.887        0.090      345.312       22.750      859.124
06/25/2013  13:25:00     -260.111     -177.677        1.018       98.887       99.170       57.249     9778.639     9834.727     3277.505        6.105        1.145      315.003       50.641        0.026      344.908       22.057      859.146
06/25/2013  13:26:00     -194.731     -132.016      -15.665       78.832       56.071       35.180     6214.511     3144.010     1237.639        3.309        0.530      235.262       29.105        0.015      344.797       21.867      859.135
06/25/2013  13:27:00     -164.526     -109.256        0.171       74.525       94.147       50.302     5553.980     8863.685     2530.243        2.797        0.847      197.498       36.016        0.033      345.034       22.274      859.100
06/25/2013  13:28:00     -148.334     -222.522       16.544       97.165      125.351       57.487     9441.106    15712.900     3304.723        5.012        1.423      267.430       50.869        0.036      345.291       22.714      859.132
06/25/2013  13:29:00     -176.713      -60.397       28.460      135.650      107.159       54.538    18400.908    11483.050     2974.431        3.427        1.643      186.750       55.856        0.089      345.756       23.512      859.108
06/25/2013  13:30:00     -251.726     -183.732        1.545      151.009      125.714       75.463    22803.625    15804.123     5694.730        7.071        2.215      311.646       69.098        0.049      345.414       22.923      859.162
06/25/2013  13:31:00     -183.721     -169.334       13.519      150.739       99.238       80.523    22722.288     9848.263     6483.974        5.082        1.953      249.855       76.378        0.093      345.094       22.378      859.190
06/25/2013  13:32:00     -220.160     -143.581        5.875      132.351      119.817       72.130    17516.817    14356.011     5202.666        5.309        1.854      262.842       62.593        0.057      345.052       22.304      859.198
06/25/2013  13:33:00      -37.379     -101.389       16.908       81.223       73.652       48.914     6597.241     5424.635     2392.600        1.319        0.721      108.059       44.230        0.168      345.308       22.746      859.220
06/25/2013  13:34:00      -48.016      -95.994       16.351       93.717       63.313       49.461     8782.917     4008.539     2446.348        1.351        0.762      107.333       51.100        0.227      345.399       22.899      859.251
06/25/2013  13:35:00     -110.189     -149.193       12.175      150.922       80.338       54.676    22777.309     6454.187     2989.418        3.338        1.611      185.472       58.632        0.100      345.351       22.816      859.302
06/25/2013  13:36:00     -281.275     -177.811       13.906      175.866      127.000       81.086    30928.932    16128.985     6574.922        8.227        2.682      332.765       84.357        0.064      345.195       22.549      859.307
06/25/2013  13:37:00     -107.939     -225.897        7.053      112.229      123.735       52.829    12595.297    15310.392     2790.913        4.671        1.535      250.360       55.252        0.049      345.082       22.356      859.290
06/25/2013  13:38:00      -61.157     -182.163       17.602       84.753      110.221       62.200     7182.995    12148.575     3868.882        3.021        1.160      192.155       42.198        0.048      345.306       22.739      859.289
06/25/2013  13:39:00      -17.572     -132.443      -11.769       79.738       86.932       45.773     6358.120     7557.170     2095.175        1.700        0.801      133.604       41.226        0.095      345.404       22.909      859.241
06/25/2013  13:40:00      -83.189      -84.725       -1.813       49.162       42.694       29.671     2416.855     1822.812      880.368        0.961        0.256      118.739       14.992        0.016      345.430       22.956      859.200
06/25/2013  13:41:00      114.006     -178.379       12.135      100.457      153.024       78.337    10091.622    23416.214     6136.718        4.230        1.982      211.699       82.844        0.153      345.268       22.675      859.124
06/25/2013  13:42:00       37.252     -261.744      -21.652      124.024      156.504       58.644    15381.913    24493.658     3439.136        5.683        2.166      264.382       53.078        0.040      345.338       22.795      859.129
06/25/2013  13:43:00     -190.478     -112.130       -2.857       90.713       78.674       51.381     8228.821     6189.583     2640.054        3.296        0.853      221.032       54.013        0.060      345.328       22.775      859.185
06/25/2013  13:44:00      -21.783     -128.997       -1.475      127.779       78.654       52.501    16327.595     6186.464     2756.330        2.119        1.264      130.824       40.935        0.098      345.331       22.783      859.254
06/25/2013  13:45:00      -85.320     -197.893      -25.275      111.501       99.514       57.955    12432.418     9902.987     3358.756        3.638        1.285      215.502       44.296        0.042      345.180       22.525      859.247
06/25/2013  13:46:00      -67.939      -36.078       24.345      111.152       97.834       63.852    12354.833     9571.524     4077.030        1.625        1.300       76.924       64.311        0.699      345.125       22.431      859.229
06/25/2013  13:47:00      -80.787     -150.209       -5.708       72.697      120.055       46.149     5284.815    14413.287     2129.734        2.547        1.091      170.555       31.586        0.034      345.030       22.268      859.168
06/25/2013  13:48:00     -160.532     -148.334      -18.555      104.501       85.589       52.245    10920.382     7325.400     2729.538        3.454        1.049      218.571       43.099        0.039      345.065       22.328      859.150
06/25/2013  13:49:00     -176.531     -132.463       18.559      116.944      103.767       65.440    13675.907    10767.629     4282.406        3.888        1.436      220.702       55.359        0.063      345.217       22.587      859.170
06/25/2013  13:50:00     -111.575     -201.121       14.161       92.857       86.694       57.893     8622.355     7515.864     3351.577        3.629        0.974      229.997       40.669        0.031      345.215       22.582      859.192
06/25/2013  13:51:00      -42.500     -157.871      -13.660       95.164      109.538       58.978     9056.162    11998.551     3478.452        2.572        1.227      163.492       42.256        0.067      345.174       22.513      859.216
06/25/2013  13:52:00      -15.287     -110.843       14.001      107.032      115.824       60.458    11455.783    13415.136     3655.199        2.062        1.426      111.892       54.962        0.241      345.274       22.684      859.206
06/25/2013  13:53:00       52.210     -172.944        7.977       94.301      109.921       71.543     8892.612    12082.525     5118.379        2.939        1.305      180.653       54.646        0.092      345.298       22.726      859.196
06/25/2013  13:54:00      -18.730      -57.802       29.795       64.949       53.671       49.601     4218.377     2880.582     2460.223        0.707        0.478       60.761       30.715        0.256      345.483       23.047      859.199
06/25/2013  13:55:00      -27.084     -171.577       10.095      122.336       83.874       63.230    14965.982     7034.895     3998.055        2.813        1.300      173.702       37.213        0.046      345.315       22.754      859.199
06/25/2013  13:56:00       51.622     -159.283       20.961       96.103      108.117       62.809     9235.700    11689.187     3944.957        2.667        1.243      167.439       62.773        0.141      345.346       22.808      859.222
06/25/2013  13:57:00       75.188     -163.291       44.139      129.391      206.395      123.373    16742.051    42599.075    15220.838        5.440        3.728      179.770      141.273        0.618      345.172       22.511      859.208
06/25/2013  13:58:00       -8.094     -245.736      -14.672      117.834      130.977       69.746    13884.833    17155.045     4864.470        4.828        1.795      245.869       64.268        0.068      344.984       22.187      859.244
06/25/2013  13:59:00     -104.765     -130.246       25.147      128.998       98.510       55.748    16640.359     9704.229     3107.856        2.901        1.473      167.151       41.841        0.063      345.196       22.550      859.218
06/25/2013  14:00:00      -25.692        1.619       20.013       83.392       81.274       48.417     6954.196     6605.458     2344.230        0.848        0.795       25.743       43.866        2.904      345.369       22.848      859.194
06/25/2013  14:01:00       -4.561      -92.487      -10.400       95.374      116.387       50.402     9096.194    13546.001     2540.319        1.693        1.259       92.599       36.216        0.153      345.282       22.699      859.189
06/25/2013  14:02:00      -20.032     -343.816      -11.584      119.220      135.782       67.321    14213.520    18436.813     4532.104        7.796        1.859      344.399       41.033        0.014      345.003       22.220      859.223
06/25/2013  14:03:00      -72.315     -231.790       -0.266      117.868       86.136       58.950    13892.860     7419.325     3475.115        4.187        1.239      242.809       34.400        0.020      344.999       22.212      859.233
06/25/2013  14:04:00      104.127     -215.702      -29.507      127.210      128.521       85.943    16182.474    16517.763     7386.148        4.916        2.004      239.520       84.260        0.124      344.963       22.152      859.269
06/25/2013  14:05:00       -7.070     -214.373      -27.870      140.751      109.630       68.147    19810.943    12018.689     4644.081        4.162        1.824      214.490       37.847        0.031      344.944       22.120      859.319
06/25/2013  14:06:00      -28.104     -139.867      -12.036       76.393       78.402       54.444     5835.841     6146.809     2964.165        1.772        0.747      142.663       45.940        0.104      345.047       22.298      859.358
06/25/2013  14:07:00       -6.615     -200.757       -7.578      114.860       96.724       63.300    13192.909     9355.598     4006.869        3.347        1.328      200.866       43.142        0.046      345.012       22.237      859.379
06/25/2013  14:08:00     -111.919      -95.291       16.375      192.713      145.117       49.904    37138.369    21058.949     2490.396        4.127        3.034      146.990       57.036        0.151      345.083       22.359      859.407
06/25/2013  14:09:00      -31.860     -233.616       10.550      196.971      174.699       88.455    38797.464    30519.624     7824.336        6.641        3.857      235.778       72.693        0.095      344.874       21.999      859.408
06/25/2013  14:10:00      -20.773     -128.125       20.282      134.410      135.297       85.064    18066.098    18305.295     7235.807        3.042        2.180      129.798       75.876        0.342      344.909       22.061      859.437
06/25/2013  14:11:00       14.939     -137.494       -2.812      105.148      103.316       55.625    11055.997    10674.116     3094.126        2.198        1.241      138.304       39.667        0.082      344.882       22.015      859.451
06/25/2013  14:12:00      -20.668     -108.013       -5.265       80.009       85.669       50.868     6401.455     7339.245     2587.544        1.422        0.816      109.973       36.593        0.111      344.977       22.178      859.426
06/25/2013  14:13:00      -23.896     -149.154       -4.339       89.778       84.218       47.602     8060.075     7092.702     2265.926        2.012        0.871      151.056       33.169        0.048      345.032       22.272      859.425
06/25/2013  14:14:00       65.535     -189.357       17.507      119.255       96.644       68.150    14221.655     9340.058     4644.451        3.433        1.410      200.376       44.920        0.050      344.914       22.069      859.443
06/25/2013  14:15:00      -32.418     -171.218       -0.374       93.963       80.824       40.600     8829.041     6532.569     1648.391        2.368        0.851      174.260       26.068        0.022      344.960       22.147      859.443
06/25/2013  14:16:00       62.521     -197.400        3.688      118.800      188.119       76.757    14113.419    35388.791     5891.568        4.913        2.770      207.064       70.090        0.115      344.903       22.050      859.493
06/25/2013  14:17:00       92.987     -144.004       18.109      107.373      174.534       72.659    11528.860    30462.277     5279.362        3.848        2.364      171.417       71.498        0.174      344.927       22.091      859.471
06/25/2013  14:18:00       71.085     -297.654       -4.708      130.154      172.293       93.664    16939.937    29684.975     8772.905        7.452        2.770      306.024       81.241        0.070      344.746       21.779      859.454
06/25/2013  14:19:00       54.266     -249.582        1.873      149.057      125.526       75.436    22218.079    15756.793     5690.634        5.444        2.183      255.414       51.289        0.040      344.706       21.711      859.448
06/25/2013  14:20:00        8.248     -221.117       -9.828      141.546      125.211       55.669    20035.139    15677.758     3099.065        4.393        1.941      221.271       46.813        0.045      344.779       21.837      859.518
06/25/2013  14:21:00      -97.818     -184.059        2.695      115.339      145.068       51.522    13303.115    21044.746     2654.541        4.022        1.850      208.437       44.159        0.045      344.828       21.921      859.550
06/25/2013  14:22:00      -13.471     -200.349      -11.868      101.406      126.434       60.128    10283.159    15985.652     3615.388        3.517        1.494      200.801       63.040        0.099      344.904       22.050      859.563
06/25/2013  14:23:00       99.723     -154.323       11.133      103.997      108.422       59.254    10815.416    11755.327     3511.064        2.998        1.304      183.740       50.647        0.076      344.908       22.057      859.576
06/25/2013  14:24:00      -26.091     -257.677      -12.429      152.766      175.871      110.333    23337.484    30930.625    12173.470        6.682        3.322      258.994       98.796        0.146      344.914       22.068      859.541
06/25/2013  14:25:00      -27.376     -115.970       22.997       80.908      135.027       58.116     6546.143    18232.379     3377.508        2.144        1.408      119.157       65.316        0.300      344.988       22.197      859.598
06/25/2013  14:26:00       -8.776     -101.287       30.465      115.584       99.589       76.677    13359.641     9917.974     5879.332        2.020        1.458      101.667       46.570        0.210      345.018       22.247      859.578
06/25/2013  14:27:00       45.321     -232.481        9.690      167.622      159.650       90.264    28097.232    25488.234     8147.519        5.895        3.087      236.857       81.797        0.119      344.961       22.149      859.562
06/25/2013  14:28:00      -37.695     -176.019       54.417      102.082      124.970      106.092    10420.751    15617.619    11255.508        3.632        1.865      180.010       49.661        0.076      345.007       22.228      859.491
06/25/2013  14:29:00       68.886     -197.246      -14.851       82.106      112.726       72.355     6741.383    12707.165     5235.177        3.427        1.234      208.929       52.942        0.064      344.934       22.102      859.506
06/25/2013  14:30:00       82.903     -221.457      -14.004      109.214      106.814       71.340    11927.634    11409.172     5089.412        4.226        1.421      236.466       53.782        0.052      344.977       22.176      859.512
06/25/2013  14:31:00       40.785     -231.644      -20.817      116.454      117.831       78.950    13561.539    13884.159     6233.042        4.471        1.684      235.207       46.935        0.040      344.921       22.080      859.541
06/25/2013  14:32:00       27.264     -234.767       -0.730      141.957      191.730      101.493    20151.786    36760.394    10300.761        6.152        3.361      236.345       98.085        0.172      344.899       22.041      859.525
06/25/2013  14:33:00      113.818     -255.523      -23.484      152.836      173.557       97.800    23358.722    30121.918     9564.789        7.091        3.152      279.726      102.124        0.133      344.758       21.801      859.539
06/25/2013  14:34:00       -0.755     -127.745        0.031      113.522      130.384       67.083    12887.270    17000.057     4500.159        2.535        1.719      127.747       74.077        0.336      344.907       22.058      859.611
06/25/2013  14:35:00       99.625     -228.165        4.616      186.022      159.488       96.043    34604.223    25436.350     9224.194        6.562        3.463      248.966       61.619        0.061      344.784       21.846      859.593
06/25/2013  14:36:00      -15.216     -140.678       28.144       99.492      155.796       60.695     9898.661    24272.479     3683.827        2.933        1.893      141.499       65.040        0.211      344.858       21.973      859.610
06/25/2013  14:37:00       42.566     -229.920       28.473      117.567      266.424      102.019    13822.117    70981.932    10407.848        7.533        4.761      233.827      141.977        0.369      344.723       21.739      859.573
06/25/2013  14:38:00       67.950     -217.436       -0.357      116.617      143.944       97.146    13599.595    20719.845     9437.363        4.782        2.188      227.806       90.144        0.157      344.791       21.859      859.522
06/25/2013  14:39:00      -30.591     -136.617        8.468      125.598      126.254       84.902    15774.932    15939.986     7208.296        2.929        1.946      140.000       83.977        0.360      344.961       22.148      859.554
06/25/2013  14:40:00     -164.536     -156.175       -1.718      124.583       99.796       56.524    15520.947     9959.198     3194.929        4.006        1.434      226.854       57.176        0.064      344.749       21.785      859.635
06/25/2013  14:41:00     -112.876      -94.761       -7.046      119.156       91.256       51.247    14198.243     8327.715     2626.232        2.346        1.258      147.379       44.956        0.093      344.884       22.019      859.626
06/25/2013  14:42:00     -183.987     -196.779        8.201      147.852      147.160       74.818    21860.356    21656.085     5597.728        6.087        2.456      269.394       83.990        0.097      344.762       21.808      859.607
06/25/2013  14:43:00     -167.692     -148.135       10.714      210.369      135.151       83.964    44254.986    18265.663     7049.987        5.986        3.479      223.751       68.022        0.092      344.783       21.843      859.641
06/25/2013  14:44:00        4.237     -226.534       -4.349      146.217      150.740       75.184    21379.361    22722.422     5652.693        5.054        2.488      226.573       66.175        0.085      344.757       21.799      859.714
06/25/2013  14:45:00       23.410     -197.274       11.727       99.247      168.680       82.158     9850.058    28453.032     6749.882        4.232        2.253      198.658       55.606        0.078      344.703       21.707      859.722
06/25/2013  14:46:00      -11.701     -117.606       14.162       98.440       80.317       50.918     9690.495     6450.894     2592.622        1.645        0.937      118.187       42.161        0.127      344.853       21.965      859.694
06/25/2013  14:47:00     -197.332     -178.658       11.573      166.716      153.335       81.709    27794.378    23511.471     6676.283        6.448        2.899      266.193       71.127        0.071      344.711       21.720      859.702
06/25/2013  14:48:00     -253.002     -289.084        1.877      180.688      197.373       76.424    32648.284    38955.955     5840.642       11.250        3.872      384.161       77.954        0.041      344.565       21.470      859.704
06/25/2013  14:49:00     -257.909     -129.333        9.504      170.987      118.943       72.467    29236.609    14147.400     5251.511        6.598        2.432      288.520       72.973        0.064      344.592       21.518      859.709
06/25/2013  14:50:00     -233.479     -332.044        1.448      145.471      183.711       77.444    21161.891    33749.738     5997.553       11.283        3.045      405.913       77.860        0.037      344.548       21.441      859.734
06/25/2013  14:51:00     -225.890     -204.347      -15.485      160.671      161.376       79.920    25815.236    26042.266     6387.248        7.562        2.912      304.605       87.260        0.082      344.515       21.387      859.762
06/25/2013  14:52:00      -59.229     -122.072        6.784       90.050       77.345       57.870     8109.084     5982.228     3348.913        1.794        0.872      135.682       41.356        0.093      344.652       21.620      859.796
06/25/2013  14:53:00     -199.001     -205.762      -20.855      120.082      116.029       69.799    14419.766    13462.811     4871.913        5.756        1.638      286.251       49.870        0.030      344.519       21.391      859.829
06/25/2013  14:54:00       34.325     -221.448        6.042      140.549      154.533       73.460    19754.054    23880.474     5396.367        4.963        2.452      224.093       60.769        0.074      344.522       21.398      859.824
06/25/2013  14:55:00      -27.519      -70.206       13.555       63.957       76.219       44.562     4090.488     5809.407     1985.814        0.888        0.594       75.406       26.884        0.127      344.565       21.474      859.810
06/25/2013  14:56:00       54.047     -127.743       17.985       94.823      153.469       75.854     8991.351    23552.796     5753.898        2.892        1.915      138.706       67.526        0.237      344.546       21.439      859.799
06/25/2013  14:57:00      -98.084     -157.697       -3.622      117.508      108.919       57.907    13808.192    11863.348     3353.223        3.176        1.451      185.711       54.811        0.087      344.515       21.387      859.789
06/25/2013  14:58:00     -117.458     -252.856      -28.161      142.711      137.712       75.668    20366.352    18964.597     5725.642        6.178        2.253      278.805       67.655        0.059      344.507       21.372      859.786
06/25/2013  14:59:00       17.007     -218.649      -13.769      164.585      137.454       52.852    27088.099    18893.552     2793.373        4.852        2.439      219.309       53.269        0.059      344.506       21.370      859.764
06/25/2013  15:00:00      -48.571      -63.731       11.979       89.185       53.923       40.299     7953.947     2907.693     1624.001        0.952        0.624       80.130       40.524        0.256      344.751       21.792      859.756
06/25/2013  15:01:00      -94.272      -68.016       19.161       87.255       65.070       45.948     7613.445     4234.088     2111.211        1.392        0.698      116.247       44.398        0.146      344.774       21.831      859.740
06/25/2013  15:02:00     -218.695     -145.722      -10.525      136.492       88.321       46.352    18630.045     7800.529     2148.477        4.887        1.429      262.797       54.837        0.044      344.673       21.654      859.755
06/25/2013  15:03:00     -136.905     -131.703       -1.285      125.195      120.311       53.512    15673.698    14474.835     2863.539        3.454        1.651      189.970       67.500        0.126      344.716       21.730      859.778
06/25/2013  15:04:00     -101.726      -81.963       11.260       64.430       92.384       47.297     4151.288     8534.861     2237.030        1.606        0.746      130.637       52.301        0.160      344.739       21.770      859.779
06/25/2013  15:05:00      -14.879       16.811        9.367       27.054       41.116       33.361      731.901     1690.537     1112.940        0.206        0.177       22.450        8.869        0.156      344.885       22.021      859.741
06/25/2013  15:06:00     -176.067      -16.549       -0.846      125.186       74.157       43.456    15671.557     5499.208     1888.393        2.716        1.153      176.843       49.257        0.078      344.618       21.563      859.694
06/25/2013  15:07:00     -117.775      -69.301       13.431       77.669       82.762       48.203     6032.452     6849.565     2323.493        1.703        0.760      136.651       41.663        0.093      344.603       21.537      859.653
06/25/2013  15:08:00      -59.884      -94.244        1.077       44.536       68.996       33.670     1983.436     4760.484     1133.672        1.017        0.394      111.660       19.243        0.030      344.665       21.645      859.660
06/25/2013  15:09:00     -149.732     -109.005       -9.871       96.611       77.963       42.001     9333.740     6078.219     1764.126        2.578        0.859      185.207       48.746        0.069      344.722       21.741      859.712
06/25/2013  15:10:00     -230.147     -138.777      -11.035      112.348       80.253       41.079    12622.158     6440.544     1687.467        4.655        1.038      268.750       48.783        0.033      344.655       21.623      859.773
06/25/2013  15:11:00     -234.140      -75.298       -4.430      130.755      118.970       59.590    17096.802    14153.921     3550.974        4.765        1.740      245.950       57.668        0.055      344.732       21.757      859.799
06/25/2013  15:12:00     -288.762     -156.446       14.309      196.975      149.597       80.459    38798.956    22379.118     6473.616        8.784        3.383      328.419       89.519        0.074      344.661       21.635      859.759
06/25/2013  15:13:00     -224.850     -168.852      -12.172      176.399      109.285       63.148    31116.594    11943.118     3987.730        6.312        2.352      281.192       72.888        0.067      344.654       21.623      859.727
06/25/2013  15:14:00     -187.165      -49.723       -5.442      110.009       61.949       49.120    12101.881     3837.659     2412.787        2.794        0.918      193.657       49.050        0.064      344.681       21.669      859.710
06/25/2013  15:15:00     -199.877      -96.132       -8.577       70.474       77.680       45.548     4966.527     6034.136     2074.640        3.117        0.654      221.793       42.809        0.037      344.657       21.628      859.664
06/25/2013  15:16:00     -138.820      -86.560        8.346       79.467       62.229       42.960     6315.071     3872.404     1845.577        1.943        0.602      163.596       39.258        0.058      344.703       21.709      859.659
06/25/2013  15:17:00     -135.656     -194.319      -15.471       79.825       87.820       41.265     6371.978     7712.372     1702.819        3.609        0.789      236.986       43.194        0.033      344.608       21.544      859.689
06/25/2013  15:18:00     -214.840     -223.442      -13.109      134.827      158.622       59.747    18178.388    25161.004     3569.680        7.157        2.345      309.972       62.768        0.041      344.671       21.651      859.685
06/25/2013  15:19:00      -62.009     -133.208        5.539      179.920      100.167       81.690    32371.049    10033.333     6673.335        3.534        2.454      146.934       57.640        0.154      344.777       21.834      859.657
06/25/2013  15:20:00     -101.720     -206.584        1.839      133.553      143.915       54.791    17836.286    20711.482     3002.026        4.728        2.077      230.269       40.000        0.030      344.761       21.804      859.737
06/25/2013  15:21:00     -165.656     -150.811       14.100      141.264      102.056       62.494    19955.419    10415.476     3905.559        4.232        1.714      224.022       79.896        0.127      344.763       21.810      859.744
06/25/2013  15:22:00     -131.140     -218.221       14.854      117.079      119.974       52.289    13707.560    14393.732     2734.189        4.793        1.542      254.594       58.235        0.052      344.625       21.573      859.770
06/25/2013  15:23:00     -266.828     -158.142       -6.888      138.621      109.936       62.179    19215.915    12085.837     3866.289        6.570        1.758      310.171       62.953        0.041      344.568       21.476      859.779
06/25/2013  15:24:00     -311.629      -88.941        0.240      128.384      105.913       70.068    16482.480    11217.545     4909.567        6.881        1.630      324.072       63.647        0.039      344.580       21.496      859.797
06/25/2013  15:25:00     -277.386     -194.498       11.204      147.593      166.557       83.856    21783.566    27741.330     7031.793        8.572        2.828      338.781       75.023        0.049      344.500       21.359      859.797
06/25/2013  15:26:00     -410.191     -312.270       -0.439      222.112      167.948      103.816    49333.635    28206.414    10777.747       17.703        4.416      515.528      111.825        0.047      344.373       21.142      859.852
06/25/2013  15:27:00     -213.342     -223.754       -6.714      184.904      163.089       78.476    34189.631    26598.176     6158.442        8.127        3.347      309.161       87.866        0.081      344.302       21.024      859.888
06/25/2013  15:28:00      -90.271     -232.469        8.692       69.208      125.793       49.860     4789.776    15823.773     2486.003        4.268        1.155      249.381       29.481        0.014      344.227       20.893      859.874
06/25/2013  15:29:00     -117.887      -37.535        3.397       72.463       69.047       40.068     5250.885     4767.528     1605.432        1.347        0.581      123.718       36.464        0.087      344.348       21.103      859.862
06/25/2013  15:30:00     -113.477      -59.910       14.734      104.127       93.667       52.676    10842.380     8773.461     2774.739        1.953        1.120      128.321       51.069        0.158      344.425       21.233      859.894
06/25/2013  15:31:00      -23.429     -168.319       -3.597       82.805       71.980       38.427     6856.702     5181.176     1476.662        2.120        0.676      169.942       33.350        0.039      344.442       21.262      859.934
06/25/2013  15:32:00       22.440     -132.461       -1.693       90.875       74.679       57.489     8258.293     5577.016     3305.040        1.759        0.857      134.348       36.467        0.074      344.479       21.325      859.934
06/25/2013  15:33:00      -64.544     -158.957       -9.507      243.413      154.117       69.044    59250.015    23751.903     4767.055        5.863        4.388      171.562       40.222        0.055      344.056       20.602      859.910
06/25/2013  15:34:00     -116.730     -169.621        6.274      110.976      107.113       62.766    12315.748    11473.170     3939.613        3.508        1.386      205.906       63.820        0.096      344.036       20.566      859.915
06/25/2013  15:35:00     -249.254     -218.945       -5.299      164.197      132.328       80.675    26960.585    17510.746     6508.378        8.053        2.549      331.760       63.466        0.037      343.977       20.465      859.960
06/25/2013  15:36:00     -116.390     -192.390        4.495      128.090      151.141       87.732    16406.943    22843.632     7696.922        4.876        2.347      224.857       71.844        0.102      344.051       20.592      860.020
06/25/2013  15:37:00     -150.975     -290.591        6.333      109.044      119.824       57.730    11890.504    14357.727     3332.771        6.842        1.479      327.470       63.262        0.037      344.092       20.662      860.066
06/25/2013  15:38:00     -134.345      -69.917       15.141      120.893       83.619       50.333    14615.174     6992.105     2533.439        2.365        1.207      151.449       53.970        0.127      344.189       20.828      860.033
06/25/2013  15:39:00     -143.200     -242.434      -33.030      136.350      113.886       66.468    18591.287    12970.114     4417.962        5.817        1.799      281.568       57.831        0.042      344.149       20.759      859.994
06/25/2013  15:40:00     -114.045     -103.619       13.314      113.365      134.956       60.158    12851.718    18213.075     3619.004        2.930        1.734      154.088       75.837        0.242      344.161       20.783      859.940
06/25/2013  15:41:00     -103.790      -68.604      -26.719       79.743       69.479       30.379     6359.016     4827.284      922.889        1.415        0.605      124.414        9.037        0.005      344.236       20.910      859.869
06/25/2013  15:42:00     -145.918     -118.868      -16.346      102.631      101.011       33.493    10533.092    10203.278     1121.790        2.877        1.093      188.207       25.701        0.019      344.218       20.879      859.829
06/25/2013  15:43:00     -174.900     -109.910        3.034       92.394       83.950       44.314     8536.672     7047.595     1963.773        3.011        0.877      206.568       41.430        0.040      344.231       20.897      859.771
06/25/2013  15:44:00     -150.538     -192.007      -11.627       86.191       96.273       34.965     7428.857     9268.578     1222.579        3.879        0.896      243.984       24.122        0.010      344.174       20.803      859.743
06/25/2013  15:45:00     -156.873     -137.329      -10.254       75.594       69.319       37.638     5714.444     4805.088     1416.636        2.775        0.597      208.491       32.376        0.024      344.252       20.936      859.758
06/25/2013  15:46:00     -188.680     -211.672      -23.466      109.063       85.365       55.610    11894.708     7287.162     3092.437        5.161        1.114      283.558       46.431        0.027      344.293       21.004      859.818
06/25/2013  15:47:00      -81.279     -129.081        3.297       99.615       85.220       57.672     9923.138     7262.439     3326.013        2.189        1.026      152.539       44.777        0.086      344.410       21.208      859.862
06/25/2013  15:48:00       18.499     -218.302       -5.133      141.212      143.147       63.196    19940.754    20491.017     3993.734        4.622        2.221      219.084       64.494        0.087      344.386       21.164      859.886
06/25/2013  15:49:00      -47.271     -148.008        9.366      104.298      107.695       69.062    10878.120    11598.193     4769.542        2.573        1.362      155.374       65.364        0.177      344.460       21.294      859.892
06/25/2013  15:50:00      -12.701     -127.631        0.795       73.983      115.730       58.958     5473.515    13393.445     3476.030        1.939        1.117      128.262       38.118        0.088      344.405       21.199      859.859
06/25/2013  15:51:00      -53.251      -48.855        1.795       69.424       54.449       37.017     4819.723     2964.740     1370.247        0.719        0.458       72.267       30.442        0.177      344.476       21.321      859.816
06/25/2013  15:52:00      -66.364      -24.398       11.128       71.781       50.751       37.739     5152.563     2575.692     1424.267        0.714        0.458       70.706       27.575        0.152      344.469       21.309      859.760
06/25/2013  15:53:00      -72.324      -57.036       17.556       79.471       74.909       40.055     6315.586     5611.422     1604.421        1.116        0.677       92.108       45.089        0.240      344.435       21.251      859.763
06/25/2013  15:54:00     -149.975     -142.446      -10.809      119.200       92.553       46.829    14208.627     8566.126     2192.994        3.393        1.248      206.841       51.190        0.061      344.380       21.155      859.800
06/25/2013  15:55:00     -200.592     -140.912       -8.022       94.237       86.873       38.785     8880.702     7546.837     1504.290        3.904        0.897      245.139       32.456        0.018      344.394       21.179      859.829
06/25/2013  15:56:00     -190.956     -134.249       -4.474       63.494       60.561       27.365     4031.496     3667.654      748.817        3.148        0.422      233.424       19.396        0.007      344.434       21.249      859.842
06/25/2013  15:57:00     -141.009      -55.250        2.405       96.005       71.056       43.748     9216.919     5048.980     1913.915        1.956        0.809      151.446       43.731        0.083      344.453       21.281      859.822
06/25/2013  15:58:00     -166.543      -86.723       -4.215      102.372       57.079       48.190    10480.080     3258.055     2322.283        2.566        0.803      187.770       50.597        0.073      344.378       21.154      859.787
06/25/2013  15:59:00      -87.591      -56.936       15.094       82.795       69.145       37.945     6854.983     4781.097     1439.851        1.211        0.654      104.469       32.646        0.098      344.408       21.204      859.791
06/25/2013  16:00:00     -131.771      -82.389       -4.174       96.984       90.000       43.876     9405.845     8100.076     1925.118        2.180        0.972      155.408       49.691        0.102      344.327       21.065      859.860
06/25/2013  16:01:00      -76.820     -119.712       -0.416       93.802       78.532       33.603     8798.753     6167.199     1129.187        1.816        0.805      142.240       16.552        0.014      344.433       21.248      859.925
06/25/2013  16:02:00     -125.060     -228.109      -16.909       74.837       83.915       45.989     5600.647     7041.733     2114.955        4.136        0.738      260.142       35.450        0.019      344.412       21.208      859.962
06/25/2013  16:03:00     -101.736     -140.555        8.143      120.417      101.587       56.541    14500.214    10319.929     3196.860        2.909        1.401      173.511       45.512        0.069      344.426       21.232      860.004
06/25/2013  16:04:00     -242.819     -148.181       -6.870      135.273      134.896       56.410    18298.767    18196.843     3182.046        6.031        1.984      284.462       70.414        0.061      344.242       20.920      860.003
06/25/2013  16:05:00     -132.841      -93.798       -4.923       86.339       60.826       34.996     7454.480     3699.851     1224.690        1.942        0.619      162.618       36.401        0.050      344.129       20.729      859.899
06/25/2013  16:06:00      -15.338     -148.246        0.053       73.174       73.997       36.900     5354.485     5475.532     1361.622        1.720        0.610      149.037       31.688        0.045      344.318       21.051      859.852
06/25/2013  16:07:00      -64.936     -113.754       11.316       65.750      111.853       47.163     4323.126    12511.161     2224.332        1.817        0.953      130.984       52.802        0.163      344.260       20.951      859.843
06/25/2013  16:08:00      -88.395      -59.279        2.648       70.264       49.803       35.762     4936.981     2480.384     1278.894        1.001        0.435      106.432       22.257        0.044      344.257       20.947      859.875
06/25/2013  16:09:00      -74.101      -70.226       14.863       67.698       62.974       40.254     4582.952     3965.713     1620.386        1.040        0.508      102.091       38.769        0.144      344.369       21.139      859.899
06/25/2013  16:10:00      -79.834     -117.807       10.986      127.216       75.997       46.238    16183.982     5775.609     2137.944        2.223        1.205      142.310       46.451        0.107      344.373       21.144      859.929
06/25/2013  16:11:00     -103.821     -132.545      -12.830      107.228       95.535       39.789    11497.795     9126.921     1583.139        2.536        1.110      168.366       45.649        0.074      344.347       21.100      859.937
06/25/2013  16:12:00     -116.685     -188.384        6.179      133.933      122.532       62.355    17938.074    15014.058     3888.190        4.298        1.842      221.594       52.567        0.056      344.365       21.129      859.915
06/25/2013  16:13:00     -190.493     -118.987       -7.022      165.661      105.610       72.257    27443.568    11153.435     5221.131        4.715        2.191      224.601       72.356        0.104      344.294       21.008      859.892
06/25/2013  16:14:00     -123.450      -90.032       14.095      115.335      127.958       54.202    13302.110    16373.315     2937.840        2.807        1.631      152.793       62.836        0.169      344.256       20.945      859.862
06/25/2013  16:15:00     -231.996     -204.665       -7.617       99.931      107.435       47.907     9986.148    11542.241     2295.073        5.979        1.191      309.370       36.947        0.014      344.281       20.985      859.894
06/25/2013  16:16:00      -82.984      -90.280       44.523       96.011       98.875       67.475     9218.195     9776.170     4552.932        2.028        1.177      122.625       69.927        0.325      344.428       21.238      859.951
06/25/2013  16:17:00     -109.693      -86.708       16.943       90.183       94.374       49.140     8132.999     8906.463     2414.741        1.964        0.973      139.824       59.231        0.179      344.443       21.263      859.962
06/25/2013  16:18:00      -21.794      -66.516       10.104       88.732       81.429       42.705     7873.280     6630.723     1823.711        1.066        0.816       69.996       43.755        0.391      344.491       21.346      859.947
06/25/2013  16:19:00     -106.754     -136.033       15.068      126.913       92.633       60.494    16106.999     8580.784     3659.496        2.923        1.417      172.920       61.524        0.127      344.494       21.352      859.970
06/25/2013  16:20:00      -67.503      -57.176      -13.983       88.573       55.976       28.335     7845.088     3133.304      802.852        0.990        0.589       88.463       19.770        0.050      344.585       21.508      860.012
06/25/2013  16:21:00     -138.106     -139.779       -5.174      156.461       96.003       67.629    24480.135     9216.549     4573.622        3.845        1.914      196.498       51.152        0.068      344.530       21.411      860.036
06/25/2013  16:22:00       -4.054      -77.075        2.084       88.363       70.239       43.009     7808.015     4933.583     1849.736        1.027        0.730       77.181       23.208        0.090      344.620       21.568      860.076
06/25/2013  16:23:00      -44.504     -149.963        4.044      104.338       87.814       49.611    10886.318     7711.343     2461.242        2.277        1.053      156.428       33.761        0.047      344.356       21.115      860.049
06/25/2013  16:24:00     -164.722      -90.561       11.400       99.717       69.321       47.366     9943.551     4805.409     2243.582        2.623        0.850      187.975       51.393        0.075      344.468       21.305      859.995
06/25/2013  16:25:00     -179.939      -78.863       -4.646       98.349       51.627       48.310     9672.458     2665.346     2333.814        2.664        0.734      196.462       30.372        0.024      344.413       21.211      859.980
06/25/2013  16:26:00      -55.258      -29.890        9.294       58.599       67.178       35.946     3433.885     4512.927     1292.085        0.663        0.462       62.824       31.326        0.249      344.529       21.412      859.980
06/25/2013  16:27:00     -118.809     -106.734       -1.685      160.374       75.345       42.628    25719.868     5676.910     1817.104        2.936        1.661      159.712       48.385        0.092      344.540       21.429      859.976
06/25/2013  16:28:00     -125.775      -79.970       -2.286      117.171       77.140       43.604    13728.965     5950.586     1901.318        2.190        1.079      149.045       49.409        0.110      344.526       21.407      859.967
06/25/2013  16:29:00     -186.146     -131.928       -6.370      110.018      143.658       55.122    12104.038    20637.716     3038.471        4.393        1.789      228.156       54.480        0.057      344.525       21.403      859.951
06/25/2013  16:30:00     -109.103      -84.716       13.488       80.239       59.842       42.630     6438.300     3581.089     1817.317        1.555        0.592      138.131       35.874        0.067      344.608       21.547      859.944
06/25/2013  16:31:00     -137.348      -56.023        8.464      103.501       74.197       45.427    10712.420     5505.154     2063.592        2.017        0.914      148.334       53.803        0.132      344.653       21.623      859.964
06/25/2013  16:32:00     -117.928      -67.818        8.686       85.384       62.911       41.138     7290.362     3957.849     1692.364        1.576        0.647      136.037       40.099        0.087      344.651       21.621      859.995
06/25/2013  16:33:00     -208.662     -147.395       12.116      139.001      121.333       65.244    19321.299    14721.642     4256.788        5.185        1.915      255.470       62.793        0.060      344.622       21.566      860.018
06/25/2013  16:34:00     -168.046     -278.940        1.044      102.618      133.100       60.325    10530.527    17715.683     3639.145        6.896        1.594      325.648       55.182        0.029      344.465       21.298      860.015
06/25/2013  16:35:00      -91.347     -173.030        2.318       94.630       86.095       59.252     8954.856     7412.321     3510.773        2.908        0.994      195.662       51.274        0.069      344.621       21.566      860.001
06/25/2013  16:36:00     -217.836     -131.535       -3.227       88.415       63.254       38.929     7817.147     4001.054     1515.502        3.905        0.667      254.468       36.736        0.021      344.663       21.638      859.989
06/25/2013  16:37:00     -248.293     -139.221      -13.153      118.302       97.275       58.460    13995.297     9462.514     3417.575        5.403        1.344      284.661       65.266        0.053      344.588       21.508      859.973
06/25/2013  16:38:00     -200.473     -241.086        0.795      153.530      137.219       73.646    23571.341    18829.111     5423.769        7.306        2.391      313.547       75.889        0.059      344.500       21.359      859.965
06/25/2013  16:39:00     -256.443     -130.877        5.058      134.218       88.433       53.664    18014.432     7820.321     2879.878        5.581        1.436      287.910       52.407        0.033      344.661       21.635      859.968
06/25/2013  16:40:00     -225.752      -92.511        7.659      108.395       88.924       53.488    11749.481     7907.396     2861.020        4.104        1.126      243.971       43.501        0.032      344.728       21.751      859.951
06/25/2013  16:41:00     -332.968     -187.383      -24.803      170.621      123.813       69.614    29111.676    15329.762     4846.129        9.793        2.464      382.074       75.676        0.039      344.691       21.685      859.916
06/25/2013  16:42:00     -174.301     -108.169      -11.695      123.838       86.262       61.785    15335.807     7441.095     3817.401        3.440        1.330      205.138       70.984        0.120      344.652       21.621      859.865
06/25/2013  16:43:00     -449.722      -60.927      -41.672      194.255      185.173       95.608    37735.146    34289.212     9140.894       14.442        4.058      453.830      100.973        0.050      344.665       21.641      859.863
06/25/2013  16:44:00     -313.464      -63.813      -17.654      213.878      184.286       86.914    45743.696    33961.503     7554.024        9.493        4.363      319.893       95.086        0.088      344.680       21.668      859.865
06/25/2013  16:45:00     -268.107     -176.878        9.632      172.625      143.997       74.268    29799.484    20735.194     5515.708        7.964        2.803      321.197       68.911        0.046      344.584       21.503      859.899
06/25/2013  16:46:00     -256.365     -230.935        3.861      159.036      142.240       74.327    25292.425    20232.293     5524.495        8.505        2.552      345.042       80.634        0.055      344.633       21.587      859.919
06/25/2013  16:47:00     -255.794     -173.069        3.675      197.124      151.262       86.282    38857.811    22880.081     7444.498        8.228        3.459      308.842       86.133        0.078      344.632       21.586      859.904
06/25/2013  16:48:00     -257.958     -205.868        8.765      154.116      140.566       77.981    23751.854    19758.815     6081.056        7.929        2.480      330.036       70.892        0.046      344.562       21.466      859.882
06/25/2013  16:49:00     -225.086     -158.939        6.544      156.642      126.365       64.919    24536.835    15968.112     4214.474        6.033        2.236      275.546       67.219        0.060      344.577       21.491      859.849
06/25/2013  16:50:00     -398.453     -183.491      -11.225      248.028      136.909       84.498    61517.764    18744.109     7139.890       13.996        4.370      438.673       95.522        0.047      344.551       21.446      859.850
06/25/2013  16:51:00     -519.051     -183.461      -30.709      181.358      199.842       87.569    32890.689    39936.653     7668.345       19.224        4.025      550.520       81.483        0.022      344.458       21.288      859.846
06/25/2013  16:52:00     -435.790     -238.071      -14.665      178.111      119.440       71.649    31723.452    14265.891     5133.534       14.895        2.556      496.579       76.931        0.024      344.500       21.359      859.848
06/25/2013  16:53:00     -356.903     -200.528      -12.594      202.173      161.069       90.222    40873.757    25943.384     8140.041       12.134        3.748      409.379      103.301        0.064      344.616       21.557      859.836
06/25/2013  16:54:00     -248.124     -206.030       -0.856      139.949      162.787       77.702    19585.630    26499.572     6037.551        7.806        2.606      322.512       75.696        0.055      344.587       21.508      859.832
06/25/2013  16:55:00     -312.316     -224.720        6.017      170.104      139.634       88.331    28935.461    19497.516     7802.316       10.214        2.812      384.760       94.794        0.061      344.395       21.180      859.799
06/25/2013  16:56:00     -246.642     -226.894        3.864      169.863      127.250       75.063    28853.279    16192.606     5634.395        8.149        2.534      335.132       76.239        0.052      344.513       21.382      859.790
06/25/2013  16:57:00     -174.970     -246.454       -1.964      111.613      125.235       57.263    12457.444    15683.737     3279.048        6.138        1.571      302.248       53.232        0.031      344.492       21.347      859.801
06/25/2013  16:58:00     -106.030     -181.808       -2.227       81.224      116.017       52.259     6597.398    13459.985     2730.992        3.354        1.139      210.468       46.259        0.048      344.598       21.528      859.852
06/25/2013  16:59:00     -119.844      -54.601       -0.184       63.782       70.465       37.034     4068.149     4965.309     1371.516        1.387        0.520      131.696       35.404        0.072      344.765       21.817      859.860
06/25/2013  17:00:00     -353.244     -125.048      -16.205      147.074      113.536       46.410    21630.769    12890.377     2153.867        8.867        1.834      374.724       33.553        0.008      344.691       21.685      859.823
06/25/2013  17:01:00     -351.330     -227.164      -27.605      135.697       85.618       67.070    18413.774     7330.465     4498.364       10.301        1.512      418.373       66.159        0.025      344.620       21.565      859.761
06/25/2013  17:02:00     -194.545     -163.625        3.549      150.773       97.020       65.444    22732.565     9412.827     4282.860        5.052        1.821      254.206       86.073        0.115      344.712       21.723      859.785
06/25/2013  17:03:00     -111.071      -69.344       17.061      118.111       50.129       41.889    13950.225     2512.946     1754.729        1.782        0.911      130.941       51.533        0.155      344.881       22.012      859.809
06/25/2013  17:04:00     -126.794      -71.491        8.422       91.181       73.242       42.022     8313.973     5364.331     1765.876        1.835        0.772      145.559       42.370        0.085      345.041       22.286      859.824
06/25/2013  17:05:00     -168.450     -174.290      -13.303      102.818       78.473       53.504    10571.602     6158.035     2862.648        3.926        0.980      242.389       50.511        0.043      344.914       22.069      859.834
06/25/2013  17:06:00      -51.208      -50.884       24.645       85.137       54.430       51.847     7248.280     2962.621     2688.120        0.936        0.645       72.191       38.756        0.288      345.137       22.453      859.842
06/25/2013  17:07:00       -1.017      -19.339       48.206       91.152       45.650       38.010     8308.749     2083.942     1444.786        0.727        0.592       19.366       38.825        4.019      345.485       23.049      859.814
06/25/2013  17:08:00      -33.276      -79.289        6.513       70.499      109.512       41.130     4970.171    11992.831     1691.689        1.304        0.933       85.989       48.231        0.315      345.187       22.538      859.786
06/25/2013  17:09:00      -43.688     -130.148      -13.966       52.875       70.468       36.437     2795.759     4965.751     1327.655        1.406        0.454      137.284       24.173        0.031      344.603       21.537      859.777
06/25/2013  17:10:00       32.465     -125.236        4.472      108.725       71.765       58.707    11821.088     5150.192     3446.537        1.858        1.021      129.376       48.800        0.142      344.839       21.941      859.797
06/25/2013  17:11:00     -129.887     -140.096        9.607      111.456       83.792       46.667    12422.362     7021.175     2177.791        2.910        1.081      191.043       50.671        0.070      344.877       22.006      859.813
06/25/2013  17:12:00     -186.063     -114.563       -5.631       74.627       58.344       46.560     5569.198     3404.050     2167.814        2.946        0.557      218.504       37.414        0.029      344.755       21.794      859.851
06/25/2013  17:13:00     -155.538      -86.528      -11.905       99.391       91.771       51.762     9878.513     8421.893     2679.309        2.640        1.049      177.987       43.104        0.059      344.776       21.832      859.875
06/25/2013  17:14:00     -173.860     -166.695       -9.814      142.734      109.689       57.006    20372.895    12031.779     3249.734        4.688        1.783      240.862       64.599        0.072      344.604       21.538      859.889
06/25/2013  17:15:00     -189.255     -190.985        3.029      163.499      110.685       54.614    26731.917    12251.166     2982.662        5.713        2.098      268.873       72.622        0.073      344.702       21.705      859.894
06/25/2013  17:16:00     -178.709     -100.393        4.553      106.930       70.939       42.804    11433.935     5032.324     1832.164        3.016        0.915      204.977       34.905        0.029      344.783       21.844      859.894
06/25/2013  17:17:00      -90.598      -93.799        6.191      113.186       66.994       42.917    12811.130     4488.135     1841.849        1.809        0.957      130.408       44.818        0.118      344.773       21.828      859.863
06/25/2013  17:18:00      -78.832      -94.728       15.510      106.344       73.200       56.093    11309.108     5358.288     3146.420        1.762        0.991      123.239       56.768        0.212      344.862       21.981      859.871
06/25/2013  17:19:00     -182.532     -158.472       -9.461       73.257       70.862       40.993     5366.642     5021.418     1680.455        3.529        0.603      241.726       41.948        0.030      344.699       21.699      859.908
06/25/2013  17:20:00      -97.375      -61.725       12.598       91.625       70.949       50.221     8395.075     5033.780     2522.159        1.470        0.798      115.290       57.894        0.252      344.795       21.867      859.898
06/25/2013  17:21:00     -110.823     -152.636       12.372      141.144       84.270       61.683    19921.579     7101.351     3804.849        3.327        1.541      188.625       56.199        0.089      344.875       22.003      859.909
06/25/2013  17:22:00      -51.398      -66.733       14.254       70.782       52.312       37.089     5010.106     2736.563     1375.599        0.821        0.456       84.232       31.565        0.140      345.027       22.265      859.913
06/25/2013  17:23:00       30.365      -91.810       16.179       81.166       92.853       65.550     6587.884     8621.754     4296.788        1.456        0.975       96.701       62.981        0.424      344.869       21.994      859.901
06/25/2013  17:24:00      -78.531     -121.307       -5.659       92.102       74.941       43.050     8482.803     5616.203     1853.342        1.843        0.798      144.508       24.546        0.029      344.876       22.005      859.904
06/25/2013  17:25:00     -165.941     -209.272       -6.819      125.474      119.049       70.911    15743.812    14172.769     5028.380        5.315        1.747      267.080       75.584        0.080      344.781       21.840      859.964
06/25/2013  17:26:00     -144.340     -167.989       20.754      171.928       85.271       67.812    29559.179     7271.141     4598.527        4.545        2.071      221.482       75.501        0.116      344.687       21.680      859.965
06/25/2013  17:27:00     -102.422      -46.217        0.311       77.868       71.479       34.438     6063.439     5109.186     1185.951        1.249        0.618      112.367       34.787        0.096      344.746       21.782      859.958
06/25/2013  17:28:00     -115.420      -44.563        8.928       95.702       63.182       39.038     9158.810     3991.912     1523.997        1.503        0.734      123.724       34.475        0.078      344.809       21.890      859.956
06/25/2013  17:29:00      -77.200      -90.487       -1.923      112.260       64.622       37.358    12602.367     4175.959     1395.613        1.616        0.909      118.944       30.204        0.064      344.725       21.746      859.952
06/25/2013  17:30:00      -92.106     -220.108        1.231       95.325      108.294       56.527     9086.853    11727.637     3195.322        4.047        1.200      238.602       51.710        0.047      344.623       21.571      860.005
06/25/2013  17:31:00     -143.721     -268.334       -5.880      116.633      140.970       54.478    13603.170    19872.408     2967.874        6.456        1.822      304.399       54.794        0.032      344.512       21.381      859.990
06/25/2013  17:32:00     -127.668     -246.427       -7.689      112.312       91.556       52.623    12613.885     8382.561     2769.192        5.042        1.188      277.534       56.574        0.042      344.533       21.415      859.962
06/25/2013  17:33:00       33.259     -117.271      -10.938       69.168      116.561       69.482     4784.191    13586.480     4827.733        1.908        1.160      121.896       60.138        0.243      344.652       21.622      859.952
06/25/2013  17:34:00       -2.729      -70.599       23.425       64.684      108.324       57.531     4184.046    11734.098     3309.823        1.238        0.961       70.652       64.735        0.840      344.768       21.820      859.965
06/25/2013  17:35:00       -2.324      -55.082       16.225       66.753       66.954       40.995     4455.915     4482.886     1680.600        0.696        0.531       55.131       36.626        0.441      344.835       21.936      859.996
06/25/2013  17:36:00      -90.772     -164.745      -14.799      117.084      145.574       52.967    13708.647    21191.795     2805.533        3.665        1.885      188.098       45.588        0.059      344.760       21.806      860.052
06/25/2013  17:37:00     -233.161     -180.650       21.712      201.968      121.678       81.922    40791.167    14805.502     6711.292        7.488        3.115      294.956       88.154        0.089      344.597       21.525      859.963
06/25/2013  17:38:00      -24.026      -65.731       12.750      118.072       65.341       42.347    13940.972     4269.400     1793.232        1.253        1.000       69.985       38.926        0.309      344.734       21.762      859.943
06/25/2013  17:39:00        9.898      -89.941        9.519       75.126       98.214       54.309     5643.989     9645.915     2949.445        1.325        0.912       90.484       40.092        0.196      344.716       21.732      859.935
06/25/2013  17:40:00      -58.110      -52.759       17.830       72.192      100.273       51.025     5211.715    10054.687     2603.519        1.217        0.893       78.488       47.877        0.372      344.600       21.533      859.955
06/25/2013  17:41:00       -4.592       -9.563       12.086       29.169       46.210       27.687      850.857     2135.333      766.590        0.200        0.188       10.608       26.209        6.104      344.806       21.886      859.968
06/25/2013  17:42:00     -134.427      -28.924      -16.661       67.606       55.130       24.602     4570.560     3039.361      605.256        1.370        0.411      137.504       24.540        0.032      344.631       21.587      859.978
06/25/2013  17:43:00     -158.107      -72.280       -0.381       77.927       74.771       42.471     6072.593     5590.632     1803.805        2.184        0.673      173.845       36.216        0.043      344.758       21.802      859.992
06/25/2013  17:44:00      -17.834       -6.040       30.471       65.430       48.600       37.013     4281.029     2361.951     1369.991        0.465        0.401       18.829       35.466        3.548      344.914       22.070      859.985
06/25/2013  17:45:00     -266.582     -150.264       -4.119      157.724      103.773       57.507    24876.742    10768.746     3307.021        6.630        1.948      306.015       61.118        0.040      344.564       21.470      859.982
06/25/2013  17:46:00      -86.084      -94.387       20.289      124.717       81.538       44.106    15554.437     6648.405     1945.368        2.043        1.207      127.747       52.247        0.167      344.675       21.661      859.970
06/25/2013  17:47:00      -10.239     -118.145        6.123       66.868      106.273       45.580     4471.319    11293.972     2077.573        1.597        0.892      118.588       57.020        0.231      344.748       21.785      859.977
06/25/2013  17:48:00       54.293      -59.597       35.301       79.539       62.492       48.649     6326.453     3905.195     2366.727        1.017        0.630       80.620       42.726        0.281      344.830       21.926      859.977
06/25/2013  17:49:00      -50.734      -80.047       -0.739       41.255       42.734       35.747     1702.008     1826.187     1277.825        0.689        0.240       94.771       20.084        0.045      344.841       21.947      859.980
06/25/2013  17:50:00     -108.246      -63.535        6.766       96.426       37.665       34.083     9298.056     1418.654     1161.621        1.384        0.594      125.514       45.708        0.133      344.810       21.891      860.003
06/25/2013  17:51:00     -116.793      -50.265        4.374       81.607       75.045       42.993     6659.749     5631.772     1848.355        1.516        0.707      127.150       55.103        0.188      344.751       21.790      860.017
06/25/2013  17:52:00     -128.225     -141.975       -7.674       89.625       81.870       35.476     8032.730     6702.664     1258.538        2.632        0.800      191.307       37.490        0.038      344.620       21.565      860.049
06/25/2013  17:53:00     -143.595     -156.188        0.438      114.580      133.618       53.840    13128.494    17853.785     2898.699        3.944        1.694      212.165       65.713        0.096      344.650       21.616      860.079
06/25/2013  17:54:00     -164.755     -221.016      -11.808       97.097      133.287       49.574     9427.825    17765.374     2457.585        5.289        1.483      275.667       53.991        0.038      344.507       21.371      860.099
06/25/2013  17:55:00      -89.525      -45.154       11.589       80.542      100.748       38.753     6487.046    10150.167     1501.781        1.416        0.907      100.268       42.907        0.183      344.574       21.488      860.117
06/25/2013  17:56:00      -27.124      -88.375        7.896       88.396       92.386       45.065     7813.871     8535.259     2030.816        1.349        0.919       92.444       25.689        0.077      344.535       21.421      860.131
06/25/2013  17:57:00     -102.801      -75.620        0.275      103.878       69.959       43.089    10790.591     4894.261     1856.699        1.691        0.877      127.618       30.659        0.058      344.425       21.232      860.082
06/25/2013  17:58:00       -7.583     -177.988        2.563       78.092      131.175       53.811     6098.410    17206.775     2895.617        2.897        1.310      178.149       53.759        0.091      344.173       20.800      860.073
06/25/2013  17:59:00       78.734     -156.472        5.188       85.102       78.255       54.010     7242.402     6123.836     2917.134        2.349        0.814      175.165       40.375        0.053      344.203       20.853      860.042
06/25/2013  18:00:00       23.980     -120.006       20.937       82.923       64.317       43.971     6876.168     4136.706     1933.437        1.418        0.647      122.379       38.290        0.098      344.205       20.858      860.045
06/25/2013  18:01:00        9.280     -113.589       14.061       90.978       90.887       56.250     8276.990     8260.506     3164.091        1.644        0.985      113.968       51.631        0.205      344.156       20.774      860.042
06/25/2013  18:02:00       58.120     -113.686       10.242       87.215       89.324       51.026     7606.469     7978.793     2603.676        1.729        0.909      127.681       57.440        0.202      344.185       20.823      860.068
06/25/2013  18:03:00      -67.473      -33.001       10.780       76.230       55.224       34.421     5810.966     3049.665     1184.827        0.790        0.502       75.112       27.862        0.138      344.377       21.152      860.118
06/25/2013  18:04:00     -113.472     -122.317       -0.859       56.985       50.114       36.580     3247.328     2511.385     1338.070        1.747        0.355      166.845       26.668        0.026      344.317       21.049      860.167
06/25/2013  18:05:00      -15.224      -52.659       14.393       49.811       50.512       33.914     2481.125     2551.443     1150.132        0.470        0.309       54.815       34.415        0.394      344.466       21.305      860.179
06/25/2013  18:06:00      -28.394      -39.418        9.898       35.146       56.421       32.040     1235.257     3183.351     1026.566        0.395        0.272       48.580       22.849        0.221      344.456       21.287      860.157
06/25/2013  18:07:00      -22.385      -46.520       30.276       64.184       64.309       46.990     4119.640     4135.625     2208.027        0.702        0.523       51.625       32.824        0.404      344.452       21.280      860.106
06/25/2013  18:08:00     -234.490     -117.390      -37.078      119.337      114.687       54.084    14241.264    13153.123     2925.107        5.022        1.516      262.233       61.233        0.055      344.227       20.892      860.062
06/25/2013  18:09:00     -176.518      -49.555        2.837      127.023       89.698       43.724    16134.825     8045.782     1911.802        2.985        1.305      183.342       45.312        0.061      344.317       21.049      860.019
06/25/2013  18:10:00      -86.298     -119.239       17.333      116.320       95.195       56.564    13530.403     9062.126     3199.430        2.387        1.290      147.191       63.404        0.186      344.397       21.186      860.020
06/25/2013  18:11:00     -142.843      -81.826        8.441       69.166       80.153       40.698     4783.902     6424.501     1656.300        2.002        0.643      164.620       37.299        0.051      344.411       21.208      860.049
06/25/2013  18:12:00      -87.338      -51.109       -3.728       60.608       59.444       34.802     3673.361     3533.594     1211.193        0.933        0.421      101.193       18.581        0.034      344.298       21.017      860.066
06/25/2013  18:13:00      -81.028      -97.570       -9.171       72.527       46.489       28.761     5260.189     2161.198      827.179        1.221        0.412      126.829       24.924        0.039      344.193       20.838      860.063
06/25/2013  18:14:00      -69.062      -86.017       -9.786       44.880       46.344       24.868     2014.205     2147.787      618.416        0.852        0.239      110.311       10.445        0.009      344.208       20.862      860.050
06/25/2013  18:15:00      -71.962      -30.199        3.293       50.148       47.803       18.395     2514.852     2285.106      338.359        0.562        0.257       78.041       25.738        0.109      344.329       21.071      860.027
06/25/2013  18:16:00      -26.879      -53.619       -1.092       46.699       55.415       30.053     2180.839     3070.828      903.177        0.488        0.308       59.979       16.877        0.079      344.258       20.949      860.051
06/25/2013  18:17:00      -52.171       -3.693        1.400       25.232       30.926       14.611      636.653      956.413      213.476        0.227        0.090       52.301        5.120        0.010      344.430       21.242      860.074
06/25/2013  18:18:00     -141.970       -2.436      -15.537       40.290       42.089       21.656     1623.256     1771.511      468.986        1.213        0.193      141.991       23.059        0.026      344.281       20.989      860.090
06/25/2013  18:19:00     -152.399      -89.866       -3.917      124.544       86.070       38.527    15511.305     7407.995     1484.346        2.786        1.220      176.922       50.277        0.081      344.355       21.111      860.109
06/25/2013  18:20:00     -348.017     -110.276      -14.303      122.106       86.334       44.022    14909.801     7453.642     1937.949        7.889        1.215      365.071       52.679        0.021      344.214       20.869      860.135
06/25/2013  18:21:00      -84.443      -10.992       21.484      121.259       67.949       45.099    14703.814     4617.109     2033.915        1.453        1.068       85.155       57.500        0.456      344.415       21.216      860.149
06/25/2013  18:22:00     -197.284      -93.233        6.930      124.556       81.256       46.353    15514.075     6602.617     2148.602        3.596        1.213      218.205       55.656        0.065      344.258       20.947      860.175
06/25/2013  18:23:00     -164.820      -37.169       11.522      111.352       89.029       40.149    12399.241     7926.138     1611.928        2.530        1.097      168.959       46.208        0.075      344.234       20.907      860.205
06/25/2013  18:24:00     -101.665      -18.153        2.239       54.290       57.269       29.039     2947.431     3279.711      843.252        0.887        0.354      103.273       28.453        0.076      344.270       20.971      860.280
06/25/2013  18:25:00     -240.971      -47.089      -16.359       95.340       74.865       38.880     9089.781     5604.803     1511.653        3.838        0.810      245.529       47.027        0.037      344.280       20.982      860.309
06/25/2013  18:26:00     -371.809      -72.887      -23.873      115.415       98.271       55.056    13320.662     9657.212     3031.186        8.506        1.300      378.886       26.024        0.005      344.130       20.726      860.352
06/25/2013  18:27:00     -459.541      -67.281      -48.808      133.599      120.951       62.968    17848.754    14629.045     3964.970       12.726        1.822      464.440       53.778        0.013      343.937       20.398      860.352
06/25/2013  18:28:00     -155.120      -66.101       13.680      152.078       91.361       59.965    23127.789     8346.793     3595.848        3.184        1.754      168.616       70.642        0.176      344.064       20.616      860.354
06/25/2013  18:29:00     -144.811     -117.217       -6.404       85.671       69.723       40.392     7339.545     4861.318     1631.474        2.429        0.692      186.307       41.028        0.048      344.047       20.585      860.357
06/25/2013  18:30:00     -215.363     -123.791       -4.447      101.527       48.175       39.443    10307.647     2320.802     1555.769        3.795        0.709      248.406       45.172        0.033      344.085       20.651      860.364
06/25/2013  18:31:00     -206.573      -89.233       -7.339       84.941       55.500       36.588     7214.942     3080.198     1338.710        3.116        0.582      225.022       39.792        0.031      344.114       20.699      860.368
06/25/2013  18:32:00     -167.544      -52.447        3.777       84.463       65.501       39.370     7134.004     4290.366     1549.965        2.190        0.649      175.561       42.775        0.059      344.119       20.709      860.384
06/25/2013  18:33:00     -156.504      -80.091        5.149       69.384       70.875       39.004     4814.203     5023.252     1521.304        2.114        0.568      175.807       34.062        0.038      344.162       20.785      860.396
06/25/2013  18:34:00     -258.438     -140.919       -5.015       83.861       89.116       49.494     7032.654     7941.693     2449.651        5.205        0.871      294.361       35.327        0.014      344.182       20.814      860.433
06/25/2013  18:35:00     -155.892     -129.323        8.994      121.852      100.914       65.959    14848.021    10183.715     4350.618        3.524        1.469      202.550       75.294        0.138      344.210       20.864      860.464
06/25/2013  18:36:00     -268.413     -122.443      -26.382       90.188       74.464       45.745     8133.943     5544.837     2092.620        5.175        0.789      295.022       37.125        0.016      344.194       20.836      860.469
06/25/2013  18:37:00     -177.191      -53.500      -16.153       91.548      114.435       52.407     8380.947    13095.355     2746.513        2.937        1.211      185.091       43.948        0.056      344.177       20.807      860.483
06/25/2013  18:38:00     -159.915     -118.246       -8.645       90.568       77.315       47.790     8202.486     5977.585     2283.882        2.804        0.823      198.884       51.183        0.066      344.132       20.731      860.509
06/25/2013  18:39:00     -361.153      -68.093        3.196      145.928      117.117       63.634    21294.836    13716.406     4049.294        8.706        1.953      367.516       72.461        0.039      344.184       20.819      860.508
06/25/2013  18:40:00     -195.268        4.842        9.259      138.736      108.884       64.407    19247.646    11855.739     4148.288        3.674        1.763      195.328       65.724        0.113      344.189       20.831      860.521
06/25/2013  18:41:00     -145.042     -104.369       -9.885       67.046       88.493       38.212     4495.183     7830.986     1460.184        2.290        0.689      178.690       32.820        0.034      344.184       20.821      860.530
06/25/2013  18:42:00     -172.823      -79.266        4.647      116.463       73.526       41.734    13563.713     5406.036     1741.767        2.844        1.036      190.134       52.880        0.077      344.164       20.786      860.546
06/25/2013  18:43:00     -127.210      -47.055        6.557      118.891       75.670       46.732    14135.042     5725.945     2183.895        2.024        1.102      135.634       52.147        0.148      344.192       20.834      860.547
06/25/2013  18:44:00     -346.426     -100.581       -0.250      125.614       85.310       50.286    15778.855     7277.863     2528.731        7.785        1.279      360.732       66.063        0.034      344.005       20.513      860.547
06/25/2013  18:45:00     -206.256      -80.490        1.789      124.723       83.271       56.018    15555.948     6934.102     3137.980        3.732        1.281      221.404       55.134        0.062      344.047       20.588      860.574
06/25/2013  18:46:00     -157.956      -24.221       10.977       99.960       94.421       60.503     9992.085     8915.309     3660.614        2.411        1.128      159.803       57.465        0.129      344.059       20.607      860.576
06/25/2013  18:47:00     -269.615      -46.997       13.447      161.140      146.660       76.051    25966.164    21509.157     5783.759        6.416        2.663      273.680       76.091        0.077      344.010       20.522      860.582
06/25/2013  18:48:00     -247.404      -31.955       -7.521      169.233      115.422       59.606    28639.681    13322.270     3552.890        5.389        2.276      249.459       71.009        0.081      344.035       20.565      860.604
06/25/2013  18:49:00     -386.692      -55.738      -10.470      211.505      120.403       73.857    44734.273    14496.978     5454.811       10.870        3.234      390.688       86.108        0.049      344.018       20.538      860.593
06/25/2013  18:50:00     -237.139      -63.486      -12.435      207.190       94.425       64.728    42927.896     8916.162     4189.747        5.822        2.802      245.491       94.781        0.149      344.049       20.591      860.585
06/25/2013  18:51:00     -183.873     -105.557      -11.427      109.568      136.827       63.330    12005.183    18721.725     4010.665        3.990        1.737      212.018       67.469        0.101      344.064       20.617      860.590
06/25/2013  18:52:00     -197.226      -17.181      -13.062      113.025      105.341       55.708    12774.540    11096.667     3103.326        3.316        1.349      197.973       59.150        0.089      344.021       20.542      860.578
06/25/2013  18:53:00     -173.419      -60.909       14.376      133.474      111.551       60.637    17815.244    12443.677     3676.896        3.396        1.697      183.804       63.537        0.119      344.052       20.597      860.592
06/25/2013  18:54:00     -238.882     -147.234      -17.250      142.456      145.582       73.419    20293.629    21194.172     5390.380        6.295        2.344      280.611       82.588        0.087      343.981       20.474      860.623
06/25/2013  18:55:00     -198.418     -136.896       13.249      177.500      140.012       90.084    31506.253    19603.304     8115.077        5.874        2.961      241.060       96.002        0.159      343.966       20.447      860.634
06/25/2013  18:56:00     -186.423       24.337        4.006      144.033      102.250       72.173    20745.379    10455.113     5208.885        3.588        1.820      188.005       66.235        0.124      344.008       20.519      860.668
06/25/2013  18:57:00     -251.581      -78.415      -23.693      109.355       83.343       44.790    11958.596     6946.090     2006.134        4.545        1.046      263.518       37.195        0.020      343.967       20.450      860.689
06/25/2013  18:58:00     -214.110     -129.186       -6.676       92.288       72.684       49.078     8517.088     5282.959     2408.621        3.939        0.810      250.064       41.069        0.027      343.916       20.360      860.707
06/25/2013  18:59:00     -363.305     -114.907      -12.269      182.017      127.760       68.069    33130.231    16322.738     4633.419        9.970        2.704      381.044       90.275        0.056      343.868       20.282      860.638
06/25/2013  19:00:00     -173.051      -66.312       13.461      115.813       97.873       59.795    13412.595     9579.027     3575.481        3.054        1.328      185.321       66.342        0.128      343.959       20.437      860.631
06/25/2013  19:01:00      -60.170      -26.746       14.065       67.310       66.308       32.112     4530.685     4396.698     1031.182        0.724        0.498       65.847       28.653        0.189      344.044       20.584      860.608
06/25/2013  19:02:00      -99.100      -46.322        4.245       82.058       46.152       32.505     6733.571     2129.993     1056.605        1.095        0.496      109.391       42.867        0.154      344.079       20.644      860.609
06/25/2013  19:03:00      -85.664      -31.071       18.599       92.674       61.474       39.031     8588.406     3779.026     1523.433        1.127        0.695       91.125       44.663        0.240      344.127       20.724      860.622
06/25/2013  19:04:00     -130.545     -110.013       -0.797      107.340      113.090       58.974    11521.819    12789.420     3477.932        2.846        1.389      170.719       48.300        0.080      344.111       20.695      860.621
06/25/2013  19:05:00     -178.794     -123.257        3.678      142.871       96.878       52.145    20412.168     9385.407     2719.135        3.984        1.626      217.162       60.089        0.077      344.141       20.747      860.592
06/25/2013  19:06:00     -122.003     -143.586       -4.723       68.845      107.618       45.993     4739.600    11581.605     2115.336        2.698        0.922      188.419       38.670        0.042      344.093       20.665      860.565
06/25/2013  19:07:00     -157.659     -116.771      -10.293       85.690       61.803       36.909     7342.833     3819.585     1362.285        2.556        0.626      196.193       39.208        0.040      344.121       20.712      860.569
06/25/2013  19:08:00       -7.490      -39.193       17.900       50.721       53.372       33.558     2572.626     2848.611     1126.135        0.423        0.327       39.903       31.467        0.622      344.254       20.942      860.568
06/25/2013  19:09:00      -28.848       36.373       10.068       44.358       40.222       27.775     1967.621     1617.841      771.437        0.331        0.218       46.424       13.237        0.081      344.188       20.829      860.520
06/25/2013  19:10:00     -113.750      -33.024        1.981       59.348       50.027       26.874     3522.212     2502.707      722.229        1.039        0.337      118.447       16.392        0.019      344.220       20.883      860.503
06/25/2013  19:11:00     -163.302      -77.466        1.263       81.340       53.083       35.824     6616.120     2817.774     1283.331        2.169        0.536      180.745       34.852        0.037      344.201       20.850      860.522
06/25/2013  19:12:00     -115.846      -36.969       19.354       83.257       64.697       46.073     6931.717     4185.743     2122.692        1.420        0.662      121.602       52.291        0.185      344.158       20.778      860.520
06/25/2013  19:13:00     -138.713      -73.992       -3.902       82.313       56.444       33.554     6775.354     3185.937     1125.875        1.791        0.554      157.214       41.641        0.070      344.067       20.620      860.523
06/25/2013  19:14:00      -70.115        3.383       21.383       86.414       56.128       41.345     7467.330     3150.298     1709.434        0.885        0.616       70.196       41.296        0.346      343.989       20.490      860.503
06/25/2013  19:15:00     -119.186     -145.517        5.158      135.425      129.341       52.712    18339.987    16729.147     2778.536        3.662        1.892      188.097       55.713        0.088      343.999       20.503      860.504
06/25/2013  19:16:00      -96.636     -215.698        8.751      110.325       97.470       51.021    12171.642     9500.451     2603.116        4.010        1.214      236.356       61.089        0.067      343.841       20.234      860.518
06/25/2013  19:17:00     -189.736     -106.930        0.798       92.760       85.239       46.032     8604.367     7265.752     2118.900        3.271        0.899      217.793       51.141        0.055      343.878       20.298      860.487
06/25/2013  19:18:00     -172.431     -141.347       -8.052       81.112       76.382       38.467     6579.178     5834.192     1479.707        3.183        0.695      222.960       39.696        0.032      343.897       20.327      860.468
06/25/2013  19:19:00     -166.560     -125.080       -0.150      107.046       78.791       41.102    11458.931     6208.038     1689.365        3.137        0.968      208.296       36.622        0.031      343.934       20.393      860.469
06/25/2013  19:20:00     -119.614       -6.978       15.663       98.392       63.477       41.666     9680.952     4029.390     1736.019        1.502        0.772      119.817       45.382        0.143      343.985       20.481      860.466
06/25/2013  19:21:00     -193.294       11.304       -8.148       65.699       60.689       36.520     4316.370     3683.189     1333.705        2.344        0.467      193.625       30.872        0.025      343.957       20.433      860.449
06/25/2013  19:22:00     -142.702      -77.845        7.732       79.857       68.041       39.205     6377.117     4629.580     1537.051        1.951        0.627      162.554       47.387        0.085      343.988       20.486      860.463
06/25/2013  19:23:00     -153.619      -86.772       -1.166       72.770       69.842       39.101     5295.489     4877.853     1528.889        2.141        0.585      176.431       40.464        0.053      343.924       20.377      860.489
06/25/2013  19:24:00     -115.934      -46.749        1.895       57.970       43.230       24.115     3360.547     1868.843      581.535        1.072        0.291      125.005       24.004        0.037      343.977       20.469      860.506
06/25/2013  19:25:00      -35.007     -137.407       15.390       63.816       84.558       32.915     4072.544     7149.988     1083.406        1.632        0.615      141.796       29.070        0.042      344.012       20.527      860.518
06/25/2013  19:26:00      -45.095      -21.304        3.903       44.665       31.374       20.705     1994.930      984.318      428.689        0.295        0.170       49.874       17.892        0.129      344.096       20.673      860.539
06/25/2013  19:27:00      -65.590      -31.891        3.972       47.859       39.253       23.531     2290.475     1540.763      553.690        0.486        0.219       72.932       28.314        0.151      344.088       20.659      860.549
06/25/2013  19:28:00      -29.002      -21.688       -7.640       32.665       25.941       19.471     1066.995      672.911      379.120        0.174        0.106       36.215       11.250        0.097      344.022       20.547      860.552
06/25/2013  19:29:00       -6.776      -25.356       24.054       55.326       33.599       39.937     3061.003     1128.887     1594.933        0.352        0.289       26.246       27.318        1.083      344.093       20.669      860.567
06/25/2013  19:30:00      -58.369       15.606       -0.184       33.536       45.538       24.871     1124.668     2073.717      618.548        0.373        0.191       60.420       18.600        0.095      344.104       20.686      860.574
06/25/2013  19:31:00      -83.707      -66.973       -5.719       47.434       28.623       19.579     2249.962      819.304      383.351        0.749        0.173      107.201       16.872        0.025      344.126       20.724      860.590
06/25/2013  19:32:00     -172.052     -144.812       -5.433      111.815      106.336       62.985    12502.511    11307.272     3967.074        3.918        1.389      224.883       55.532        0.061      343.946       20.413      860.601
06/25/2013  19:33:00     -209.994      -52.002       -3.862      148.805       53.697       48.148    22142.930     2883.343     2318.187        3.708        1.367      216.337       68.073        0.099      343.918       20.366      860.605
06/25/2013  19:34:00     -116.415      -22.128       -3.685       99.740       61.429       42.297     9947.981     3773.549     1788.996        1.478        0.776      118.500       53.755        0.206      343.968       20.452      860.581
06/25/2013  19:35:00     -181.991      -52.053        4.758      112.302       82.354       47.626    12611.696     6782.195     2268.274        2.875        1.083      189.289       49.899        0.069      343.937       20.398      860.563
06/25/2013  19:36:00      -86.114      -28.943       15.430       82.922       48.782       32.357     6875.980     2379.650     1046.949        0.939        0.515       90.848       37.036        0.166      343.968       20.453      860.617
06/25/2013  19:37:00       -5.329      -71.741        3.322       48.809       62.026       35.269     2382.339     3847.219     1243.875        0.633        0.374       71.939       31.162        0.188      344.072       20.633      860.625
06/25/2013  19:38:00     -175.221     -115.558       -5.436       84.610       70.990       40.934     7158.795     5039.517     1675.562        2.898        0.694      209.895       43.190        0.042      344.031       20.558      860.636
06/25/2013  19:39:00     -137.785      -40.006        7.809       86.362       59.172       38.297     7458.477     3501.361     1466.652        1.653        0.621      143.476       42.153        0.086      344.000       20.506      860.614
06/25/2013  19:40:00     -174.086       22.688       -6.681       56.617       45.821       25.530     3205.455     2099.566      651.780        1.841        0.298      175.558       18.961        0.012      343.970       20.457      860.574
06/25/2013  19:41:00     -198.759      -69.504       -4.717       87.841       82.414       39.375     7716.055     6791.994     1550.414        3.021        0.803      210.561       33.764        0.026      343.914       20.359      860.555
06/25/2013  19:42:00     -195.641     -162.559      -10.385       78.090       60.869       38.327     6098.016     3705.078     1468.959        3.804        0.564      254.364       37.125        0.021      343.806       20.172      860.586
06/25/2013  19:43:00     -232.865     -118.961      -11.664       78.268       42.033       34.742     6125.864     1766.807     1207.041        3.881        0.455      261.492       39.930        0.023      343.773       20.116      860.615
06/25/2013  19:44:00     -120.808     -105.197        5.301       82.359       70.005       45.043     6783.052     4900.662     2028.901        1.970        0.686      160.191       47.850        0.089      343.831       20.218      860.609
06/25/2013  19:45:00     -104.188      -55.297        4.135       47.219       42.350       26.142     2229.675     1793.481      683.379        0.932        0.235      117.953       26.718        0.051      343.829       20.219      860.570
06/25/2013  19:46:00     -180.756     -142.496      -12.478       83.854       75.434       40.941     7031.518     5690.231     1676.204        3.376        0.720      230.169       47.134        0.042      343.864       20.273      860.597
06/25/2013  19:47:00     -160.836      -20.388       -9.072       45.641       50.841       34.553     2083.056     2584.807     1193.907        1.611        0.293      162.123       27.647        0.029      343.871       20.287      860.601
06/25/2013  19:48:00     -218.003      -17.619      -24.945       53.952       29.626       23.832     2910.831      877.684      567.977        2.641        0.218      218.714       17.026        0.006      343.882       20.306      860.587
06/25/2013  19:49:00     -128.326      -47.495       -7.857       50.178       44.317       23.705     2517.860     1964.028      561.909        1.191        0.252      136.833       23.835        0.030      343.923       20.376      860.611
06/25/2013  19:50:00     -128.151      -75.236       -1.692       57.474       43.458       30.104     3303.271     1888.577      906.226        1.409        0.305      148.604       24.761        0.028      343.963       20.444      860.649
06/25/2013  19:51:00      -85.375      -30.023       -9.641       69.499       38.087       19.085     4830.166     1450.652      364.256        0.746        0.332       90.500       22.514        0.062      344.010       20.525      860.654
06/25/2013  19:52:00      -63.912      -79.431        7.412       85.387       65.415       36.908     7290.991     4279.110     1362.169        1.169        0.647      101.951       42.628        0.175      344.001       20.510      860.689
06/25/2013  19:53:00     -152.126      -78.970        0.089       59.426       55.362       30.122     3531.447     3064.966      907.322        1.844        0.375      171.402       29.875        0.030      343.917       20.367      860.689
06/25/2013  19:54:00      -97.807       -7.208       -3.099       41.916       30.593       23.096     1756.909      935.906      533.412        0.643        0.161       98.072       20.014        0.042      343.916       20.364      860.672
06/25/2013  19:55:00      -94.208      -27.826      -12.656       56.697       23.285       13.258     3214.541      542.174      175.778        0.687        0.197       98.232       14.956        0.023      343.966       20.450      860.659
06/25/2013  19:56:00     -184.074      -53.838      -15.265       73.413       62.086       30.420     5389.420     3854.641      925.356        2.359        0.508      191.786       32.793        0.029      343.980       20.472      860.651
06/25/2013  19:57:00     -105.177       18.448       -1.946       72.521       41.979       34.339     5259.293     1762.244     1179.176        0.980        0.410      106.783       39.809        0.139      343.980       20.474      860.659
06/25/2013  19:58:00      -71.817      -26.252       -2.162       64.909       39.802       38.162     4213.220     1584.167     1456.339        0.655        0.363       76.464       34.133        0.199      344.010       20.525      860.680
06/25/2013  19:59:00     -118.952       -8.675        1.129       82.376       47.229       31.168     6785.865     2230.599      971.461        1.211        0.499      119.268       34.619        0.084      344.026       20.551      860.672
06/25/2013  20:00:00      -76.735      -24.033       15.992       79.114       48.850       39.437     6259.029     2386.317     1555.263        0.846        0.510       80.411       35.596        0.196      344.019       20.541      860.668
06/25/2013  20:01:00      -61.196      -57.109        3.687       62.124       46.891       33.642     3859.412     2198.759     1131.760        0.710        0.359       83.704       29.063        0.121      344.018       20.539      860.731
06/25/2013  20:02:00     -241.934     -167.130        4.670      187.250      171.000       78.836    35062.560    29240.890     6215.083        7.849        3.526      294.048       83.173        0.080      344.069       20.625      860.741
06/25/2013  20:03:00     -319.830     -144.100      -16.726      184.778      105.104       64.958    34143.061    11046.812     4219.589        8.636        2.470      350.794       77.927        0.049      344.080       20.642      860.737
06/25/2013  20:04:00     -215.265       14.946      -18.343       97.044      158.484       44.501     9417.522    25117.099     1980.374        4.170        1.826      215.783       48.638        0.051      344.045       20.584      860.718
06/25/2013  20:05:00     -188.265     -100.197       -6.065       91.539      115.352       40.686     8379.297    13306.127     1655.387        3.443        1.167      213.268       40.055        0.035      344.080       20.641      860.737
06/25/2013  20:06:00     -121.249     -123.096        8.455       84.934       78.776       42.977     7213.856     6205.624     1847.022        2.259        0.763      172.783       22.887        0.018      344.093       20.665      860.782
06/25/2013  20:07:00     -219.853     -134.231       11.271      133.950      109.969       72.491    17942.699    12093.144     5254.911        5.088        1.765      257.591       83.369        0.105      343.952       20.423      860.793
06/25/2013  20:08:00     -204.434      -33.145       -7.002       91.076       48.577       34.092     8294.911     2359.738     1162.250        2.738        0.591      207.104       29.642        0.020      343.808       20.179      860.811
06/25/2013  20:09:00     -106.967      -48.930        2.898       45.925       45.176       29.195     2109.103     2040.873      852.338        0.942        0.250      117.627       24.863        0.045      343.828       20.216      860.828
06/25/2013  20:10:00      -42.615     -110.042       -0.858       28.220       49.512       20.726      796.367     2451.394      429.570        0.880        0.184      118.005       14.712        0.016      343.840       20.236      860.828
06/25/2013  20:11:00      -71.049      -52.262        1.930       41.169       27.772       22.827     1694.927      771.291      521.077        0.538        0.149       88.201       20.443        0.054      343.859       20.267      860.822
06/25/2013  20:12:00     -117.233      -30.783       -7.057       34.474       41.754       19.204     1188.472     1743.368      368.782        0.902        0.165      121.208       20.116        0.028      343.877       20.298      860.791
06/25/2013  20:13:00     -117.296       84.480        4.464       91.048       72.718       53.548     8289.696     5287.864     2867.373        1.868        0.822      144.552       33.081        0.052      343.877       20.298      860.736
06/25/2013  20:14:00      -57.094       -8.496       -2.146       75.152       78.480       40.444     5647.862     6159.117     1635.738        0.839        0.672       57.722       42.801        0.550      343.968       20.452      860.752
06/25/2013  20:15:00     -102.745      -78.640        7.258       64.387       54.909       35.464     4145.633     3014.994     1257.722        1.260        0.421      129.386       37.126        0.082      343.936       20.399      860.798
06/25/2013  20:16:00      -84.933      -76.594       20.793       75.544       55.072       42.552     5706.907     3032.888     1810.657        1.203        0.528      114.369       46.576        0.166      343.928       20.385      860.785
06/25/2013  20:17:00     -171.061      -70.675      -12.530       72.674       78.436       36.319     5281.443     6152.224     1319.091        2.358        0.638      185.086       30.890        0.028      343.911       20.353      860.772
06/25/2013  20:18:00     -224.709      -90.358       -1.795       68.199       51.979       39.079     4651.163     2701.804     1527.176        3.377        0.444      242.196       33.814        0.019      343.852       20.252      860.782
06/25/2013  20:19:00     -193.241     -102.623      -20.738       60.297       45.867       35.566     3635.719     2103.737     1264.909        2.765        0.350      218.800       24.077        0.012      343.867       20.278      860.784
06/25/2013  20:20:00     -163.665      -29.567       -3.265       66.229       70.902       33.273     4386.331     5027.124     1107.095        1.909        0.526      166.315       30.726        0.034      343.897       20.331      860.786
06/25/2013  20:21:00     -159.866     -119.464       -7.902       76.778       81.565       44.024     5894.898     6652.885     1938.147        2.719        0.724      199.572       42.153        0.045      343.892       20.318      860.772
06/25/2013  20:22:00     -164.614      -75.091       -0.779       82.236       72.432       40.172     6762.691     5246.458     1613.771        2.318        0.681      180.932       42.453        0.055      343.880       20.300      860.760
06/25/2013  20:23:00     -226.825      -20.585       -4.397      100.481       57.890       41.596    10096.499     3351.229     1730.241        3.353        0.759      227.757       42.511        0.035      343.883       20.304      860.781
06/25/2013  20:24:00     -223.382      -63.096       -5.812       65.308       49.050       31.973     4265.078     2405.916     1022.262        3.080        0.385      232.121       28.320        0.015      343.894       20.322      860.799
06/25/2013  20:25:00     -228.277      -85.480       -3.506       87.199       64.280       37.731     7603.654     4131.865     1423.612        3.629        0.658      243.756       40.253        0.027      343.865       20.276      860.807
06/25/2013  20:26:00     -238.263       17.534      -21.949       46.950       56.332       32.520     2204.313     3173.310     1057.539        3.200        0.322      238.908       28.393        0.014      343.875       20.292      860.812
06/25/2013  20:27:00     -146.132      -14.210       -9.701       65.648       45.832       30.232     4309.650     2100.591      913.997        1.449        0.366      146.821       25.486        0.030      343.864       20.276      860.795
06/25/2013  20:28:00     -185.360      -44.471      -15.896       74.311       42.638       35.543     5522.081     1818.032     1263.282        2.259        0.430      190.620       33.646        0.031      343.886       20.313      860.775
06/25/2013  20:29:00     -174.104      -25.777      -18.362       95.968       54.385       38.824     9209.786     2957.684     1507.341        2.249        0.684      176.002       38.420        0.048      343.881       20.304      860.775
06/25/2013  20:30:00     -158.473      -66.749      -14.657       85.414       51.625       34.579     7295.550     2665.116     1195.681        2.047        0.558      171.956       27.491        0.026      343.871       20.286      860.753
06/25/2013  20:31:00     -171.415        2.852      -22.111       48.274       69.260       40.170     2330.400     4796.909     1613.646        1.931        0.437      171.439       37.983        0.049      343.857       20.262      860.735
06/25/2013  20:32:00     -169.172       46.324      -29.700       55.289       52.169       30.275     3056.914     2721.655      916.584        1.917        0.335      175.400       23.089        0.017      343.803       20.170      860.725
06/25/2013  20:33:00     -168.239      -43.646      -10.744       65.484       72.310       39.181     4288.176     5228.665     1535.145        2.069        0.553      173.808       37.286        0.046      343.856       20.261      860.730
06/25/2013  20:34:00     -347.089       30.935      -39.980      113.996       96.622       46.528    12994.983     9335.903     2164.817        7.376        1.225      348.464       36.979        0.011      343.835       20.222      860.751
06/25/2013  20:35:00     -388.032        8.551      -36.641      101.901       77.137       48.859    10383.915     5950.152     2387.234        8.535        0.936      388.126       53.058        0.019      343.863       20.273      860.736
06/25/2013  20:36:00     -180.753       68.095      -25.031       56.423       62.462       24.057     3183.603     3901.468      578.720        2.280        0.383      193.155       13.380        0.005      344.007       20.517      860.689
06/25/2013  20:37:00     -245.886      -36.279      -17.133       79.321       62.792       27.405     6291.875     3942.828      751.041        3.653        0.549      248.548       14.519        0.003      343.995       20.496      860.702
06/25/2013  20:38:00     -175.767      -10.244      -16.979       58.704       63.963       29.555     3446.180     4091.286      873.477        1.985        0.421      176.066       20.499        0.014      343.910       20.352      860.721
06/25/2013  20:39:00     -153.440      -62.989       -0.556       75.993       53.287       32.356     5774.958     2839.526     1046.934        1.858        0.483      165.866       33.777        0.041      343.870       20.286      860.755
06/25/2013  20:40:00     -233.240      -49.155      -10.062      108.823      113.494       47.957    11842.481    12880.847     2299.903        4.197        1.351      238.363       48.824        0.042      343.891       20.320      860.778
06/25/2013  20:41:00     -184.149      -17.254        3.220      120.325      102.399       58.258    14478.201    10485.528     3393.951        3.128        1.418      184.955       64.592        0.122      343.878       20.298      860.805
06/25/2013  20:42:00     -372.956      -75.785      -30.648       99.337       74.481       60.589     9867.886     5547.476     3670.983        8.243        0.954      380.578       54.803        0.021      343.818       20.195      860.834
06/25/2013  20:43:00     -254.708     -104.600      -15.142       95.785       85.039       45.487     9174.769     7231.575     2069.066        4.726        0.924      275.350       39.249        0.020      343.808       20.177      860.825
06/25/2013  20:44:00     -278.546      -56.108      -21.502       81.918       72.814       45.752     6710.541     5301.942     2093.260        4.765        0.705      284.141       46.027        0.026      343.778       20.128      860.814
06/25/2013  20:45:00     -287.526      -38.289      -17.864      106.452       97.342       54.088    11331.956     9475.553     2925.472        5.409        1.187      290.064       58.921        0.041      343.778       20.127      860.807
06/25/2013  20:46:00     -266.653      -78.400       -6.827       59.070       54.086       40.440     3489.262     2925.283     1635.355        4.267        0.402      277.940       35.147        0.016      343.752       20.076      860.810
06/25/2013  20:47:00     -153.915      -37.925       -6.694       43.314       36.699       26.445     1876.132     1346.847      699.336        1.455        0.196      158.519       17.705        0.012      343.758       20.091      860.843
06/25/2013  20:48:00     -110.442      -13.459        6.439       55.681       58.052       30.929     3100.360     3370.042      956.605        0.992        0.371      111.259       28.175        0.064      343.767       20.108      860.854
06/25/2013  20:49:00     -157.786      -51.388        0.540       77.438       65.766       35.718     5996.720     4325.110     1275.785        1.957        0.580      165.943       28.953        0.030      343.763       20.101      860.848
06/25/2013  20:50:00     -172.507      -20.901      -13.292       46.066       49.326       26.667     2122.050     2433.051      711.144        1.782        0.263      173.768       26.530        0.023      343.772       20.115      860.848
06/25/2013  20:51:00     -254.300     -138.891      -11.260      111.551       78.984       52.500    12443.736     6238.435     2756.294        5.276        1.072      289.757       55.601        0.037      343.751       20.078      860.847
06/25/2013  20:52:00     -193.495      -96.526       -2.560       73.178       64.237       41.149     5355.008     4126.347     1693.218        2.897        0.559      216.235       39.865        0.034      343.728       20.040      860.876
06/25/2013  20:53:00     -260.175      -30.803      -12.913       76.479       69.573       42.729     5849.050     4840.334     1825.740        4.066        0.626      261.992       40.932        0.024      343.718       20.022      860.892
06/25/2013  20:54:00     -210.725      -49.599       -7.220       47.584       53.704       27.769     2264.190     2884.130      771.143        2.642        0.296      216.484       24.431        0.013      343.717       20.020      860.875
06/25/2013  20:55:00     -216.759      -46.895       -4.470       60.429       85.773       38.764     3651.644     7357.034     1502.648        3.085        0.626      221.774       33.184        0.022      343.720       20.025      860.876
06/25/2013  20:56:00     -245.120        2.699      -27.016       38.857       47.569       23.463     1509.834     2262.795      550.489        3.257        0.216      245.135       19.498        0.006      343.729       20.039      860.861
06/25/2013  20:57:00     -156.370      -22.763       -9.051       55.504       33.348       25.149     3080.684     1112.094      632.494        1.494        0.241      158.018       25.224        0.025      343.719       20.031      860.843
06/25/2013  20:58:00     -139.704      -54.786        1.450       51.494       46.590       26.960     2651.605     2170.669      726.865        1.403        0.277      150.062       24.480        0.027      343.707       20.008      860.840
06/25/2013  20:59:00      -83.979      -39.346       -4.740       24.825       32.170       20.642      616.284     1034.910      426.085        0.535        0.104       92.739       12.121        0.017      343.721       20.034      860.846
06/25/2013  21:00:00     -160.744      -28.406      -15.266       54.763       52.908       25.013     2998.999     2799.205      625.630        1.665        0.321      163.235       30.302        0.034      343.721       20.030      860.843
06/25/2013  21:01:00     -193.174      -16.448      -17.781       40.932       42.569       30.321     1675.441     1812.095      919.347        2.115        0.220      193.873       23.405        0.015      343.725       20.036      860.872
06/25/2013  21:02:00     -149.509       -1.456       -4.317       61.340       48.843       29.510     3762.606     2385.670      870.815        1.469        0.351      149.516       34.183        0.052      343.713       20.019      860.891
06/25/2013  21:03:00     -187.918      -24.059       -8.001       82.633       62.269       39.590     6828.153     3877.446     1567.363        2.411        0.614      189.452       35.263        0.035      343.703       19.998      860.890
06/25/2013  21:04:00     -274.335      -88.546      -24.209       66.356       64.653       41.977     4403.131     4179.948     1762.087        4.701        0.517      288.271       32.064        0.012      343.684       19.964      860.877
06/25/2013  21:05:00     -262.431      -55.024       -5.054       86.745       65.422       42.449     7524.759     4280.049     1801.942        4.276        0.680      268.137       42.963        0.026      343.654       19.913      860.865
06/25/2013  21:06:00     -177.438      -53.902       -4.053       70.007       51.662       28.414     4901.033     2668.911      807.376        2.139        0.419      185.444       25.056        0.018      343.645       19.901      860.847
06/25/2013  21:07:00     -175.903      -57.571      -12.797       39.672       37.430       24.497     1573.875     1400.968      600.126        1.900        0.179      185.085       15.313        0.007      343.662       19.931      860.837
06/25/2013  21:08:00      -59.286      -44.448        5.921       56.773       36.846       30.882     3223.227     1357.655      953.693        0.553        0.277       74.098       31.504        0.181      343.672       19.948      860.852
06/25/2013  21:09:00      -38.016      -15.475        6.575       40.082       25.677       28.231     1606.604      659.307      796.994        0.239        0.153       41.045       25.068        0.373      343.696       19.988      860.895
06/25/2013  21:10:00      -45.015      -34.384       17.514       66.487       42.689       30.366     4420.568     1822.370      922.118        0.534        0.358       56.645       35.157        0.385      343.721       20.032      860.967
06/25/2013  21:11:00      -87.179      -83.421       -1.737       60.669       48.027       29.715     3680.744     2306.614      882.986        1.071        0.344      120.662       30.246        0.063      343.706       20.005      861.009
06/25/2013  21:12:00      -76.637     -104.741        0.645       57.486       42.574       27.992     3304.595     1812.555      783.526        1.137        0.295      129.784       20.119        0.024      343.793       20.155      861.023
06/25/2013  21:13:00      -48.147      -89.368       -2.527       42.396       43.184       23.201     1797.390     1864.831      538.293        0.725        0.210      101.512       20.300        0.040      343.794       20.158      861.021
06/25/2013  21:14:00      -23.166      -41.678        1.858       45.010       41.195       22.579     2025.926     1697.048      509.797        0.325        0.212       47.684       19.252        0.163      343.795       20.157      861.030
06/25/2013  21:15:00       -9.609      -27.468       13.786       36.473       27.420       24.908     1330.300      751.855      620.429        0.187        0.135       29.100       27.096        0.867      343.795       20.158      861.037
06/25/2013  21:16:00      -32.045      -29.188        3.437       32.887       22.274       17.542     1081.529      496.125      307.734        0.189        0.094       43.346       17.333        0.160      343.749       20.077      861.036
06/25/2013  21:17:00      -91.994      -46.820       -7.450       23.467       17.898       12.022      550.694      320.340      144.527        0.586        0.051      103.223        7.516        0.005      343.760       20.097      861.042
06/25/2013  21:18:00     -159.493      -22.146      -10.216       54.621       35.940       27.824     2983.411     1291.667      774.173        1.554        0.252      161.023       26.881        0.028      343.719       20.029      861.073
06/25/2013  21:19:00     -234.487      -14.378       -4.774      103.124       81.500       42.059    10634.457     6642.225     1769.000        3.713        0.952      234.927       44.206        0.035      343.677       19.954      861.092
06/25/2013  21:20:00     -150.979      -25.348       -3.049       71.481       45.838       33.830     5109.564     2101.142     1144.487        1.590        0.418      153.092       36.468        0.057      343.678       19.956      861.099
06/25/2013  21:21:00     -173.202      -69.061        2.058       92.904       63.616       32.400     8631.217     4046.962     1049.737        2.425        0.686      186.463       38.229        0.042      343.710       20.011      861.104
06/25/2013  21:22:00     -232.219      -60.958       -7.488       80.499       60.444       35.923     6480.154     3653.441     1290.486        3.456        0.571      240.087       36.337        0.023      343.711       20.011      861.104
06/25/2013  21:23:00     -146.959      -39.198        3.083       69.794       65.599       35.340     4871.152     4303.214     1248.935        1.678        0.521      152.097       32.214        0.045      343.713       20.017      861.099
06/25/2013  21:24:00     -144.785       16.221       -1.900       61.770       49.358       28.728     3815.491     2436.209      825.277        1.415        0.354      145.691       31.142        0.046      343.696       19.988      861.091
06/25/2013  21:25:00     -139.442       38.099      -15.386       34.669       41.418       22.649     1201.973     1715.428      512.987        1.228        0.172      144.553       12.860        0.008      343.687       19.972      861.108
06/25/2013  21:26:00      -64.304       17.080       -6.190       40.478       24.538       18.431     1638.476      602.118      339.687        0.352        0.129       66.534        6.187        0.009      343.686       19.969      861.163
06/25/2013  21:27:00      -50.189      -31.521        5.495       64.800       48.400       28.844     4199.095     2342.587      831.949        0.546        0.369       59.267       21.380        0.130      343.704       20.004      861.227
06/25/2013  21:28:00     -119.004      -55.104       -2.427       54.553       46.963       37.081     2975.990     2205.532     1374.988        1.188        0.328      131.143       28.997        0.049      343.687       19.972      861.272
06/25/2013  21:29:00      -27.654      -18.042       11.677       40.597       40.482       17.713     1648.079     1638.805      313.742        0.241        0.180       33.019       19.421        0.346      343.697       19.991      861.294
06/25/2013  21:30:00       -5.817      -45.154        6.832       14.255       15.653       13.759      203.212      245.007      189.307        0.138        0.032       45.527        6.796        0.022      343.743       20.069      861.300
06/25/2013  21:31:00      -58.440      -15.641       -3.366       26.469       23.758       15.561      700.613      564.449      242.146        0.259        0.075       60.497       12.123        0.040      343.733       20.051      861.303
06/25/2013  21:32:00        5.040        4.150       18.735       15.774        9.308       10.258      248.820       86.639      105.228        0.042        0.022        6.529        8.570        1.723      343.710       20.012      861.286
06/25/2013  21:33:00        9.896      -13.293        7.968       26.221       12.894       14.882      687.535      166.251      221.487        0.071        0.054       16.572       12.115        0.534      343.686       19.971      861.258
06/25/2013  21:34:00        9.047       18.038       -1.036       29.413       17.015       13.730      865.143      289.526      188.526        0.088        0.067       20.180       10.758        0.284      343.661       19.927      861.248
06/25/2013  21:35:00      -41.305      -10.483       -1.745       20.904       11.885        7.312      436.972      141.262       53.469        0.123        0.032       42.614        6.073        0.020      343.655       19.919      861.258
06/25/2013  21:36:00      -39.394      -31.475       -2.914       31.096       14.586        9.095      966.947      212.742       82.720        0.191        0.063       50.424        6.575        0.017      343.734       20.053      861.283
06/25/2013  21:37:00       -2.305      -55.104        7.564       15.535       25.875       19.010      241.341      669.490      361.390        0.219        0.064       55.152       15.920        0.083      343.709       20.013      861.301
06/25/2013  21:38:00      -37.647      -41.859       -5.662       31.013       29.271       17.134      961.778      856.767      293.575        0.266        0.106       56.298       15.342        0.074      343.732       20.051      861.293
06/25/2013  21:39:00     -104.419      -49.360       10.854       56.818       51.261       28.819     3228.273     2627.692      830.513        1.007        0.334      115.498       28.438        0.061      343.664       19.934      861.292
06/25/2013  21:40:00     -148.373      -54.186       -4.389       75.557       54.155       28.165     5708.822     2932.772      793.254        1.720        0.472      157.958       36.714        0.054      343.675       19.951      861.310
06/25/2013  21:41:00      -77.183      -51.250       -5.018       22.340       35.585       16.964      499.096     1266.260      287.785        0.533        0.103       92.649       14.244        0.024      343.685       19.971      861.337
06/25/2013  21:42:00      -39.216      -18.053       14.520       30.925       29.345       22.952      956.383      861.103      526.792        0.221        0.117       43.171       17.437        0.163      343.699       19.993      861.359
06/25/2013  21:43:00      -18.391      -22.287        8.903       30.037       21.373       15.821      902.250      456.816      250.301        0.126        0.080       28.895       19.225        0.443      343.678       19.957      861.344
06/25/2013  21:44:00      -51.741      -54.915       12.098       65.406       44.757       35.501     4278.008     2003.233     1260.354        0.669        0.377       75.450       38.904        0.266      343.689       19.977      861.304
06/25/2013  21:45:00      -35.010       -9.215        5.169       36.679       28.245       26.032     1345.369      797.753      677.662        0.208        0.141       36.203       22.344        0.381      343.659       19.924      861.286
06/25/2013  21:46:00     -119.674      -53.296      -11.307       47.056       36.631       26.768     2214.243     1341.826      716.518        1.078        0.214      131.006       27.130        0.043      343.656       19.921      861.281
06/25/2013  21:47:00     -146.750      -47.301       -9.368       32.154       32.956       18.506     1033.898     1086.126      342.457        1.316        0.123      154.184       13.449        0.008      343.666       19.933      861.298
06/25/2013  21:48:00     -116.273      -57.277       -4.071       44.280       33.773       17.560     1960.752     1140.614      308.368        1.011        0.170      129.614       15.459        0.014      343.654       19.916      861.313
06/25/2013  21:49:00      -76.649        0.357        5.458       61.437       39.629       29.316     3774.553     1570.443      859.432        0.605        0.310       76.650       31.365        0.167      343.669       19.942      861.319
06/25/2013  21:50:00      -95.158      -35.625        2.099       25.389       33.303       22.825      644.617     1109.114      520.997        0.630        0.114      101.608       15.607        0.024      343.660       19.925      861.329
06/25/2013  21:51:00     -183.082      -62.856       -4.964       69.217       31.296       30.018     4791.012      979.457      901.055        2.208        0.334      193.571       36.651        0.036      343.619       19.857      861.338
06/25/2013  21:52:00     -120.385       -1.095       -5.681       55.290       37.288       27.566     3057.005     1390.384      759.857        0.987        0.260      120.390       29.397        0.060      343.632       19.881      861.354
06/25/2013  21:53:00      -50.182      -47.571        2.612       37.700       27.461       24.529     1421.284      754.114      601.684        0.378        0.139       69.146       21.691        0.098      343.614       19.850      861.365
06/25/2013  21:54:00      -39.009      -41.608       -5.384       20.920       22.207       12.128      437.633      493.134      147.088        0.218        0.054       57.034        8.867        0.024      343.628       19.876      861.373
06/25/2013  21:55:00      -88.394      -22.216        1.774       31.486       16.243       12.631      991.393      263.823      159.537        0.486        0.071       91.143       13.056        0.021      343.631       19.882      861.406
06/25/2013  21:56:00     -109.490      -52.430       -1.320       27.152       22.748       13.868      737.242      517.463      192.316        0.809        0.072      121.396       12.437        0.010      343.617       19.856      861.443
06/25/2013  21:57:00      -79.615      -72.593       -0.621       38.687       34.804       18.335     1496.708     1211.295      336.175        0.733        0.152      107.741       15.018        0.019      343.632       19.882      861.477
06/25/2013  21:58:00     -133.167     -121.345       -6.420       45.736       37.866       30.733     2091.742     1433.805      944.506        1.848        0.224      180.161       25.510        0.020      343.627       19.873      861.510
06/25/2013  21:59:00     -148.704      -80.372        0.699       66.579       44.769       29.664     4432.730     2004.296      879.965        1.794        0.366      169.034       30.070        0.032      343.628       19.873      861.538
06/25/2013  22:00:00     -115.463      -51.760       -4.007       60.807       42.614       26.240     3697.537     1815.937      688.544        1.111        0.310      126.534       21.782        0.030      343.606       19.837      861.538
06/25/2013  22:01:00     -156.292       14.697       -9.582       42.052       38.129       25.518     1768.380     1453.807      651.166        1.430        0.194      156.982       17.980        0.013      343.622       19.864      861.541
06/25/2013  22:02:00     -185.443      -41.901       -2.034       68.396       48.469       36.438     4677.956     2349.273     1327.735        2.225        0.418      190.118       38.916        0.042      343.624       19.864      861.530
06/25/2013  22:03:00     -118.652      -27.414       -2.610       48.123       32.772       23.022     2315.823     1073.977      530.034        0.938        0.196      121.777       26.042        0.046      343.616       19.855      861.521
06/25/2013  22:04:00      -85.475      -19.170        6.716       46.670       26.851       23.915     2178.109      720.972      571.909        0.559        0.174       87.599       26.240        0.090      343.585       19.802      861.510
06/25/2013  22:05:00     -125.316      -45.651       -4.199       37.715       29.131       21.026     1422.399      848.608      442.089        1.026        0.136      133.372       14.333        0.012      343.596       19.818      861.519
06/25/2013  22:06:00     -150.360      -21.610       -2.361       55.591       36.371       31.369     3090.308     1322.839      984.008        1.424        0.270      151.905       31.667        0.043      343.605       19.834      861.534
06/25/2013  22:07:00     -141.198      -41.882       -3.885       45.176       42.517       28.468     2040.863     1807.692      810.412        1.318        0.233      147.279       28.152        0.037      343.584       19.798      861.557
06/25/2013  22:08:00     -127.792      -23.379      -11.386       50.835       43.541       29.999     2584.196     1895.846      899.913        1.119        0.269      129.913       29.281        0.051      343.580       19.790      861.560
06/25/2013  22:09:00      -85.499      -15.595        0.336       34.235       43.345       22.042     1172.019     1878.771      485.837        0.554        0.177       86.910       19.107        0.048      343.561       19.757      861.536
06/25/2013  22:10:00      -70.110      -15.161      -11.553       25.501       16.464       10.999      650.304      271.049      120.976        0.316        0.052       71.731        4.869        0.005      343.550       19.741      861.508
06/25/2013  22:11:00     -101.572      -19.592       -9.320       34.435       22.656       17.277     1185.800      513.312      298.491        0.639        0.100      103.444       15.246        0.022      343.549       19.739      861.497
06/25/2013  22:12:00     -128.255      -44.054       -8.805       35.493       29.066       20.836     1259.727      844.807      434.125        1.050        0.127      135.610       19.676        0.021      343.545       19.732      861.508
06/25/2013  22:13:00     -146.453      -52.732       -0.524       32.145       29.546       20.466     1033.301      872.955      418.869        1.328        0.116      155.658       19.806        0.016      343.548       19.739      861.527
06/25/2013  22:14:00     -203.688      -80.886        2.643       42.263       39.403       29.472     1786.144     1552.558      868.628        2.612        0.210      219.161       19.838        0.008      343.530       19.703      861.538
06/25/2013  22:15:00     -159.815      -49.838      -12.232       54.834       40.394       24.719     3006.786     1631.649      611.047        1.671        0.262      167.406       21.501        0.016      343.539       19.723      861.542
06/25/2013  22:16:00     -163.749      -65.169       -6.775       52.498       41.720       26.971     2756.051     1740.553      727.416        1.816        0.261      176.241       28.351        0.026      343.518       19.684      861.554
06/25/2013  22:17:00     -204.102      -70.945       -3.790       45.889       27.371       28.321     2105.845      749.157      802.099        2.518        0.183      216.080       25.779        0.014      343.487       19.630      861.570
06/25/2013  22:18:00     -135.097      -57.825       -0.852       38.340       40.784       21.561     1469.985     1663.306      464.882        1.260        0.180      146.952       16.417        0.012      343.465       19.597      861.584
06/25/2013  22:19:00     -100.347      -26.177       -1.664       39.639       45.006       21.965     1571.276     2025.509      482.469        0.742        0.204      103.705       18.194        0.031      343.448       19.566      861.590
06/25/2013  22:20:00     -133.526      -25.535        0.675       48.555       41.892       28.101     2357.609     1754.954      789.672        1.169        0.245      135.946       25.957        0.036      343.449       19.569      861.579
06/25/2013  22:21:00      -90.486      -26.490       -1.301       29.136       26.030       16.629      848.904      677.569      276.521        0.535        0.090       94.284       10.445        0.012      343.467       19.599      861.559
06/25/2013  22:22:00     -112.460      -29.455       -0.103       40.534       34.876       17.301     1643.030     1216.352      299.333        0.834        0.158      116.254       22.477        0.037      343.482       19.623      861.546
06/25/2013  22:23:00     -113.421      -58.303       -8.755       39.817       27.327       16.653     1585.371      746.780      277.329        0.947        0.130      127.529       13.266        0.011      343.492       19.640      861.549
06/25/2013  22:24:00     -158.656      -72.079       -6.617       50.294       30.992       22.923     2529.490      960.524      525.460        1.721        0.201      174.261       24.782        0.020      343.440       19.551      861.561
06/25/2013  22:25:00     -162.451      -51.015        2.622       82.463       60.409       34.239     6800.212     3649.304     1172.298        2.031        0.581      170.273       34.492        0.041      343.439       19.548      861.568
06/25/2013  22:26:00     -166.012      -38.471       -0.738       66.061       50.894       30.772     4364.019     2590.178      946.920        1.847        0.395      170.411       30.529        0.032      343.455       19.577      861.574
06/25/2013  22:27:00     -136.990      -75.410        1.668       61.640       47.693       29.749     3799.502     2274.601      885.010        1.571        0.348      156.374       30.701        0.039      343.446       19.563      861.586
06/25/2013  22:28:00      -72.481      -39.981        5.164       64.006       41.190       23.009     4096.775     1696.580      529.399        0.660        0.316       82.777       27.302        0.109      343.480       19.622      861.598
06/25/2013  22:29:00     -130.420      -24.557       -7.027       46.572       36.306       20.567     2168.923     1318.161      422.996        1.079        0.196      132.712       12.505        0.009      343.485       19.630      861.606
06/25/2013  22:30:00     -145.419      -71.351       -4.237       40.531       36.614       21.554     1642.730     1340.599      464.588        1.485        0.172      161.981       20.858        0.017      343.476       19.614      861.603
06/25/2013  22:31:00     -157.152      -35.521       -0.428       43.116       47.970       29.887     1858.949     2301.121      893.236        1.550        0.253      161.116       26.490        0.027      343.443       19.558      861.609
06/25/2013  22:32:00     -123.389      -29.578       -8.084       74.280       35.592       25.263     5517.580     1266.780      638.221        1.179        0.371      126.884       34.382        0.073      343.484       19.627      861.617
06/25/2013  22:33:00     -113.055      -29.073      -11.917       38.213       29.424       23.072     1460.241      865.744      532.332        0.831        0.143      116.734       17.609        0.023      343.463       19.592      861.612
06/25/2013  22:34:00     -165.898      -27.983      -16.777       54.559       50.167       21.950     2976.708     2516.762      481.818        1.728        0.299      168.241       22.088        0.017      343.459       19.584      861.603
06/25/2013  22:35:00     -145.197     -102.373       -0.582       72.724       65.207       38.804     5288.770     4251.935     1505.730        2.130        0.552      177.658       37.511        0.045      343.452       19.572      861.568
06/25/2013  22:36:00     -141.359      -29.593      -13.885       54.846       32.589       25.784     3008.058     1062.035      664.800        1.289        0.237      144.423       26.202        0.033      343.500       19.656      861.561
06/25/2013  22:37:00     -127.750      -70.926       -5.358       39.265       30.540       24.321     1541.775      932.715      591.497        1.222        0.153      146.118       24.174        0.027      343.525       19.697      861.559
06/25/2013  22:38:00      -92.812      -44.082       -8.691       66.990       51.136       35.387     4487.683     2614.937     1252.232        0.949        0.418      102.748       37.920        0.136      343.526       19.700      861.550
06/25/2013  22:39:00     -138.224      -18.918      -11.683       28.333       24.891       19.041      802.738      619.556      362.558        1.069        0.089      139.513       13.088        0.009      343.544       19.734      861.550
06/25/2013  22:40:00     -123.133      -28.789       -7.756       31.459       39.792       19.053      989.638     1583.364      363.035        0.949        0.147      126.453       19.278        0.023      343.573       19.781      861.562
06/25/2013  22:41:00     -135.664      -16.226        0.892       69.472       47.823       35.080     4826.365     2287.025     1230.616        1.350        0.417      136.631       36.935        0.073      343.463       19.592      861.557
06/25/2013  22:42:00     -159.224      -39.132       -0.365       37.269       31.887       22.398     1389.013     1016.769      501.659        1.489        0.145      163.962       15.215        0.009      343.460       19.588      861.555
06/25/2013  22:43:00      -99.905      -23.784        5.946       42.602       27.322       18.793     1814.909      746.513      353.177        0.675        0.146      102.697       18.304        0.032      343.457       19.581      861.575
06/25/2013  22:44:00      -40.499      -33.413        6.333       40.326       32.968       25.461     1626.152     1086.864      648.251        0.308        0.168       52.504       26.241        0.250      343.451       19.572      861.598
06/25/2013  22:45:00     -102.854      -70.053       -0.024       50.422       33.200       25.486     2542.391     1102.273      649.536        0.989        0.215      124.444       23.137        0.035      343.480       19.621      861.617
06/25/2013  22:46:00     -143.988      -77.270        5.034      104.011       50.345       29.762    10818.273     2534.593      885.795        2.048        0.712      163.411       42.328        0.067      343.477       19.614      861.632
06/25/2013  22:47:00     -164.317      -26.865       -7.198       47.555       48.811       31.187     2261.448     2382.509      972.604        1.669        0.281      166.498       28.352        0.029      343.444       19.559      861.633
06/25/2013  22:48:00     -147.722      -14.679       -0.960       47.273       31.131       26.452     2234.696      969.124      699.719        1.297        0.195      148.449       26.000        0.031      343.434       19.544      861.615
06/25/2013  22:49:00     -158.330      -36.926       -5.802       45.402       38.565       30.231     2061.377     1487.248      913.928        1.546        0.223      162.580       23.381        0.021      343.427       19.529      861.594
06/25/2013  22:50:00     -179.813      -41.959       -5.231       66.893       48.149       29.498     4474.671     2318.282      870.153        2.089        0.383      184.644       31.409        0.029      343.419       19.514      861.590
06/25/2013  22:51:00     -160.689      -62.949       -2.302       56.371       51.663       27.425     3177.658     2669.091      752.111        1.819        0.330      172.579       26.765        0.024      343.380       19.451      861.596
06/25/2013  22:52:00     -187.401      -63.777       -1.908       83.824       55.683       33.836     7026.525     3100.573     1144.856        2.523        0.564      197.956       39.900        0.041      343.425       19.524      861.605
06/25/2013  22:53:00     -116.462      -60.972       -4.468       59.080       73.070       31.591     3490.501     5339.254      998.014        1.356        0.491      131.457       33.414        0.065      343.472       19.606      861.600
06/25/2013  22:54:00     -146.548      -39.523        4.957       52.442       61.972       33.181     2750.199     3840.510     1100.989        1.538        0.385      151.784       37.551        0.061      343.474       19.610      861.568
06/25/2013  22:55:00     -149.974      -64.668        1.921       58.487       54.451       35.481     3420.717     2964.858     1258.885        1.716        0.382      163.322       34.111        0.044      343.454       19.576      861.534
06/25/2013  22:56:00     -155.534      -22.224       -4.083       66.438       48.649       28.818     4413.947     2366.718      830.467        1.615        0.381      157.114       30.724        0.038      343.468       19.600      861.524
06/25/2013  22:57:00     -223.542      -52.032       -2.223       63.004       58.098       33.318     3969.477     3375.357     1110.090        3.057        0.423      229.518       28.889        0.016      343.481       19.619      861.529
06/25/2013  22:58:00     -146.839      -69.233       -0.859       54.107       69.792       28.380     2927.565     4870.983      805.421        1.748        0.430      162.342       24.610        0.023      343.472       19.607      861.517
06/25/2013  22:59:00     -193.420       -3.124       -9.795       64.616       41.404       35.508     4175.235     1714.306     1260.797        2.233        0.358      193.446       33.846        0.031      343.435       19.543      861.521
06/25/2013  23:00:00     -175.670      -34.388        5.977       84.726       58.909       33.073     7178.574     3470.318     1093.820        2.191        0.587      179.004       38.896        0.047      343.418       19.513      861.510
06/25/2013  23:01:00     -146.417      -42.785       -5.793       68.377       49.248       31.529     4675.476     2425.317      994.072        1.570        0.405      152.540       29.584        0.038      343.431       19.538      861.502
06/25/2013  23:02:00     -146.344      -35.313       -8.280       48.488       46.816       24.407     2351.040     2191.731      595.698        1.393        0.257      150.545       20.551        0.019      343.449       19.569      861.495
06/25/2013  23:03:00      -80.491      -46.082        1.119       51.049       37.977       20.208     2606.019     1442.221      408.379        0.653        0.223       92.749       20.004        0.047      343.442       19.558      861.496
06/25/2013  23:04:00      -70.342      -22.127        2.164       43.835       34.622       21.204     1921.534     1198.650      449.598        0.451        0.178       73.740       24.317        0.109      343.406       19.495      861.483
06/25/2013  23:05:00      -90.280      -31.527        5.062       42.534       39.766       22.840     1809.177     1581.364      521.654        0.654        0.196       95.627       26.187        0.075      343.392       19.470      861.476
06/25/2013  23:06:00     -119.019      -31.259       -2.974       27.736       24.799       17.557      769.272      614.973      308.243        0.842        0.085      123.056       16.949        0.019      343.391       19.469      861.492
06/25/2013  23:07:00      -81.026      -52.022        2.587       29.744       20.345       17.960      884.718      413.905      322.551        0.545        0.081       96.288       14.573        0.023      343.392       19.469      861.514
06/25/2013  23:08:00      -69.443      -47.459        3.097       48.065       36.817       26.452     2310.200     1355.498      699.718        0.572        0.218       84.111       20.456        0.059      343.401       19.485      861.531
06/25/2013  23:09:00     -108.735      -79.151       -1.096       68.319       48.672       32.528     4667.528     2368.924     1058.040        1.309        0.405      134.492       28.537        0.045      343.416       19.510      861.540
06/25/2013  23:10:00     -159.235     -113.140       -6.114       71.885       50.689       33.546     5167.414     2569.365     1125.307        2.353        0.443      195.337       34.769        0.032      343.443       19.556      861.551
06/25/2013  23:11:00     -133.352      -80.153        0.154       68.264       47.279       32.602     4659.945     2235.324     1062.909        1.608        0.398      155.587       30.249        0.038      343.427       19.529      861.542
06/25/2013  23:12:00      -95.730      -64.977        3.792       42.304       56.698       29.729     1789.587     3214.628      883.807        0.964        0.294      115.699       29.984        0.067      343.420       19.516      861.522
06/25/2013  23:13:00     -107.638      -24.494       -4.726       67.962       35.689       24.488     4618.837     1273.705      599.667        0.935        0.325      110.390       21.479        0.038      343.429       19.535      861.500
06/25/2013  23:14:00     -137.722      -27.771       -2.900       42.974       38.243       22.787     1846.772     1462.515      519.245        1.179        0.191      140.494       22.857        0.026      343.411       19.503      861.497
06/25/2013  23:15:00     -119.272      -30.435      -10.574       41.907       40.982       19.340     1756.210     1679.529      374.040        0.954        0.190      123.094       18.205        0.022      343.402       19.488      861.513
06/25/2013  23:16:00     -111.860      -55.768       -2.222       34.699       29.487       20.479     1204.020      869.494      419.408        0.906        0.125      124.991       18.734        0.022      343.407       19.495      861.541
06/25/2013  23:17:00     -134.354      -60.287        0.550       44.690       35.649       22.504     1997.191     1270.823      506.437        1.273        0.189      147.260       13.377        0.008      343.409       19.497      861.563
06/25/2013  23:18:00     -148.220     -116.402       -5.863       67.699       69.940       32.688     4583.167     4891.658     1068.500        2.305        0.527      188.464       34.206        0.033      343.430       19.531      861.572
06/25/2013  23:19:00     -157.040     -126.044      -10.170       67.672       44.633       32.880     4579.504     1992.100     1081.076        2.415        0.383      201.367       26.638        0.017      343.446       19.562      861.564
06/25/2013  23:20:00     -101.188      -89.254        7.980       79.764       55.336       40.543     6362.334     3062.065     1643.716        1.467        0.553      134.927       43.742        0.105      343.432       19.540      861.564
06/25/2013  23:21:00     -119.068      -85.188       -6.094       59.889       52.422       29.381     3586.727     2748.065      863.246        1.433        0.360      146.404       17.048        0.014      343.433       19.540      861.551
06/25/2013  23:22:00     -108.625      -67.956        1.379       53.713       45.777       28.332     2885.047     2095.520      802.719        1.110        0.289      128.131       26.854        0.044      343.418       19.514      861.538
06/25/2013  23:23:00      -44.753      -38.300        9.847       41.869       30.147       25.244     1752.987      908.839      637.283        0.343        0.165       58.905       24.860        0.178      343.420       19.518      861.503
06/25/2013  23:24:00        1.734      -20.025       26.295       22.765       24.153       21.266      518.245      583.358      452.228        0.132        0.078       20.100       14.206        0.500      343.419       19.519      861.467
06/25/2013  23:25:00      -38.265      -36.003       -2.918       28.174       22.634       11.784      793.754      512.299      138.861        0.211        0.072       52.540        7.533        0.021      343.427       19.528      861.469
06/25/2013  23:26:00       -6.452      -90.247        6.962       40.787       38.055       16.822     1663.568     1448.219      282.976        0.581        0.170       90.477       20.825        0.053      343.466       19.596      861.468
06/25/2013  23:27:00       -0.648      -37.152        1.137       28.325       22.484       23.918      802.318      505.510      572.053        0.163        0.094       37.158       17.260        0.216      343.439       19.553      861.469
06/25/2013  23:28:00      -38.974      -34.932       11.065       32.609       22.152       19.863     1063.351      490.695      394.521        0.240        0.097       52.338       14.261        0.074      343.349       19.398      861.483
06/25/2013  23:29:00      -91.519      -50.545       -0.635       49.050       32.508       17.460     2405.948     1056.793      304.840        0.735        0.188      104.549        6.894        0.004      343.309       19.331      861.478
06/25/2013  23:30:00     -103.903      -61.018        3.772       48.052       31.256       20.693     2308.953      976.928      428.180        0.912        0.186      120.495       17.435        0.021      343.245       19.220      861.476
06/25/2013  23:31:00      -66.030      -66.412        4.485       27.098       23.884       20.810      734.278      570.448      433.063        0.526        0.087       93.651       14.995        0.026      343.228       19.191      861.484
06/25/2013  23:32:00      -62.507      -68.325        3.789       37.668       24.259       24.006     1418.870      588.485      576.288        0.559        0.129       92.603       18.691        0.041      343.231       19.197      861.487
06/25/2013  23:33:00      -34.706      -49.974       13.874       64.100       38.253       31.403     4108.821     1463.267      986.162        0.523        0.328       60.844       33.076        0.296      343.248       19.224      861.497
06/25/2013  23:34:00     -101.912      -88.875        9.016       74.458       49.334       26.692     5543.936     2433.840      712.480        1.353        0.435      135.221       31.734        0.055      343.254       19.235      861.514
06/25/2013  23:35:00     -139.797     -115.240       -9.111       53.150       41.188       29.792     2824.910     1696.484      887.560        1.916        0.270      181.172       30.610        0.029      343.275       19.270      861.525
06/25/2013  23:36:00     -120.362      -89.258       -6.846       33.901       44.442       26.565     1149.295     1975.051      705.710        1.316        0.192      149.847       28.551        0.036      343.243       19.217      861.535
06/25/2013  23:37:00      -64.711      -55.189        1.255       41.301       31.583       19.528     1705.764      997.506      381.338        0.516        0.154       85.049       22.721        0.071      343.220       19.179      861.532
06/25/2013  23:38:00      -79.092      -47.127       -4.585       23.151       14.198       12.773      535.975      201.588      163.154        0.470        0.045       92.068        5.300        0.003      343.209       19.164      861.523
06/25/2013  23:39:00      -74.464      -23.907        1.072       25.708       36.712       19.920      660.891     1347.785      396.788        0.426        0.120       78.208       21.749        0.077      343.223       19.183      861.519
06/25/2013  23:40:00      -81.909      -53.369        3.505       50.301       26.360       16.449     2530.216      694.849      270.573        0.653        0.175       97.762       19.535        0.040      343.243       19.219      861.533
06/25/2013  23:41:00      -98.197      -48.362        2.733       52.822       28.148       21.199     2790.150      792.327      449.412        0.801        0.202      109.460       24.690        0.051      343.187       19.123      861.534
06/25/2013  23:42:00     -132.123      -38.839       -3.196       40.567       34.236       22.198     1645.663     1172.092      492.733        1.114        0.166      137.714       24.003        0.030      343.157       19.071      861.533
06/25/2013  23:43:00     -165.974      -44.307        3.056       51.563       42.381       24.713     2658.705     1796.126      610.748        1.729        0.253      171.786       26.481        0.024      343.149       19.057      861.543
06/25/2013  23:44:00     -100.386      -52.174        6.861       52.692       38.308       27.537     2776.444     1467.531      758.312        0.892        0.250      113.135       27.034        0.057      343.171       19.094      861.569
06/25/2013  23:45:00     -136.665      -84.662       -7.401       61.991       39.230       26.519     3842.888     1539.022      703.264        1.599        0.304      160.763       26.922        0.028      343.200       19.142      861.595
06/25/2013  23:46:00     -124.899      -58.436        0.720       46.754       44.870       25.065     2185.917     2013.327      628.259        1.192        0.241      137.894       20.780        0.023      343.147       19.054      861.603
06/25/2013  23:47:00     -110.794      -43.284       -1.905       38.458       24.251       15.931     1479.032      588.106      253.793        0.824        0.116      118.949       15.016        0.016      343.155       19.070      861.607
06/25/2013  23:48:00      -95.949      -17.253        3.383       40.917       30.277       19.727     1674.212      916.672      389.171        0.625        0.149       97.487       18.289        0.035      343.161       19.078      861.600
06/25/2013  23:49:00     -102.275      -26.637       -4.232       38.886       29.911       15.382     1512.103      894.675      236.603        0.692        0.132      105.687       18.140        0.029      343.183       19.117      861.597
06/25/2013  23:50:00      -77.956      -22.399       -8.002       21.987       20.116       16.815      483.418      404.657      282.750        0.391        0.059       81.110       14.021        0.030      343.139       19.039      861.580
06/25/2013  23:51:00      -45.543      -26.986        2.303       25.784       14.655       10.453      664.815      214.767      109.267        0.190        0.049       52.938       11.396        0.046      343.119       19.008      861.570
06/25/2013  23:52:00      -46.904      -34.393        2.573       19.806       16.787       14.065      392.277      281.810      197.836        0.213        0.044       58.162        8.898        0.023      343.162       19.080      861.574
06/25/2013  23:53:00     -109.185      -48.307       -0.918       36.975       25.933       19.776     1367.165      672.513      391.075        0.834        0.122      119.394       21.247        0.032      343.157       19.068      861.597
06/25/2013  23:54:00      -88.281      -65.532        2.481       45.035       35.132       27.628     2028.114     1234.293      763.301        0.806        0.201      109.945       26.109        0.056      343.106       18.985      861.625
06/25/2013  23:55:00     -106.557      -59.495       -0.859       39.779       24.683       19.555     1582.376      609.229      382.404        0.873        0.129      122.041       17.278        0.020      343.106       18.984      861.642
06/25/2013  23:56:00      -99.652      -36.913       -1.442       37.174       36.730       20.390     1381.922     1349.114      415.748        0.722        0.157      106.269       17.811        0.028      343.108       18.987      861.641
06/25/2013  23:57:00      -92.842      -21.232       -7.308       40.451       33.901       19.266     1636.321     1149.283      371.187        0.614        0.158       95.239       14.629        0.024      343.104       18.982      861.617
06/25/2013  23:58:00     -125.243      -33.255       -2.047       51.892       33.990       20.100     2692.787     1155.350      403.999        1.052        0.213      129.583       23.286        0.032      343.057       18.900      861.593
06/25/2013  23:59:00     -119.748      -42.017       -2.115       41.378       31.884       18.156     1712.177     1016.562      329.626        0.958        0.153      126.906       17.043        0.018      343.050       18.889      861.587
